Wetterdaten: Montag, 15.04.2024
Datum Zeit Temp. I. Temp. A. Feuchte I. Feuchte A. Luftdruck Regen Wind Richtung Richtung Sonnenschein Solar Taupunkt Windchill Windböen
15.04.2024 00:00 21,7 °C 9,8 °C 55 % 81 % 1016,2 hPa 0,0 l/m² 0,0 km/h (0 Bft) W 279 ° 0 min 0 W/m² 6,7 °C 9,8 °C 0,0 km/h (0 Bft)
15.04.2024 00:02 21,7 °C 9,8 °C 55 % 80 % 1016,3 hPa 0,0 l/m² 0,0 km/h (0 Bft) W 279 ° 0 min 0 W/m² 6,5 °C 9,8 °C 0,0 km/h (0 Bft)
15.04.2024 00:04 21,7 °C 9,9 °C 55 % 80 % 1016,3 hPa 0,0 l/m² 0,0 km/h (0 Bft) W 279 ° 0 min 0 W/m² 6,6 °C 9,9 °C 0,0 km/h (0 Bft)
15.04.2024 00:06 21,7 °C 9,8 °C 55 % 81 % 1016,2 hPa 0,0 l/m² 0,0 km/h (0 Bft) W 279 ° 0 min 0 W/m² 6,7 °C 9,8 °C 0,0 km/h (0 Bft)
15.04.2024 00:08 21,7 °C 9,8 °C 55 % 81 % 1016,3 hPa 0,0 l/m² 0,0 km/h (0 Bft) W 279 ° 0 min 0 W/m² 6,7 °C 9,8 °C 0,0 km/h (0 Bft)
15.04.2024 00:10 21,7 °C 9,8 °C 55 % 81 % 1016,2 hPa 0,0 l/m² 0,0 km/h (0 Bft) W 279 ° 0 min 0 W/m² 6,7 °C 9,8 °C 0,0 km/h (0 Bft)
15.04.2024 00:11 21,7 °C 9,7 °C 55 % 81 % 1016,1 hPa 0,0 l/m² 2,3 km/h (1 Bft) W 279 ° 0 min 0 W/m² 6,6 °C 9,7 °C 3,2 km/h (1 Bft)
15.04.2024 00:13 21,7 °C 9,7 °C 55 % 81 % 1016,1 hPa 0,0 l/m² 1,5 km/h (1 Bft) W 279 ° 0 min 0 W/m² 6,6 °C 9,7 °C 3,2 km/h (1 Bft)
15.04.2024 00:15 21,7 °C 9,6 °C 55 % 81 % 1016,2 hPa 0,0 l/m² 0,0 km/h (0 Bft) W 279 ° 0 min 0 W/m² 6,5 °C 9,6 °C 0,0 km/h (0 Bft)
15.04.2024 00:17 21,7 °C 9,5 °C 55 % 83 % 1016,1 hPa 0,0 l/m² 0,0 km/h (0 Bft) W 279 ° 0 min 0 W/m² 6,8 °C 9,5 °C 0,0 km/h (0 Bft)
15.04.2024 00:19 21,7 °C 9,3 °C 55 % 84 % 1016,1 hPa 0,0 l/m² 0,0 km/h (0 Bft) W 279 ° 0 min 0 W/m² 6,7 °C 9,3 °C 0,0 km/h (0 Bft)
15.04.2024 00:20 21,7 °C 9,2 °C 55 % 84 % 1016,0 hPa 0,0 l/m² 0,0 km/h (0 Bft) W 279 ° 0 min 0 W/m² 6,6 °C 9,2 °C 0,0 km/h (0 Bft)
15.04.2024 00:22 21,7 °C 9,0 °C 55 % 85 % 1015,8 hPa 0,0 l/m² 0,0 km/h (0 Bft) W 279 ° 0 min 0 W/m² 6,6 °C 9,0 °C 0,0 km/h (0 Bft)
15.04.2024 00:24 21,8 °C 8,9 °C 55 % 86 % 1015,8 hPa 0,0 l/m² 0,0 km/h (0 Bft) W 279 ° 0 min 0 W/m² 6,7 °C 8,9 °C 0,0 km/h (0 Bft)
15.04.2024 00:26 21,8 °C 8,8 °C 55 % 86 % 1015,8 hPa 0,0 l/m² 0,0 km/h (0 Bft) W 279 ° 0 min 0 W/m² 6,6 °C 8,8 °C 0,0 km/h (0 Bft)
15.04.2024 00:28 21,7 °C 8,7 °C 55 % 87 % 1015,8 hPa 0,0 l/m² 0,0 km/h (0 Bft) W 279 ° 0 min 0 W/m² 6,7 °C 8,7 °C 0,0 km/h (0 Bft)
15.04.2024 00:30 21,8 °C 8,7 °C 55 % 87 % 1015,9 hPa 0,0 l/m² 0,0 km/h (0 Bft) W 279 ° 0 min 0 W/m² 6,7 °C 8,7 °C 0,0 km/h (0 Bft)
15.04.2024 00:31 21,7 °C 8,8 °C 55 % 87 % 1015,8 hPa 0,0 l/m² 0,0 km/h (0 Bft) W 279 ° 0 min 0 W/m² 6,8 °C 8,8 °C 0,0 km/h (0 Bft)
15.04.2024 00:33 21,7 °C 8,7 °C 55 % 87 % 1015,8 hPa 0,0 l/m² 0,0 km/h (0 Bft) W 279 ° 0 min 0 W/m² 6,7 °C 8,7 °C 0,0 km/h (0 Bft)
15.04.2024 00:35 21,7 °C 8,7 °C 55 % 88 % 1015,7 hPa 0,0 l/m² 0,0 km/h (0 Bft) W 279 ° 0 min 0 W/m² 6,8 °C 8,7 °C 0,0 km/h (0 Bft)
15.04.2024 00:36 21,8 °C 8,7 °C 55 % 88 % 1015,7 hPa 0,0 l/m² 0,0 km/h (0 Bft) W 279 ° 0 min 0 W/m² 6,8 °C 8,7 °C 0,0 km/h (0 Bft)
15.04.2024 00:38 21,7 °C 8,7 °C 55 % 88 % 1015,7 hPa 0,0 l/m² 0,0 km/h (0 Bft) W 279 ° 0 min 0 W/m² 6,8 °C 8,7 °C 0,0 km/h (0 Bft)
15.04.2024 00:40 21,8 °C 8,8 °C 55 % 88 % 1015,7 hPa 0,0 l/m² 0,0 km/h (0 Bft) W 279 ° 0 min 0 W/m² 6,9 °C 8,8 °C 0,0 km/h (0 Bft)
15.04.2024 00:41 21,8 °C 8,8 °C 55 % 88 % 1015,7 hPa 0,0 l/m² 0,0 km/h (0 Bft) W 279 ° 0 min 0 W/m² 6,9 °C 8,8 °C 0,0 km/h (0 Bft)
15.04.2024 00:42 21,8 °C 8,8 °C 55 % 88 % 1015,6 hPa 0,0 l/m² 0,0 km/h (0 Bft) W 279 ° 0 min 0 W/m² 6,9 °C 8,8 °C 0,0 km/h (0 Bft)
15.04.2024 00:43 21,8 °C 8,8 °C 55 % 88 % 1015,6 hPa 0,0 l/m² 0,0 km/h (0 Bft) W 279 ° 0 min 0 W/m² 6,9 °C 8,8 °C 0,0 km/h (0 Bft)
15.04.2024 00:45 21,7 °C 8,9 °C 55 % 88 % 1015,6 hPa 0,0 l/m² 0,0 km/h (0 Bft) W 279 ° 0 min 0 W/m² 7,0 °C 8,9 °C 0,0 km/h (0 Bft)
15.04.2024 00:47 21,8 °C 9,1 °C 55 % 87 % 1015,6 hPa 0,0 l/m² 0,0 km/h (0 Bft) W 279 ° 0 min 0 W/m² 7,1 °C 9,1 °C 0,0 km/h (0 Bft)
15.04.2024 00:49 21,8 °C 9,0 °C 55 % 87 % 1015,6 hPa 0,0 l/m² 0,0 km/h (0 Bft) W 279 ° 0 min 0 W/m² 7,0 °C 9,0 °C 0,0 km/h (0 Bft)
15.04.2024 00:51 21,8 °C 8,9 °C 55 % 87 % 1015,6 hPa 0,0 l/m² 0,0 km/h (0 Bft) W 279 ° 0 min 0 W/m² 6,9 °C 8,9 °C 0,0 km/h (0 Bft)
15.04.2024 00:52 21,8 °C 8,9 °C 55 % 88 % 1015,6 hPa 0,0 l/m² 0,0 km/h (0 Bft) W 279 ° 0 min 0 W/m² 7,0 °C 8,9 °C 0,0 km/h (0 Bft)
15.04.2024 00:54 21,8 °C 8,8 °C 55 % 88 % 1015,6 hPa 0,0 l/m² 0,0 km/h (0 Bft) W 279 ° 0 min 0 W/m² 6,9 °C 8,8 °C 0,0 km/h (0 Bft)
15.04.2024 00:56 21,7 °C 8,8 °C 55 % 88 % 1015,6 hPa 0,0 l/m² 0,0 km/h (0 Bft) W 279 ° 0 min 0 W/m² 6,9 °C 8,8 °C 0,0 km/h (0 Bft)
15.04.2024 00:58 21,8 °C 8,9 °C 55 % 88 % 1015,5 hPa 0,0 l/m² 0,0 km/h (0 Bft) W 279 ° 0 min 0 W/m² 7,0 °C 8,9 °C 0,0 km/h (0 Bft)
15.04.2024 01:00 21,8 °C 9,1 °C 55 % 88 % 1015,5 hPa 0,0 l/m² 0,0 km/h (0 Bft) W 279 ° 0 min 0 W/m² 7,2 °C 9,1 °C 0,0 km/h (0 Bft)
15.04.2024 01:01 21,8 °C 9,1 °C 55 % 88 % 1015,5 hPa 0,0 l/m² 0,0 km/h (0 Bft) W 279 ° 0 min 0 W/m² 7,2 °C 9,1 °C 0,0 km/h (0 Bft)
15.04.2024 01:03 21,8 °C 9,2 °C 55 % 87 % 1015,4 hPa 0,0 l/m² 0,0 km/h (0 Bft) W 279 ° 0 min 0 W/m² 7,2 °C 9,2 °C 0,0 km/h (0 Bft)
15.04.2024 01:05 21,8 °C 9,3 °C 55 % 87 % 1015,3 hPa 0,0 l/m² 0,0 km/h (0 Bft) W 279 ° 0 min 0 W/m² 7,2 °C 9,3 °C 0,0 km/h (0 Bft)
15.04.2024 01:07 21,8 °C 9,4 °C 55 % 87 % 1015,1 hPa 0,0 l/m² 0,0 km/h (0 Bft) W 279 ° 0 min 0 W/m² 7,3 °C 9,4 °C 0,0 km/h (0 Bft)
15.04.2024 01:09 21,8 °C 9,4 °C 55 % 87 % 1015,1 hPa 0,0 l/m² 0,1 km/h (0 Bft) W 279 ° 0 min 0 W/m² 7,3 °C 9,4 °C 1,6 km/h (1 Bft)
15.04.2024 01:11 21,8 °C 9,5 °C 55 % 86 % 1015,1 hPa 0,0 l/m² 0,1 km/h (0 Bft) W 279 ° 0 min 0 W/m² 7,3 °C 9,5 °C 1,6 km/h (1 Bft)
15.04.2024 01:12 21,8 °C 9,5 °C 55 % 86 % 1015,1 hPa 0,0 l/m² 0,0 km/h (0 Bft) W 279 ° 0 min 0 W/m² 7,3 °C 9,5 °C 0,0 km/h (0 Bft)
15.04.2024 01:14 21,8 °C 9,6 °C 55 % 86 % 1015,2 hPa 0,0 l/m² 0,2 km/h (0 Bft) W 279 ° 0 min 0 W/m² 7,4 °C 9,6 °C 1,6 km/h (1 Bft)
15.04.2024 01:16 21,8 °C 9,6 °C 55 % 85 % 1015,2 hPa 0,0 l/m² 1,5 km/h (1 Bft) W 279 ° 0 min 0 W/m² 7,2 °C 9,6 °C 3,2 km/h (1 Bft)
15.04.2024 01:18 21,8 °C 9,5 °C 55 % 85 % 1015,3 hPa 0,0 l/m² 0,1 km/h (0 Bft) W 279 ° 0 min 0 W/m² 7,1 °C 9,5 °C 1,6 km/h (1 Bft)
15.04.2024 01:20 21,8 °C 9,5 °C 55 % 85 % 1015,2 hPa 0,0 l/m² 0,2 km/h (0 Bft) W 279 ° 0 min 0 W/m² 7,1 °C 9,5 °C 1,6 km/h (1 Bft)
15.04.2024 01:21 21,8 °C 9,4 °C 55 % 85 % 1015,3 hPa 0,0 l/m² 0,0 km/h (0 Bft) W 279 ° 0 min 0 W/m² 7,0 °C 9,4 °C 0,0 km/h (0 Bft)
15.04.2024 01:23 21,8 °C 9,4 °C 55 % 85 % 1015,3 hPa 0,0 l/m² 0,0 km/h (0 Bft) W 279 ° 0 min 0 W/m² 7,0 °C 9,4 °C 0,0 km/h (0 Bft)
15.04.2024 01:25 21,7 °C 9,4 °C 55 % 84 % 1015,3 hPa 0,0 l/m² 0,0 km/h (0 Bft) W 279 ° 0 min 0 W/m² 6,8 °C 9,4 °C 0,0 km/h (0 Bft)
15.04.2024 01:27 21,8 °C 9,3 °C 55 % 84 % 1015,2 hPa 0,0 l/m² 0,2 km/h (0 Bft) W 279 ° 0 min 0 W/m² 6,7 °C 9,3 °C 1,6 km/h (1 Bft)
15.04.2024 01:29 21,8 °C 9,2 °C 55 % 85 % 1015,3 hPa 0,0 l/m² 0,4 km/h (0 Bft) W 279 ° 0 min 0 W/m² 6,8 °C 9,2 °C 3,2 km/h (1 Bft)
15.04.2024 01:31 21,8 °C 9,0 °C 55 % 85 % 1015,3 hPa 0,0 l/m² 1,5 km/h (1 Bft) W 279 ° 0 min 0 W/m² 6,6 °C 9,0 °C 3,2 km/h (1 Bft)
15.04.2024 01:32 21,8 °C 8,9 °C 55 % 86 % 1015,3 hPa 0,0 l/m² 1,1 km/h (1 Bft) W 279 ° 0 min 0 W/m² 6,7 °C 8,9 °C 1,6 km/h (1 Bft)
15.04.2024 01:34 21,8 °C 8,8 °C 55 % 87 % 1015,3 hPa 0,0 l/m² 1,8 km/h (1 Bft) W 279 ° 0 min 0 W/m² 6,8 °C 8,8 °C 3,2 km/h (1 Bft)
15.04.2024 01:36 21,8 °C 8,7 °C 55 % 87 % 1015,3 hPa 0,0 l/m² 1,1 km/h (1 Bft) W 279 ° 0 min 0 W/m² 6,7 °C 8,7 °C 1,6 km/h (1 Bft)
15.04.2024 01:38 21,8 °C 8,7 °C 55 % 88 % 1015,4 hPa 0,0 l/m² 1,0 km/h (0 Bft) W 279 ° 0 min 0 W/m² 6,8 °C 8,7 °C 1,6 km/h (1 Bft)
15.04.2024 01:40 21,8 °C 8,7 °C 55 % 89 % 1015,4 hPa 0,0 l/m² 0,0 km/h (0 Bft) W 279 ° 0 min 0 W/m² 7,0 °C 8,7 °C 0,0 km/h (0 Bft)
15.04.2024 01:41 21,8 °C 8,7 °C 55 % 89 % 1015,4 hPa 0,0 l/m² 0,0 km/h (0 Bft) W 279 ° 0 min 0 W/m² 7,0 °C 8,7 °C 0,0 km/h (0 Bft)
15.04.2024 01:43 21,8 °C 8,8 °C 55 % 89 % 1015,4 hPa 0,0 l/m² 0,0 km/h (0 Bft) W 279 ° 0 min 0 W/m² 7,1 °C 8,8 °C 0,0 km/h (0 Bft)
15.04.2024 01:45 21,8 °C 8,8 °C 55 % 89 % 1015,5 hPa 0,0 l/m² 1,5 km/h (1 Bft) W 279 ° 0 min 0 W/m² 7,1 °C 8,8 °C 3,2 km/h (1 Bft)
15.04.2024 01:47 21,8 °C 8,8 °C 55 % 89 % 1015,5 hPa 0,0 l/m² 3,6 km/h (1 Bft) W 260 ° 0 min 0 W/m² 7,1 °C 8,8 °C 4,8 km/h (1 Bft)
15.04.2024 01:49 21,8 °C 8,8 °C 55 % 89 % 1015,6 hPa 0,0 l/m² 3,1 km/h (1 Bft) W 260 ° 0 min 0 W/m² 7,1 °C 8,8 °C 4,8 km/h (1 Bft)
15.04.2024 01:51 21,8 °C 8,9 °C 55 % 89 % 1015,4 hPa 0,0 l/m² 2,2 km/h (1 Bft) W 260 ° 0 min 0 W/m² 7,2 °C 8,9 °C 3,2 km/h (1 Bft)
15.04.2024 01:52 21,8 °C 8,9 °C 55 % 89 % 1015,3 hPa 0,0 l/m² 1,3 km/h (1 Bft) W 260 ° 0 min 0 W/m² 7,2 °C 8,9 °C 3,2 km/h (1 Bft)
15.04.2024 01:54 21,8 °C 9,0 °C 55 % 89 % 1015,3 hPa 0,0 l/m² 0,4 km/h (0 Bft) W 260 ° 0 min 0 W/m² 7,3 °C 9,0 °C 1,6 km/h (1 Bft)
15.04.2024 01:56 21,8 °C 9,0 °C 55 % 89 % 1015,4 hPa 0,0 l/m² 1,2 km/h (1 Bft) W 260 ° 0 min 0 W/m² 7,3 °C 9,0 °C 3,2 km/h (1 Bft)
15.04.2024 01:58 21,8 °C 9,0 °C 55 % 89 % 1015,3 hPa 0,0 l/m² 0,7 km/h (0 Bft) W 260 ° 0 min 0 W/m² 7,3 °C 9,0 °C 3,2 km/h (1 Bft)
15.04.2024 02:00 21,8 °C 9,0 °C 55 % 89 % 1015,4 hPa 0,0 l/m² 0,1 km/h (0 Bft) W 260 ° 0 min 0 W/m² 7,3 °C 9,0 °C 1,6 km/h (1 Bft)
15.04.2024 02:01 21,8 °C 9,0 °C 55 % 89 % 1015,3 hPa 0,0 l/m² 0,6 km/h (0 Bft) W 260 ° 0 min 0 W/m² 7,3 °C 9,0 °C 1,6 km/h (1 Bft)
15.04.2024 02:02 21,8 °C 9,0 °C 55 % 89 % 1015,3 hPa 0,0 l/m² 1,8 km/h (1 Bft) W 260 ° 0 min 0 W/m² 7,3 °C 9,0 °C 3,2 km/h (1 Bft)
15.04.2024 02:03 21,8 °C 8,9 °C 55 % 89 % 1015,2 hPa 0,0 l/m² 0,8 km/h (0 Bft) W 260 ° 0 min 0 W/m² 7,2 °C 8,9 °C 1,6 km/h (1 Bft)
15.04.2024 02:05 21,7 °C 9,1 °C 55 % 88 % 1015,3 hPa 0,0 l/m² 0,4 km/h (0 Bft) W 260 ° 0 min 0 W/m² 7,2 °C 9,1 °C 1,6 km/h (1 Bft)
15.04.2024 02:07 21,8 °C 9,1 °C 55 % 88 % 1015,2 hPa 0,0 l/m² 0,0 km/h (0 Bft) W 260 ° 0 min 0 W/m² 7,2 °C 9,1 °C 0,0 km/h (0 Bft)
15.04.2024 02:09 21,8 °C 9,1 °C 55 % 88 % 1015,1 hPa 0,0 l/m² 0,0 km/h (0 Bft) W 260 ° 0 min 0 W/m² 7,2 °C 9,1 °C 0,0 km/h (0 Bft)
15.04.2024 02:11 21,8 °C 9,0 °C 55 % 88 % 1015,1 hPa 0,0 l/m² 0,0 km/h (0 Bft) W 260 ° 0 min 0 W/m² 7,1 °C 9,0 °C 0,0 km/h (0 Bft)
15.04.2024 02:12 21,8 °C 8,9 °C 55 % 88 % 1015,0 hPa 0,0 l/m² 0,0 km/h (0 Bft) W 260 ° 0 min 0 W/m² 7,0 °C 8,9 °C 0,0 km/h (0 Bft)
15.04.2024 02:14 21,8 °C 8,9 °C 55 % 89 % 1015,1 hPa 0,0 l/m² 0,0 km/h (0 Bft) W 260 ° 0 min 0 W/m² 7,2 °C 8,9 °C 0,0 km/h (0 Bft)
15.04.2024 02:16 21,8 °C 8,8 °C 55 % 89 % 1015,1 hPa 0,0 l/m² 0,0 km/h (0 Bft) W 260 ° 0 min 0 W/m² 7,1 °C 8,8 °C 0,0 km/h (0 Bft)
15.04.2024 02:18 21,8 °C 8,9 °C 55 % 90 % 1015,1 hPa 0,0 l/m² 0,8 km/h (0 Bft) W 260 ° 0 min 0 W/m² 7,4 °C 8,9 °C 3,2 km/h (1 Bft)
15.04.2024 02:20 21,8 °C 9,0 °C 55 % 89 % 1015,2 hPa 0,0 l/m² 3,2 km/h (1 Bft) W 261 ° 0 min 0 W/m² 7,3 °C 9,0 °C 4,8 km/h (1 Bft)
15.04.2024 02:21 21,8 °C 9,0 °C 55 % 89 % 1015,2 hPa 0,0 l/m² 2,8 km/h (1 Bft) W 262 ° 0 min 0 W/m² 7,3 °C 9,0 °C 4,8 km/h (1 Bft)
15.04.2024 02:23 21,7 °C 9,1 °C 55 % 89 % 1015,2 hPa 0,0 l/m² 2,9 km/h (1 Bft) W 263 ° 0 min 0 W/m² 7,4 °C 9,1 °C 4,8 km/h (1 Bft)
15.04.2024 02:25 21,8 °C 9,1 °C 55 % 89 % 1015,2 hPa 0,0 l/m² 1,6 km/h (1 Bft) W 263 ° 0 min 0 W/m² 7,4 °C 9,1 °C 4,8 km/h (1 Bft)
15.04.2024 02:27 21,8 °C 9,1 °C 55 % 89 % 1015,3 hPa 0,0 l/m² 0,5 km/h (0 Bft) W 263 ° 0 min 0 W/m² 7,4 °C 9,1 °C 1,6 km/h (1 Bft)
15.04.2024 02:29 21,8 °C 9,2 °C 55 % 89 % 1015,5 hPa 0,0 l/m² 0,8 km/h (0 Bft) W 263 ° 0 min 0 W/m² 7,5 °C 9,2 °C 3,2 km/h (1 Bft)
15.04.2024 02:31 21,7 °C 9,2 °C 55 % 88 % 1015,4 hPa 0,0 l/m² 0,1 km/h (0 Bft) W 263 ° 0 min 0 W/m² 7,3 °C 9,2 °C 1,6 km/h (1 Bft)
15.04.2024 02:32 21,8 °C 9,2 °C 55 % 88 % 1015,4 hPa 0,0 l/m² 0,6 km/h (0 Bft) W 263 ° 0 min 0 W/m² 7,3 °C 9,2 °C 1,6 km/h (1 Bft)
15.04.2024 02:34 21,8 °C 9,2 °C 55 % 88 % 1015,3 hPa 0,0 l/m² 0,5 km/h (0 Bft) W 263 ° 0 min 0 W/m² 7,3 °C 9,2 °C 1,6 km/h (1 Bft)
15.04.2024 02:36 21,7 °C 9,3 °C 55 % 88 % 1015,3 hPa 0,0 l/m² 0,8 km/h (0 Bft) W 263 ° 0 min 0 W/m² 7,4 °C 9,3 °C 3,2 km/h (1 Bft)
15.04.2024 02:38 21,7 °C 9,3 °C 55 % 88 % 1015,3 hPa 0,0 l/m² 0,9 km/h (0 Bft) W 263 ° 0 min 0 W/m² 7,4 °C 9,3 °C 1,6 km/h (1 Bft)
15.04.2024 02:40 21,7 °C 9,3 °C 55 % 88 % 1015,3 hPa 0,0 l/m² 0,0 km/h (0 Bft) W 263 ° 0 min 0 W/m² 7,4 °C 9,3 °C 0,0 km/h (0 Bft)
15.04.2024 02:41 21,8 °C 9,3 °C 55 % 88 % 1015,4 hPa 0,0 l/m² 0,0 km/h (0 Bft) W 263 ° 0 min 0 W/m² 7,4 °C 9,3 °C 0,0 km/h (0 Bft)
15.04.2024 02:43 21,7 °C 9,3 °C 55 % 88 % 1015,3 hPa 0,0 l/m² 1,2 km/h (1 Bft) W 263 ° 0 min 0 W/m² 7,4 °C 9,3 °C 3,2 km/h (1 Bft)
15.04.2024 02:45 21,7 °C 9,2 °C 55 % 88 % 1015,3 hPa 0,0 l/m² 2,8 km/h (1 Bft) W 263 ° 0 min 0 W/m² 7,3 °C 9,2 °C 4,8 km/h (1 Bft)
15.04.2024 02:47 21,7 °C 9,2 °C 55 % 88 % 1015,2 hPa 0,0 l/m² 0,8 km/h (0 Bft) W 263 ° 0 min 0 W/m² 7,3 °C 9,2 °C 3,2 km/h (1 Bft)
15.04.2024 02:49 21,7 °C 9,2 °C 55 % 87 % 1015,2 hPa 0,0 l/m² 0,9 km/h (0 Bft) W 263 ° 0 min 0 W/m² 7,2 °C 9,2 °C 3,2 km/h (1 Bft)
15.04.2024 02:51 21,7 °C 9,2 °C 55 % 87 % 1015,1 hPa 0,0 l/m² 0,8 km/h (0 Bft) W 280 ° 0 min 0 W/m² 7,2 °C 9,2 °C 4,8 km/h (1 Bft)
15.04.2024 02:52 21,7 °C 9,2 °C 55 % 87 % 1015,1 hPa 0,0 l/m² 1,8 km/h (1 Bft) W-NW 283 ° 0 min 0 W/m² 7,2 °C 9,2 °C 4,8 km/h (1 Bft)
15.04.2024 02:54 21,7 °C 9,3 °C 55 % 86 % 1015,1 hPa 0,0 l/m² 2,7 km/h (1 Bft) W-NW 292 ° 0 min 0 W/m² 7,1 °C 9,3 °C 6,4 km/h (2 Bft)
15.04.2024 02:56 21,7 °C 9,3 °C 55 % 86 % 1015,0 hPa 0,0 l/m² 3,7 km/h (1 Bft) W-NW 294 ° 0 min 0 W/m² 7,1 °C 9,3 °C 4,8 km/h (1 Bft)
15.04.2024 02:58 21,7 °C 9,3 °C 55 % 87 % 1014,9 hPa 0,0 l/m² 1,4 km/h (1 Bft) W-NW 294 ° 0 min 0 W/m² 7,2 °C 9,3 °C 3,2 km/h (1 Bft)
15.04.2024 03:00 21,7 °C 9,3 °C 55 % 86 % 1014,9 hPa 0,0 l/m² 1,5 km/h (1 Bft) W-NW 293 ° 0 min 0 W/m² 7,1 °C 9,3 °C 3,2 km/h (1 Bft)
15.04.2024 03:01 21,7 °C 9,3 °C 55 % 86 % 1014,8 hPa 0,0 l/m² 0,0 km/h (0 Bft) N 0 ° 0 min 0 W/m² 7,1 °C 9,3 °C 0,0 km/h (0 Bft)
15.04.2024 03:06 21,7 °C 9,2 °C 55 % 86 % 1014,6 hPa 0,0 l/m² 3,8 km/h (1 Bft) N-NW 327 ° 0 min 0 W/m² 7,0 °C 9,2 °C 8,0 km/h (2 Bft)
15.04.2024 03:08 21,7 °C 9,2 °C 55 % 84 % 1014,6 hPa 0,0 l/m² 5,0 km/h (1 Bft) N-NW 331 ° 0 min 0 W/m² 6,6 °C 9,2 °C 8,0 km/h (2 Bft)
15.04.2024 03:09 21,7 °C 9,3 °C 55 % 84 % 1014,6 hPa 0,0 l/m² 4,2 km/h (1 Bft) W-NW 302 ° 0 min 0 W/m² 6,7 °C 9,3 °C 6,4 km/h (2 Bft)
15.04.2024 03:11 21,7 °C 9,3 °C 55 % 82 % 1014,7 hPa 0,0 l/m² 5,7 km/h (2 Bft) N-NW 331 ° 0 min 0 W/m² 6,4 °C 9,3 °C 9,7 km/h (2 Bft)
15.04.2024 03:12 21,7 °C 9,3 °C 55 % 81 % 1014,7 hPa 0,0 l/m² 9,1 km/h (2 Bft) N 355 ° 0 min 0 W/m² 6,2 °C 7,4 °C 14,5 km/h (3 Bft)
15.04.2024 03:14 21,7 °C 9,5 °C 55 % 80 % 1014,8 hPa 0,0 l/m² 7,5 km/h (2 Bft) NW 325 ° 0 min 0 W/m² 6,2 °C 8,7 °C 14,5 km/h (3 Bft)
15.04.2024 03:16 21,7 °C 9,6 °C 55 % 79 % 1014,7 hPa 0,0 l/m² 4,2 km/h (1 Bft) NW 323 ° 0 min 0 W/m² 6,1 °C 9,6 °C 6,4 km/h (2 Bft)
15.04.2024 03:18 21,7 °C 9,6 °C 55 % 80 % 1014,8 hPa 0,0 l/m² 3,7 km/h (1 Bft) NW 313 ° 0 min 0 W/m² 6,3 °C 9,6 °C 12,9 km/h (3 Bft)
15.04.2024 03:20 21,7 °C 9,6 °C 55 % 79 % 1014,9 hPa 0,0 l/m² 4,6 km/h (1 Bft) W 275 ° 0 min 0 W/m² 6,1 °C 9,6 °C 11,3 km/h (2 Bft)
15.04.2024 03:21 21,7 °C 9,6 °C 55 % 79 % 1015,0 hPa 0,0 l/m² 4,5 km/h (1 Bft) NW 304 ° 0 min 0 W/m² 6,1 °C 9,6 °C 9,7 km/h (2 Bft)
15.04.2024 03:22 21,7 °C 9,6 °C 55 % 79 % 1014,9 hPa 0,0 l/m² 4,2 km/h (1 Bft) W-NW 284 ° 0 min 0 W/m² 6,1 °C 9,6 °C 12,9 km/h (3 Bft)
15.04.2024 03:24 21,7 °C 9,6 °C 55 % 79 % 1014,9 hPa 0,2 l/m² 3,2 km/h (1 Bft) W-NW 301 ° 0 min 0 W/m² 6,1 °C 9,6 °C 12,9 km/h (3 Bft)
15.04.2024 03:26 21,7 °C 9,6 °C 55 % 78 % 1015,0 hPa 0,0 l/m² 6,7 km/h (2 Bft) NW 315 ° 0 min 0 W/m² 6,0 °C 9,4 °C 14,5 km/h (3 Bft)
15.04.2024 03:28 21,7 °C 9,6 °C 55 % 78 % 1015,0 hPa 0,0 l/m² 4,0 km/h (1 Bft) NW 313 ° 0 min 0 W/m² 6,0 °C 9,6 °C 8,0 km/h (2 Bft)
15.04.2024 03:30 21,7 °C 9,6 °C 55 % 78 % 1015,1 hPa 0,0 l/m² 3,2 km/h (1 Bft) W-NW 284 ° 0 min 0 W/m² 6,0 °C 9,6 °C 6,4 km/h (2 Bft)
15.04.2024 03:31 21,7 °C 9,6 °C 55 % 78 % 1015,0 hPa 0,0 l/m² 3,5 km/h (1 Bft) W-NW 290 ° 0 min 0 W/m² 6,0 °C 9,6 °C 8,0 km/h (2 Bft)
15.04.2024 03:32 21,7 °C 9,6 °C 55 % 78 % 1015,1 hPa 0,0 l/m² 4,2 km/h (1 Bft) W-NW 282 ° 0 min 0 W/m² 6,0 °C 9,6 °C 11,3 km/h (2 Bft)
15.04.2024 03:33 21,7 °C 9,6 °C 55 % 79 % 1015,1 hPa 0,0 l/m² 5,1 km/h (1 Bft) NW 315 ° 0 min 0 W/m² 6,1 °C 9,6 °C 9,7 km/h (2 Bft)
15.04.2024 03:35 21,7 °C 9,5 °C 55 % 79 % 1015,1 hPa 0,0 l/m² 4,5 km/h (1 Bft) NW 306 ° 0 min 0 W/m² 6,0 °C 9,5 °C 6,4 km/h (2 Bft)
15.04.2024 03:37 21,7 °C 9,4 °C 55 % 80 % 1015,1 hPa 0,0 l/m² 3,5 km/h (1 Bft) W-NW 283 ° 0 min 0 W/m² 6,1 °C 9,4 °C 6,4 km/h (2 Bft)
15.04.2024 03:39 21,7 °C 9,4 °C 55 % 81 % 1015,1 hPa 0,0 l/m² 7,1 km/h (2 Bft) NW 325 ° 0 min 0 W/m² 6,3 °C 8,9 °C 11,3 km/h (2 Bft)
15.04.2024 03:40 21,7 °C 9,4 °C 55 % 81 % 1015,0 hPa 0,2 l/m² 8,4 km/h (2 Bft) W-NW 288 ° 0 min 0 W/m² 6,3 °C 7,9 °C 12,9 km/h (3 Bft)
15.04.2024 03:42 21,7 °C 9,3 °C 55 % 82 % 1015,1 hPa 0,0 l/m² 3,8 km/h (1 Bft) NW 321 ° 0 min 0 W/m² 6,4 °C 9,3 °C 8,0 km/h (2 Bft)
15.04.2024 03:43 21,7 °C 9,3 °C 55 % 82 % 1015,1 hPa 0,0 l/m² 6,5 km/h (2 Bft) W 279 ° 0 min 0 W/m² 6,4 °C 9,3 °C 12,9 km/h (3 Bft)
15.04.2024 03:45 21,7 °C 9,2 °C 55 % 82 % 1015,2 hPa 0,0 l/m² 3,6 km/h (1 Bft) W 263 ° 0 min 0 W/m² 6,3 °C 9,2 °C 9,7 km/h (2 Bft)
15.04.2024 03:48 21,7 °C 9,1 °C 55 % 83 % 1015,2 hPa 0,2 l/m² 3,0 km/h (1 Bft) NW 304 ° 0 min 0 W/m² 6,4 °C 9,1 °C 9,7 km/h (2 Bft)
15.04.2024 03:50 21,7 °C 9,1 °C 55 % 83 % 1015,2 hPa 0,0 l/m² 2,4 km/h (1 Bft) W-NW 301 ° 0 min 0 W/m² 6,4 °C 9,1 °C 4,8 km/h (1 Bft)
15.04.2024 03:51 21,7 °C 8,9 °C 55 % 83 % 1015,2 hPa 0,0 l/m² 6,1 km/h (2 Bft) W-NW 290 ° 0 min 0 W/m² 6,2 °C 8,9 °C 12,9 km/h (3 Bft)
15.04.2024 03:52 21,7 °C 8,9 °C 55 % 84 % 1015,2 hPa 0,0 l/m² 5,6 km/h (2 Bft) NW 317 ° 0 min 0 W/m² 6,3 °C 8,9 °C 11,3 km/h (2 Bft)
15.04.2024 03:54 21,7 °C 8,9 °C 55 % 84 % 1015,2 hPa 0,0 l/m² 6,0 km/h (2 Bft) NW 312 ° 0 min 0 W/m² 6,3 °C 8,9 °C 9,7 km/h (2 Bft)
15.04.2024 03:56 21,7 °C 8,8 °C 55 % 84 % 1015,1 hPa 0,2 l/m² 4,6 km/h (1 Bft) W-NW 301 ° 0 min 0 W/m² 6,2 °C 8,8 °C 8,0 km/h (2 Bft)
15.04.2024 03:58 21,7 °C 8,8 °C 55 % 84 % 1015,2 hPa 0,0 l/m² 5,3 km/h (1 Bft) NW 305 ° 0 min 0 W/m² 6,2 °C 8,8 °C 12,9 km/h (3 Bft)
15.04.2024 04:00 21,7 °C 8,7 °C 55 % 85 % 1015,1 hPa 0,0 l/m² 5,5 km/h (2 Bft) W-NW 302 ° 0 min 0 W/m² 6,3 °C 8,7 °C 11,3 km/h (2 Bft)
15.04.2024 04:01 21,7 °C 8,7 °C 55 % 85 % 1015,1 hPa 0,0 l/m² 2,7 km/h (1 Bft) W-NW 292 ° 0 min 0 W/m² 6,3 °C 8,7 °C 4,8 km/h (1 Bft)
15.04.2024 04:02 21,7 °C 8,7 °C 55 % 85 % 1015,1 hPa 0,2 l/m² 3,5 km/h (1 Bft) NW 312 ° 0 min 0 W/m² 6,3 °C 8,7 °C 4,8 km/h (1 Bft)
15.04.2024 04:04 21,7 °C 8,7 °C 55 % 85 % 1015,1 hPa 0,0 l/m² 2,2 km/h (1 Bft) W-NW 296 ° 0 min 0 W/m² 6,3 °C 8,7 °C 4,8 km/h (1 Bft)
15.04.2024 04:06 21,7 °C 8,6 °C 55 % 86 % 1015,2 hPa 0,0 l/m² 1,9 km/h (1 Bft) W 279 ° 0 min 0 W/m² 6,4 °C 8,6 °C 8,0 km/h (2 Bft)
15.04.2024 04:08 21,7 °C 8,6 °C 55 % 86 % 1015,2 hPa 0,2 l/m² 1,3 km/h (1 Bft) W-NW 298 ° 0 min 0 W/m² 6,4 °C 8,6 °C 3,2 km/h (1 Bft)
15.04.2024 04:10 21,7 °C 8,4 °C 55 % 86 % 1015,1 hPa 0,0 l/m² 1,1 km/h (1 Bft) NW 311 ° 0 min 0 W/m² 6,2 °C 8,4 °C 4,8 km/h (1 Bft)
15.04.2024 04:11 21,7 °C 8,5 °C 55 % 87 % 1015,1 hPa 0,0 l/m² 2,7 km/h (1 Bft) N-NW 329 ° 0 min 0 W/m² 6,5 °C 8,5 °C 11,3 km/h (2 Bft)
15.04.2024 04:12 21,7 °C 8,4 °C 55 % 87 % 1015,1 hPa 0,0 l/m² 4,4 km/h (1 Bft) W 277 ° 0 min 0 W/m² 6,4 °C 8,4 °C 6,4 km/h (2 Bft)
15.04.2024 04:13 21,7 °C 8,4 °C 55 % 87 % 1015,1 hPa 0,0 l/m² 2,3 km/h (1 Bft) W-NW 283 ° 0 min 0 W/m² 6,4 °C 8,4 °C 4,8 km/h (1 Bft)
15.04.2024 04:15 21,7 °C 8,3 °C 55 % 87 % 1015,1 hPa 0,0 l/m² 1,7 km/h (1 Bft) W-NW 290 ° 0 min 0 W/m² 6,3 °C 8,3 °C 4,8 km/h (1 Bft)
15.04.2024 04:17 21,7 °C 8,3 °C 55 % 87 % 1015,0 hPa 0,0 l/m² 3,6 km/h (1 Bft) W 271 ° 0 min 0 W/m² 6,3 °C 8,3 °C 9,7 km/h (2 Bft)
15.04.2024 04:19 21,7 °C 8,2 °C 55 % 87 % 1015,0 hPa 0,2 l/m² 12,4 km/h (2 Bft) W 269 ° 0 min 0 W/m² 6,2 °C 4,2 °C 19,3 km/h (3 Bft)
15.04.2024 04:20 21,7 °C 8,2 °C 55 % 87 % 1015,0 hPa 0,0 l/m² 5,9 km/h (2 Bft) W 273 ° 0 min 0 W/m² 6,2 °C 8,2 °C 11,3 km/h (2 Bft)
15.04.2024 04:22 21,7 °C 8,2 °C 55 % 87 % 1015,0 hPa 0,0 l/m² 11,0 km/h (2 Bft) W 263 ° 0 min 0 W/m² 6,2 °C 5,0 °C 17,7 km/h (3 Bft)
15.04.2024 04:23 21,7 °C 8,2 °C 55 % 87 % 1015,0 hPa 0,0 l/m² 7,7 km/h (2 Bft) W 274 ° 0 min 0 W/m² 6,2 °C 7,2 °C 19,3 km/h (3 Bft)
15.04.2024 04:25 21,7 °C 8,2 °C 55 % 87 % 1015,0 hPa 0,0 l/m² 5,0 km/h (1 Bft) W 279 ° 0 min 0 W/m² 6,2 °C 8,2 °C 12,9 km/h (3 Bft)
15.04.2024 04:27 21,7 °C 8,2 °C 55 % 87 % 1014,9 hPa 0,0 l/m² 10,4 km/h (2 Bft) W-NW 292 ° 0 min 0 W/m² 6,2 °C 5,4 °C 19,3 km/h (3 Bft)
15.04.2024 04:29 21,7 °C 8,1 °C 55 % 87 % 1014,9 hPa 0,0 l/m² 7,8 km/h (2 Bft) NW 317 ° 0 min 0 W/m² 6,1 °C 7,0 °C 14,5 km/h (3 Bft)
15.04.2024 04:30 21,7 °C 8,1 °C 55 % 87 % 1014,9 hPa 0,0 l/m² 13,1 km/h (3 Bft) NW 305 ° 0 min 0 W/m² 6,1 °C 3,7 °C 20,9 km/h (4 Bft)
15.04.2024 04:32 21,7 °C 8,1 °C 55 % 87 % 1014,8 hPa 0,2 l/m² 10,1 km/h (2 Bft) NW 306 ° 0 min 0 W/m² 6,1 °C 5,4 °C 22,5 km/h (4 Bft)
15.04.2024 04:33 21,7 °C 8,1 °C 55 % 87 % 1014,9 hPa 0,0 l/m² 6,4 km/h (2 Bft) W-SW 257 ° 0 min 0 W/m² 6,1 °C 8,1 °C 12,9 km/h (3 Bft)
15.04.2024 04:35 21,7 °C 8,1 °C 55 % 87 % 1014,8 hPa 0,0 l/m² 5,7 km/h (2 Bft) W-NW 292 ° 0 min 0 W/m² 6,1 °C 8,1 °C 12,9 km/h (3 Bft)
15.04.2024 04:37 21,7 °C 8,0 °C 55 % 87 % 1014,8 hPa 0,0 l/m² 5,9 km/h (2 Bft) W-NW 286 ° 0 min 0 W/m² 6,0 °C 8,0 °C 12,9 km/h (3 Bft)
15.04.2024 04:39 21,6 °C 7,9 °C 55 % 87 % 1014,7 hPa 0,0 l/m² 6,2 km/h (2 Bft) W 275 ° 0 min 0 W/m² 5,9 °C 7,9 °C 14,5 km/h (3 Bft)
15.04.2024 04:40 21,7 °C 7,9 °C 55 % 87 % 1014,7 hPa 0,0 l/m² 3,0 km/h (1 Bft) W-NW 290 ° 0 min 0 W/m² 5,9 °C 7,9 °C 6,4 km/h (2 Bft)
15.04.2024 04:42 21,7 °C 7,9 °C 55 % 87 % 1014,6 hPa 0,0 l/m² 5,6 km/h (2 Bft) W 281 ° 0 min 0 W/m² 5,9 °C 7,9 °C 12,9 km/h (3 Bft)
15.04.2024 04:43 21,7 °C 7,9 °C 55 % 87 % 1014,6 hPa 0,0 l/m² 2,4 km/h (1 Bft) W 272 ° 0 min 0 W/m² 5,9 °C 7,9 °C 4,8 km/h (1 Bft)
15.04.2024 04:45 21,6 °C 7,8 °C 55 % 87 % 1014,6 hPa 0,0 l/m² 5,1 km/h (1 Bft) W-NW 291 ° 0 min 0 W/m² 5,8 °C 7,8 °C 12,9 km/h (3 Bft)
15.04.2024 04:47 21,7 °C 7,8 °C 55 % 88 % 1014,6 hPa 0,0 l/m² 3,4 km/h (1 Bft) W 261 ° 0 min 0 W/m² 5,9 °C 7,8 °C 9,7 km/h (2 Bft)
15.04.2024 04:49 21,7 °C 7,8 °C 55 % 88 % 1014,5 hPa 0,0 l/m² 2,7 km/h (1 Bft) W-NW 303 ° 0 min 0 W/m² 5,9 °C 7,8 °C 8,0 km/h (2 Bft)
15.04.2024 04:50 21,7 °C 7,7 °C 55 % 88 % 1014,5 hPa 0,0 l/m² 3,1 km/h (1 Bft) W 275 ° 0 min 0 W/m² 5,8 °C 7,7 °C 9,7 km/h (2 Bft)
15.04.2024 04:52 21,6 °C 7,7 °C 55 % 88 % 1014,5 hPa 0,0 l/m² 1,8 km/h (1 Bft) W 281 ° 0 min 0 W/m² 5,8 °C 7,7 °C 4,8 km/h (1 Bft)
15.04.2024 04:53 21,6 °C 7,7 °C 55 % 88 % 1014,5 hPa 0,0 l/m² 2,1 km/h (1 Bft) W 281 ° 0 min 0 W/m² 5,8 °C 7,7 °C 4,8 km/h (1 Bft)
15.04.2024 04:55 21,6 °C 7,7 °C 55 % 88 % 1014,5 hPa 0,0 l/m² 4,3 km/h (1 Bft) W-NW 300 ° 0 min 0 W/m² 5,8 °C 7,7 °C 8,0 km/h (2 Bft)
15.04.2024 04:57 21,7 °C 7,6 °C 55 % 89 % 1014,4 hPa 0,0 l/m² 3,7 km/h (1 Bft) W-NW 300 ° 0 min 0 W/m² 5,9 °C 7,6 °C 6,4 km/h (2 Bft)
15.04.2024 04:59 21,6 °C 7,6 °C 55 % 89 % 1014,3 hPa 0,2 l/m² 3,5 km/h (1 Bft) W 275 ° 0 min 0 W/m² 5,9 °C 7,6 °C 6,4 km/h (2 Bft)
15.04.2024 05:00 21,6 °C 7,6 °C 55 % 89 % 1014,3 hPa 0,0 l/m² 0,2 km/h (0 Bft) W 275 ° 0 min 0 W/m² 5,9 °C 7,6 °C 1,6 km/h (1 Bft)
15.04.2024 05:01 21,6 °C 7,6 °C 55 % 89 % 1014,3 hPa 0,0 l/m² 3,3 km/h (1 Bft) W 271 ° 0 min 0 W/m² 5,9 °C 7,6 °C 9,7 km/h (2 Bft)
15.04.2024 05:02 21,6 °C 7,6 °C 55 % 89 % 1014,3 hPa 0,0 l/m² 3,1 km/h (1 Bft) W-NW 296 ° 0 min 0 W/m² 5,9 °C 7,6 °C 6,4 km/h (2 Bft)
15.04.2024 05:04 21,6 °C 7,6 °C 55 % 89 % 1014,3 hPa 0,0 l/m² 2,8 km/h (1 Bft) W-NW 296 ° 0 min 0 W/m² 5,9 °C 7,6 °C 6,4 km/h (2 Bft)
15.04.2024 05:06 21,6 °C 7,6 °C 55 % 89 % 1014,3 hPa 0,0 l/m² 3,9 km/h (1 Bft) W-NW 298 ° 0 min 0 W/m² 5,9 °C 7,6 °C 8,0 km/h (2 Bft)
15.04.2024 05:08 21,6 °C 7,6 °C 55 % 89 % 1014,2 hPa 0,0 l/m² 1,4 km/h (1 Bft) W-NW 285 ° 0 min 0 W/m² 5,9 °C 7,6 °C 4,8 km/h (1 Bft)
15.04.2024 05:10 21,6 °C 7,5 °C 55 % 89 % 1014,2 hPa 0,0 l/m² 2,5 km/h (1 Bft) W-NW 301 ° 0 min 0 W/m² 5,8 °C 7,5 °C 11,3 km/h (2 Bft)
15.04.2024 05:11 21,6 °C 7,5 °C 55 % 89 % 1014,2 hPa 0,0 l/m² 7,5 km/h (2 Bft) W 264 ° 0 min 0 W/m² 5,8 °C 6,6 °C 12,9 km/h (3 Bft)
15.04.2024 05:12 21,6 °C 7,5 °C 55 % 89 % 1014,2 hPa 0,0 l/m² 7,8 km/h (2 Bft) W 269 ° 0 min 0 W/m² 5,8 °C 6,4 °C 9,7 km/h (2 Bft)
15.04.2024 05:14 21,6 °C 7,5 °C 55 % 89 % 1014,1 hPa 0,0 l/m² 5,0 km/h (1 Bft) W-NW 289 ° 0 min 0 W/m² 5,8 °C 7,5 °C 8,0 km/h (2 Bft)
15.04.2024 05:16 21,6 °C 7,4 °C 55 % 89 % 1014,1 hPa 0,0 l/m² 5,6 km/h (2 Bft) W 271 ° 0 min 0 W/m² 5,7 °C 7,4 °C 12,9 km/h (3 Bft)
15.04.2024 05:18 21,7 °C 7,4 °C 55 % 90 % 1014,0 hPa 0,0 l/m² 3,3 km/h (1 Bft) W 276 ° 0 min 0 W/m² 5,9 °C 7,4 °C 6,4 km/h (2 Bft)
15.04.2024 05:20 21,6 °C 7,4 °C 55 % 90 % 1014,0 hPa 0,0 l/m² 4,5 km/h (1 Bft) W-NW 289 ° 0 min 0 W/m² 5,9 °C 7,4 °C 6,4 km/h (2 Bft)
15.04.2024 05:21 21,6 °C 7,4 °C 55 % 90 % 1013,9 hPa 0,0 l/m² 3,3 km/h (1 Bft) W-NW 287 ° 0 min 0 W/m² 5,9 °C 7,4 °C 6,4 km/h (2 Bft)
15.04.2024 05:22 21,6 °C 7,4 °C 55 % 89 % 1013,9 hPa 0,2 l/m² 4,4 km/h (1 Bft) W 270 ° 0 min 0 W/m² 5,7 °C 7,4 °C 6,4 km/h (2 Bft)
15.04.2024 05:24 21,7 °C 7,4 °C 55 % 89 % 1014,0 hPa 0,0 l/m² 3,8 km/h (1 Bft) W-SW 245 ° 0 min 0 W/m² 5,7 °C 7,4 °C 8,0 km/h (2 Bft)
15.04.2024 05:26 21,7 °C 7,4 °C 55 % 90 % 1013,9 hPa 0,0 l/m² 3,0 km/h (1 Bft) W-SW 252 ° 0 min 0 W/m² 5,9 °C 7,4 °C 4,8 km/h (1 Bft)
15.04.2024 05:28 21,6 °C 7,4 °C 55 % 90 % 1013,8 hPa 0,0 l/m² 1,3 km/h (1 Bft) W-SW 253 ° 0 min 0 W/m² 5,9 °C 7,4 °C 3,2 km/h (1 Bft)
15.04.2024 05:30 21,7 °C 7,4 °C 55 % 90 % 1013,8 hPa 0,0 l/m² 2,1 km/h (1 Bft) W-SW 253 ° 0 min 0 W/m² 5,9 °C 7,4 °C 4,8 km/h (1 Bft)
15.04.2024 05:31 21,7 °C 7,4 °C 55 % 90 % 1013,7 hPa 0,0 l/m² 0,3 km/h (0 Bft) W-SW 253 ° 0 min 0 W/m² 5,9 °C 7,4 °C 1,6 km/h (1 Bft)
15.04.2024 05:33 21,6 °C 7,3 °C 55 % 90 % 1013,7 hPa 0,0 l/m² 0,0 km/h (0 Bft) W-SW 253 ° 0 min 0 W/m² 5,8 °C 7,3 °C 0,0 km/h (0 Bft)
15.04.2024 05:34 21,7 °C 7,3 °C 55 % 90 % 1013,7 hPa 0,0 l/m² 0,0 km/h (0 Bft) W-SW 253 ° 0 min 0 W/m² 5,8 °C 7,3 °C 0,0 km/h (0 Bft)
15.04.2024 05:36 21,7 °C 7,3 °C 55 % 90 % 1013,6 hPa 0,0 l/m² 0,0 km/h (0 Bft) W-SW 253 ° 0 min 0 W/m² 5,8 °C 7,3 °C 1,6 km/h (1 Bft)
15.04.2024 05:38 21,7 °C 7,3 °C 55 % 90 % 1013,6 hPa 0,0 l/m² 0,0 km/h (0 Bft) W-SW 253 ° 0 min 0 W/m² 5,8 °C 7,3 °C 0,0 km/h (0 Bft)
15.04.2024 05:40 21,6 °C 7,3 °C 55 % 90 % 1013,6 hPa 0,0 l/m² 0,0 km/h (0 Bft) W-SW 253 ° 0 min 0 W/m² 5,8 °C 7,3 °C 0,0 km/h (0 Bft)
15.04.2024 05:41 21,6 °C 7,3 °C 55 % 91 % 1013,7 hPa 0,0 l/m² 0,0 km/h (0 Bft) W-SW 253 ° 0 min 0 W/m² 5,9 °C 7,3 °C 0,0 km/h (0 Bft)
15.04.2024 05:42 21,6 °C 7,3 °C 55 % 91 % 1013,7 hPa 0,0 l/m² 0,0 km/h (0 Bft) W-SW 253 ° 0 min 0 W/m² 5,9 °C 7,3 °C 0,0 km/h (0 Bft)
15.04.2024 05:44 21,6 °C 7,3 °C 55 % 91 % 1013,6 hPa 0,0 l/m² 0,0 km/h (0 Bft) W-SW 253 ° 0 min 0 W/m² 5,9 °C 7,3 °C 0,0 km/h (0 Bft)
15.04.2024 05:45 21,6 °C 7,3 °C 55 % 91 % 1013,6 hPa 0,0 l/m² 0,0 km/h (0 Bft) W-SW 252 ° 0 min 0 W/m² 5,9 °C 7,3 °C 0,0 km/h (0 Bft)
15.04.2024 05:47 21,6 °C 7,3 °C 55 % 91 % 1013,6 hPa 0,0 l/m² 0,0 km/h (0 Bft) W-SW 253 ° 0 min 0 W/m² 5,9 °C 7,3 °C 0,0 km/h (0 Bft)
15.04.2024 05:49 21,6 °C 7,3 °C 55 % 91 % 1013,6 hPa 0,0 l/m² 0,0 km/h (0 Bft) W-SW 253 ° 0 min 0 W/m² 5,9 °C 7,3 °C 0,0 km/h (0 Bft)
15.04.2024 05:51 21,6 °C 7,3 °C 55 % 91 % 1013,6 hPa 0,0 l/m² 0,5 km/h (0 Bft) W-SW 252 ° 0 min 0 W/m² 5,9 °C 7,3 °C 3,2 km/h (1 Bft)
15.04.2024 05:52 21,6 °C 7,3 °C 55 % 91 % 1013,6 hPa 0,0 l/m² 2,2 km/h (1 Bft) W-SW 253 ° 0 min 0 W/m² 5,9 °C 7,3 °C 3,2 km/h (1 Bft)
15.04.2024 05:53 21,6 °C 7,3 °C 55 % 91 % 1013,6 hPa 0,0 l/m² 2,7 km/h (1 Bft) W-SW 253 ° 0 min 0 W/m² 5,9 °C 7,3 °C 3,2 km/h (1 Bft)
15.04.2024 05:55 21,6 °C 7,3 °C 55 % 91 % 1013,5 hPa 0,0 l/m² 3,6 km/h (1 Bft) SW 221 ° 0 min 0 W/m² 5,9 °C 7,3 °C 4,8 km/h (1 Bft)
15.04.2024 05:57 21,6 °C 7,2 °C 55 % 92 % 1013,4 hPa 0,0 l/m² 3,6 km/h (1 Bft) S-SW 208 ° 0 min 0 W/m² 6,0 °C 7,2 °C 4,8 km/h (1 Bft)
15.04.2024 05:59 21,6 °C 7,2 °C 55 % 92 % 1013,3 hPa 0,0 l/m² 3,0 km/h (1 Bft) S-SW 207 ° 0 min 0 W/m² 6,0 °C 7,2 °C 4,8 km/h (1 Bft)
15.04.2024 06:00 21,6 °C 7,2 °C 55 % 92 % 1013,3 hPa 0,0 l/m² 2,1 km/h (1 Bft) S-SW 207 ° 0 min 0 W/m² 6,0 °C 7,2 °C 4,8 km/h (1 Bft)
15.04.2024 06:02 21,6 °C 7,2 °C 55 % 92 % 1013,3 hPa 0,0 l/m² 1,0 km/h (0 Bft) S-SW 207 ° 0 min 0 W/m² 6,0 °C 7,2 °C 1,6 km/h (1 Bft)
15.04.2024 06:03 21,6 °C 7,2 °C 55 % 92 % 1013,2 hPa 0,0 l/m² 1,8 km/h (1 Bft) S-SW 207 ° 0 min 0 W/m² 6,0 °C 7,2 °C 3,2 km/h (1 Bft)
15.04.2024 06:05 21,6 °C 7,2 °C 55 % 92 % 1013,1 hPa 0,0 l/m² 1,5 km/h (1 Bft) S-SW 207 ° 0 min 0 W/m² 6,0 °C 7,2 °C 3,2 km/h (1 Bft)
15.04.2024 06:07 21,6 °C 7,2 °C 55 % 92 % 1013,1 hPa 0,0 l/m² 3,0 km/h (1 Bft) S-SW 207 ° 0 min 0 W/m² 6,0 °C 7,2 °C 4,8 km/h (1 Bft)
15.04.2024 06:09 21,6 °C 7,2 °C 55 % 92 % 1013,0 hPa 0,0 l/m² 2,6 km/h (1 Bft) S-SW 207 ° 0 min 0 W/m² 6,0 °C 7,2 °C 3,2 km/h (1 Bft)
15.04.2024 06:11 21,6 °C 7,2 °C 55 % 92 % 1013,0 hPa 0,2 l/m² 2,5 km/h (1 Bft) S-SW 207 ° 0 min 0 W/m² 6,0 °C 7,2 °C 4,8 km/h (1 Bft)
15.04.2024 06:12 21,6 °C 7,2 °C 55 % 92 % 1012,8 hPa 0,0 l/m² 1,5 km/h (1 Bft) S-SW 207 ° 0 min 0 W/m² 6,0 °C 7,2 °C 3,2 km/h (1 Bft)
15.04.2024 06:13 21,6 °C 7,2 °C 55 % 92 % 1012,8 hPa 0,0 l/m² 3,9 km/h (1 Bft) S-SW 199 ° 0 min 0 W/m² 6,0 °C 7,2 °C 4,8 km/h (1 Bft)
15.04.2024 06:15 21,6 °C 7,2 °C 55 % 92 % 1012,8 hPa 0,0 l/m² 2,2 km/h (1 Bft) S-SW 194 ° 0 min 0 W/m² 6,0 °C 7,2 °C 4,8 km/h (1 Bft)
15.04.2024 06:17 21,6 °C 7,2 °C 55 % 92 % 1012,8 hPa 0,0 l/m² 3,9 km/h (1 Bft) S 174 ° 0 min 0 W/m² 6,0 °C 7,2 °C 4,8 km/h (1 Bft)
15.04.2024 06:19 21,6 °C 7,2 °C 55 % 92 % 1012,8 hPa 0,0 l/m² 4,6 km/h (1 Bft) S 171 ° 0 min 0 W/m² 6,0 °C 7,2 °C 8,0 km/h (2 Bft)
15.04.2024 06:21 21,6 °C 7,2 °C 55 % 92 % 1012,8 hPa 0,0 l/m² 1,4 km/h (1 Bft) S 171 ° 0 min 0 W/m² 6,0 °C 7,2 °C 3,2 km/h (1 Bft)
15.04.2024 06:22 21,6 °C 7,2 °C 55 % 92 % 1012,7 hPa 0,0 l/m² 1,8 km/h (1 Bft) S 171 ° 0 min 0 W/m² 6,0 °C 7,2 °C 3,2 km/h (1 Bft)
15.04.2024 06:23 21,6 °C 7,2 °C 55 % 92 % 1012,8 hPa 0,0 l/m² 1,1 km/h (1 Bft) S 171 ° 0 min 0 W/m² 6,0 °C 7,2 °C 1,6 km/h (1 Bft)
15.04.2024 06:25 21,6 °C 7,2 °C 55 % 92 % 1012,8 hPa 0,0 l/m² 2,2 km/h (1 Bft) S 171 ° 0 min 0 W/m² 6,0 °C 7,2 °C 6,4 km/h (2 Bft)
15.04.2024 06:27 21,6 °C 7,2 °C 55 % 92 % 1012,8 hPa 0,0 l/m² 3,0 km/h (1 Bft) S 171 ° 0 min 0 W/m² 6,0 °C 7,2 °C 6,4 km/h (2 Bft)
15.04.2024 06:29 21,6 °C 7,2 °C 55 % 92 % 1012,8 hPa 0,0 l/m² 2,5 km/h (1 Bft) S 171 ° 0 min 0 W/m² 6,0 °C 7,2 °C 6,4 km/h (2 Bft)
15.04.2024 06:31 21,6 °C 7,3 °C 54 % 92 % 1012,7 hPa 0,0 l/m² 3,2 km/h (1 Bft) S 169 ° 0 min 0 W/m² 6,1 °C 7,3 °C 8,0 km/h (2 Bft)
15.04.2024 06:32 21,6 °C 7,3 °C 53 % 93 % 1012,7 hPa 0,0 l/m² 5,1 km/h (1 Bft) S-SO 167 ° 0 min 0 W/m² 6,2 °C 7,3 °C 8,0 km/h (2 Bft)
15.04.2024 06:33 21,6 °C 7,2 °C 53 % 93 % 1012,7 hPa 0,0 l/m² 6,8 km/h (2 Bft) S 169 ° 0 min 0 W/m² 6,1 °C 6,9 °C 9,7 km/h (2 Bft)
15.04.2024 06:35 21,6 °C 7,2 °C 53 % 93 % 1012,7 hPa 0,0 l/m² 6,9 km/h (2 Bft) S-SO 157 ° 0 min 0 W/m² 6,1 °C 6,8 °C 11,3 km/h (2 Bft)
15.04.2024 06:37 21,6 °C 7,2 °C 53 % 93 % 1012,6 hPa 0,0 l/m² 6,8 km/h (2 Bft) S-SO 147 ° 0 min 5 W/m² 6,1 °C 6,9 °C 9,7 km/h (2 Bft)
15.04.2024 06:39 21,6 °C 7,2 °C 54 % 93 % 1012,6 hPa 0,0 l/m² 4,8 km/h (1 Bft) S-SO 148 ° 0 min 7 W/m² 6,1 °C 7,2 °C 6,4 km/h (2 Bft)
15.04.2024 06:41 21,6 °C 7,2 °C 54 % 93 % 1012,6 hPa 0,0 l/m² 3,7 km/h (1 Bft) S-SO 150 ° 0 min 9 W/m² 6,1 °C 7,2 °C 6,4 km/h (2 Bft)
15.04.2024 06:42 21,6 °C 7,2 °C 54 % 93 % 1012,5 hPa 0,0 l/m² 3,7 km/h (1 Bft) S-SO 150 ° 0 min 9 W/m² 6,1 °C 7,2 °C 6,4 km/h (2 Bft)
15.04.2024 06:43 21,6 °C 7,2 °C 54 % 93 % 1012,5 hPa 0,0 l/m² 4,6 km/h (1 Bft) S-SO 151 ° 0 min 9 W/m² 6,1 °C 7,2 °C 6,4 km/h (2 Bft)
15.04.2024 06:45 21,6 °C 7,3 °C 54 % 93 % 1012,6 hPa 0,0 l/m² 4,7 km/h (1 Bft) S-SO 158 ° 0 min 9 W/m² 6,2 °C 7,3 °C 9,7 km/h (2 Bft)
15.04.2024 06:48 21,6 °C 7,2 °C 54 % 93 % 1012,7 hPa 0,0 l/m² 5,1 km/h (1 Bft) S-SO 161 ° 0 min 9 W/m² 6,1 °C 7,2 °C 8,0 km/h (2 Bft)
15.04.2024 06:50 21,6 °C 7,2 °C 54 % 93 % 1012,7 hPa 0,0 l/m² 3,9 km/h (1 Bft) S-SO 161 ° 0 min 9 W/m² 6,1 °C 7,2 °C 8,0 km/h (2 Bft)
15.04.2024 06:51 21,6 °C 7,2 °C 54 % 93 % 1012,7 hPa 0,0 l/m² 2,0 km/h (1 Bft) S-SO 161 ° 0 min 9 W/m² 6,1 °C 7,2 °C 6,4 km/h (2 Bft)
15.04.2024 06:52 21,6 °C 7,2 °C 54 % 93 % 1012,7 hPa 0,0 l/m² 3,5 km/h (1 Bft) S-SO 161 ° 0 min 9 W/m² 6,1 °C 7,2 °C 6,4 km/h (2 Bft)
15.04.2024 06:54 21,6 °C 7,2 °C 54 % 93 % 1012,7 hPa 0,0 l/m² 4,2 km/h (1 Bft) S-SO 151 ° 0 min 7 W/m² 6,1 °C 7,2 °C 9,7 km/h (2 Bft)
15.04.2024 06:56 21,6 °C 7,2 °C 54 % 93 % 1012,7 hPa 0,0 l/m² 3,1 km/h (1 Bft) S-SO 153 ° 0 min 5 W/m² 6,1 °C 7,2 °C 6,4 km/h (2 Bft)
15.04.2024 06:58 21,6 °C 7,3 °C 54 % 93 % 1012,6 hPa 0,0 l/m² 6,6 km/h (2 Bft) S-SO 164 ° 0 min 5 W/m² 6,2 °C 7,2 °C 12,9 km/h (3 Bft)
15.04.2024 07:00 21,6 °C 7,3 °C 54 % 93 % 1012,7 hPa 0,0 l/m² 7,1 km/h (2 Bft) S-SO 167 ° 0 min 5 W/m² 6,2 °C 6,7 °C 9,7 km/h (2 Bft)
15.04.2024 07:01 21,6 °C 7,3 °C 54 % 93 % 1012,7 hPa 0,0 l/m² 6,8 km/h (2 Bft) S-SO 167 ° 0 min 5 W/m² 6,2 °C 7,0 °C 9,7 km/h (2 Bft)
15.04.2024 07:03 21,6 °C 7,2 °C 54 % 93 % 1012,6 hPa 0,0 l/m² 7,8 km/h (2 Bft) S-SO 163 ° 0 min 5 W/m² 6,1 °C 6,1 °C 11,3 km/h (2 Bft)
15.04.2024 07:05 21,6 °C 7,2 °C 54 % 93 % 1012,6 hPa 0,0 l/m² 7,2 km/h (2 Bft) S-SO 165 ° 0 min 7 W/m² 6,1 °C 6,5 °C 9,7 km/h (2 Bft)
15.04.2024 07:07 21,6 °C 7,2 °C 54 % 93 % 1012,6 hPa 0,0 l/m² 6,7 km/h (2 Bft) S-SO 163 ° 0 min 11 W/m² 6,1 °C 7,0 °C 11,3 km/h (2 Bft)
15.04.2024 07:09 21,6 °C 7,2 °C 54 % 93 % 1012,5 hPa 0,0 l/m² 5,4 km/h (2 Bft) S-SO 165 ° 0 min 21 W/m² 6,1 °C 7,2 °C 11,3 km/h (2 Bft)
15.04.2024 07:10 21,6 °C 7,3 °C 54 % 93 % 1012,5 hPa 0,0 l/m² 4,7 km/h (1 Bft) S-SO 165 ° 0 min 25 W/m² 6,2 °C 7,3 °C 6,4 km/h (2 Bft)
15.04.2024 07:11 21,6 °C 7,3 °C 54 % 93 % 1012,6 hPa 0,0 l/m² 4,0 km/h (1 Bft) S-SO 165 ° 0 min 25 W/m² 6,2 °C 7,3 °C 6,4 km/h (2 Bft)
15.04.2024 07:12 21,6 °C 7,3 °C 54 % 93 % 1012,6 hPa 0,0 l/m² 2,4 km/h (1 Bft) S-SO 165 ° 0 min 26 W/m² 6,2 °C 7,3 °C 6,4 km/h (2 Bft)
15.04.2024 07:13 21,6 °C 7,3 °C 54 % 93 % 1012,5 hPa 0,0 l/m² 4,9 km/h (1 Bft) S-SO 167 ° 0 min 30 W/m² 6,2 °C 7,3 °C 9,7 km/h (2 Bft)
15.04.2024 07:14 21,6 °C 7,3 °C 54 % 93 % 1012,5 hPa 0,0 l/m² 5,8 km/h (2 Bft) S-SO 159 ° 0 min 33 W/m² 6,2 °C 7,3 °C 9,7 km/h (2 Bft)
15.04.2024 07:16 21,6 °C 7,3 °C 54 % 93 % 1012,5 hPa 0,0 l/m² 4,7 km/h (1 Bft) S-SO 165 ° 0 min 37 W/m² 6,2 °C 7,3 °C 9,7 km/h (2 Bft)
15.04.2024 07:18 21,6 °C 7,4 °C 54 % 93 % 1012,4 hPa 0,0 l/m² 2,5 km/h (1 Bft) S-SO 165 ° 0 min 39 W/m² 6,3 °C 7,4 °C 6,4 km/h (2 Bft)
15.04.2024 07:20 21,6 °C 7,4 °C 54 % 93 % 1012,4 hPa 0,0 l/m² 3,3 km/h (1 Bft) S-SO 165 ° 0 min 44 W/m² 6,3 °C 7,4 °C 8,0 km/h (2 Bft)
15.04.2024 07:21 21,6 °C 7,4 °C 54 % 93 % 1012,4 hPa 0,0 l/m² 6,6 km/h (2 Bft) S 169 ° 0 min 46 W/m² 6,3 °C 7,3 °C 9,7 km/h (2 Bft)
15.04.2024 07:23 21,6 °C 7,4 °C 54 % 93 % 1012,5 hPa 0,0 l/m² 7,8 km/h (2 Bft) S-SO 168 ° 0 min 42 W/m² 6,3 °C 6,3 °C 11,3 km/h (2 Bft)
15.04.2024 07:24 21,6 °C 7,4 °C 54 % 93 % 1012,5 hPa 0,0 l/m² 7,6 km/h (2 Bft) S-SO 167 ° 0 min 40 W/m² 6,3 °C 6,4 °C 9,7 km/h (2 Bft)
15.04.2024 07:26 21,6 °C 7,4 °C 54 % 93 % 1012,5 hPa 0,0 l/m² 7,1 km/h (2 Bft) S-SO 164 ° 0 min 40 W/m² 6,3 °C 6,8 °C 9,7 km/h (2 Bft)
15.04.2024 07:28 21,6 °C 7,5 °C 54 % 93 % 1012,5 hPa 0,0 l/m² 5,7 km/h (2 Bft) S-SO 163 ° 0 min 42 W/m² 6,4 °C 7,5 °C 11,3 km/h (2 Bft)
15.04.2024 07:30 21,6 °C 7,6 °C 54 % 93 % 1012,4 hPa 0,0 l/m² 5,4 km/h (2 Bft) S-SO 163 ° 0 min 42 W/m² 6,5 °C 7,6 °C 9,7 km/h (2 Bft)
15.04.2024 07:31 21,6 °C 7,6 °C 54 % 93 % 1012,4 hPa 0,0 l/m² 9,0 km/h (2 Bft) S 170 ° 0 min 44 W/m² 6,5 °C 5,6 °C 12,9 km/h (3 Bft)
15.04.2024 07:33 21,6 °C 7,6 °C 54 % 93 % 1012,4 hPa 0,0 l/m² 5,2 km/h (1 Bft) S 170 ° 0 min 44 W/m² 6,5 °C 7,6 °C 8,0 km/h (2 Bft)
15.04.2024 07:35 21,6 °C 7,6 °C 54 % 93 % 1012,4 hPa 0,0 l/m² 6,4 km/h (2 Bft) S 171 ° 0 min 44 W/m² 6,5 °C 7,6 °C 9,7 km/h (2 Bft)
15.04.2024 07:37 21,6 °C 7,7 °C 54 % 93 % 1012,3 hPa 0,0 l/m² 3,4 km/h (1 Bft) S 171 ° 0 min 46 W/m² 6,6 °C 7,7 °C 8,0 km/h (2 Bft)
15.04.2024 07:39 21,6 °C 7,7 °C 54 % 93 % 1012,3 hPa 0,0 l/m² 5,0 km/h (1 Bft) S 171 ° 0 min 49 W/m² 6,6 °C 7,7 °C 9,7 km/h (2 Bft)
15.04.2024 07:41 21,7 °C 7,7 °C 54 % 93 % 1012,2 hPa 0,0 l/m² 7,4 km/h (2 Bft) S 171 ° 0 min 47 W/m² 6,6 °C 6,9 °C 9,7 km/h (2 Bft)
15.04.2024 07:42 21,7 °C 7,7 °C 54 % 93 % 1012,3 hPa 0,0 l/m² 4,4 km/h (1 Bft) S 171 ° 0 min 44 W/m² 6,6 °C 7,7 °C 8,0 km/h (2 Bft)
15.04.2024 07:43 21,6 °C 7,8 °C 54 % 93 % 1012,3 hPa 0,0 l/m² 0,2 km/h (0 Bft) S 171 ° 0 min 42 W/m² 6,7 °C 7,8 °C 1,6 km/h (1 Bft)
15.04.2024 07:45 21,6 °C 7,8 °C 54 % 93 % 1012,3 hPa 0,0 l/m² 3,9 km/h (1 Bft) S 178 ° 0 min 35 W/m² 6,7 °C 7,8 °C 9,7 km/h (2 Bft)
15.04.2024 07:47 21,6 °C 7,8 °C 54 % 93 % 1012,3 hPa 0,0 l/m² 5,6 km/h (2 Bft) S 180 ° 0 min 33 W/m² 6,7 °C 7,8 °C 8,0 km/h (2 Bft)
15.04.2024 07:49 21,6 °C 7,8 °C 54 % 93 % 1012,3 hPa 0,0 l/m² 6,7 km/h (2 Bft) S 171 ° 0 min 32 W/m² 6,7 °C 7,6 °C 12,9 km/h (3 Bft)
15.04.2024 07:51 21,6 °C 7,8 °C 54 % 93 % 1012,2 hPa 0,0 l/m² 8,1 km/h (2 Bft) S 173 ° 0 min 35 W/m² 6,7 °C 6,5 °C 14,5 km/h (3 Bft)
15.04.2024 07:52 21,6 °C 7,8 °C 54 % 92 % 1012,2 hPa 0,0 l/m² 9,0 km/h (2 Bft) S 184 ° 0 min 35 W/m² 6,6 °C 5,8 °C 14,5 km/h (3 Bft)
15.04.2024 07:53 21,7 °C 7,8 °C 54 % 92 % 1012,2 hPa 0,0 l/m² 8,1 km/h (2 Bft) S 177 ° 0 min 35 W/m² 6,6 °C 6,5 °C 11,3 km/h (2 Bft)
15.04.2024 07:55 21,6 °C 7,8 °C 54 % 93 % 1012,2 hPa 0,0 l/m² 7,1 km/h (2 Bft) S 185 ° 0 min 35 W/m² 6,7 °C 7,2 °C 11,3 km/h (2 Bft)
15.04.2024 07:57 21,7 °C 7,8 °C 54 % 93 % 1012,2 hPa 0,0 l/m² 8,4 km/h (2 Bft) S 173 ° 0 min 35 W/m² 6,7 °C 6,2 °C 12,9 km/h (3 Bft)
15.04.2024 07:59 21,6 °C 7,8 °C 54 % 93 % 1012,1 hPa 0,0 l/m² 8,7 km/h (2 Bft) S-SO 165 ° 0 min 37 W/m² 6,7 °C 6,0 °C 14,5 km/h (3 Bft)
15.04.2024 08:01 21,6 °C 7,8 °C 54 % 93 % 1012,2 hPa 0,0 l/m² 7,5 km/h (2 Bft) S-SO 165 ° 0 min 37 W/m² 6,7 °C 6,9 °C 12,9 km/h (3 Bft)
15.04.2024 08:02 21,6 °C 7,8 °C 54 % 93 % 1012,1 hPa 0,0 l/m² 7,0 km/h (2 Bft) S 182 ° 0 min 37 W/m² 6,7 °C 7,3 °C 9,7 km/h (2 Bft)
15.04.2024 08:03 21,6 °C 7,8 °C 54 % 93 % 1012,1 hPa 0,0 l/m² 7,2 km/h (2 Bft) S 182 ° 0 min 37 W/m² 6,7 °C 7,2 °C 11,3 km/h (2 Bft)
15.04.2024 08:05 21,7 °C 7,9 °C 54 % 92 % 1012,2 hPa 0,0 l/m² 9,0 km/h (2 Bft) S 183 ° 0 min 37 W/m² 6,7 °C 5,9 °C 14,5 km/h (3 Bft)
15.04.2024 08:07 21,7 °C 7,9 °C 54 % 92 % 1012,2 hPa 0,0 l/m² 5,3 km/h (1 Bft) S 179 ° 0 min 37 W/m² 6,7 °C 7,9 °C 8,0 km/h (2 Bft)
15.04.2024 08:09 21,6 °C 7,9 °C 54 % 92 % 1012,1 hPa 0,0 l/m² 7,0 km/h (2 Bft) S-SW 194 ° 0 min 35 W/m² 6,7 °C 7,4 °C 11,3 km/h (2 Bft)
15.04.2024 08:11 21,7 °C 7,9 °C 54 % 92 % 1012,1 hPa 0,0 l/m² 8,2 km/h (2 Bft) S-SW 192 ° 0 min 33 W/m² 6,7 °C 6,5 °C 12,9 km/h (3 Bft)
15.04.2024 08:12 21,7 °C 7,9 °C 54 % 92 % 1012,1 hPa 0,0 l/m² 8,2 km/h (2 Bft) S-SW 192 ° 0 min 37 W/m² 6,7 °C 6,5 °C 12,9 km/h (3 Bft)
15.04.2024 08:13 21,6 °C 7,9 °C 54 % 92 % 1012,0 hPa 0,0 l/m² 6,6 km/h (2 Bft) S 184 ° 0 min 39 W/m² 6,7 °C 7,8 °C 8,0 km/h (2 Bft)
15.04.2024 08:15 21,7 °C 7,9 °C 54 % 92 % 1012,1 hPa 0,0 l/m² 7,3 km/h (2 Bft) S-SW 199 ° 0 min 40 W/m² 6,7 °C 7,2 °C 11,3 km/h (2 Bft)
15.04.2024 08:17 21,7 °C 7,9 °C 54 % 92 % 1012,0 hPa 0,0 l/m² 8,5 km/h (2 Bft) S 186 ° 0 min 42 W/m² 6,7 °C 6,3 °C 12,9 km/h (3 Bft)
15.04.2024 08:19 21,7 °C 8,0 °C 54 % 92 % 1012,0 hPa 0,0 l/m² 8,4 km/h (2 Bft) S 188 ° 0 min 46 W/m² 6,8 °C 6,5 °C 11,3 km/h (2 Bft)
15.04.2024 08:21 21,7 °C 8,0 °C 54 % 92 % 1012,0 hPa 0,0 l/m² 7,4 km/h (2 Bft) S 191 ° 2 min 53 W/m² 6,8 °C 7,2 °C 9,7 km/h (2 Bft)
15.04.2024 08:22 21,6 °C 8,1 °C 54 % 92 % 1012,0 hPa 0,0 l/m² 6,9 km/h (2 Bft) S 186 ° 1 min 56 W/m² 6,9 °C 7,7 °C 8,0 km/h (2 Bft)
15.04.2024 08:23 21,7 °C 8,1 °C 54 % 92 % 1011,9 hPa 0,0 l/m² 7,9 km/h (2 Bft) S-SW 196 ° 1 min 62 W/m² 6,9 °C 6,9 °C 9,7 km/h (2 Bft)
15.04.2024 08:25 21,6 °C 8,1 °C 54 % 92 % 1012,0 hPa 0,0 l/m² 6,1 km/h (2 Bft) S-SW 192 ° 2 min 67 W/m² 6,9 °C 8,1 °C 8,0 km/h (2 Bft)
15.04.2024 08:27 21,6 °C 8,2 °C 54 % 92 % 1012,0 hPa 0,0 l/m² 4,7 km/h (1 Bft) S-SW 192 ° 2 min 70 W/m² 7,0 °C 8,2 °C 6,4 km/h (2 Bft)
15.04.2024 08:29 21,6 °C 8,2 °C 54 % 92 % 1011,9 hPa 0,0 l/m² 3,7 km/h (1 Bft) S 178 ° 2 min 76 W/m² 7,0 °C 8,2 °C 8,0 km/h (2 Bft)
15.04.2024 08:30 21,6 °C 8,3 °C 54 % 92 % 1012,0 hPa 0,0 l/m² 3,7 km/h (1 Bft) S 178 ° 1 min 79 W/m² 7,1 °C 8,3 °C 4,8 km/h (1 Bft)
15.04.2024 08:31 21,6 °C 8,3 °C 54 % 92 % 1012,0 hPa 0,0 l/m² 4,0 km/h (1 Bft) S 178 ° 1 min 81 W/m² 7,1 °C 8,3 °C 6,4 km/h (2 Bft)
15.04.2024 08:32 21,7 °C 8,3 °C 54 % 92 % 1011,9 hPa 0,0 l/m² 9,3 km/h (2 Bft) S 186 ° 1 min 83 W/m² 7,1 °C 6,2 °C 11,3 km/h (2 Bft)
15.04.2024 08:34 21,6 °C 8,3 °C 54 % 92 % 1012,0 hPa 0,0 l/m² 8,1 km/h (2 Bft) S-SW 209 ° 2 min 83 W/m² 7,1 °C 7,0 °C 14,5 km/h (3 Bft)
15.04.2024 08:36 21,7 °C 8,4 °C 54 % 92 % 1011,9 hPa 0,0 l/m² 11,0 km/h (2 Bft) S-SW 192 ° 2 min 86 W/m² 7,2 °C 5,2 °C 14,5 km/h (3 Bft)
15.04.2024 08:38 21,6 °C 8,4 °C 54 % 92 % 1012,0 hPa 0,0 l/m² 12,1 km/h (2 Bft) S-SW 197 ° 2 min 109 W/m² 7,2 °C 4,6 °C 16,1 km/h (3 Bft)
15.04.2024 08:40 21,6 °C 8,4 °C 54 % 92 % 1012,0 hPa 0,0 l/m² 11,2 km/h (2 Bft) S 190 ° 2 min 118 W/m² 7,2 °C 5,1 °C 16,1 km/h (3 Bft)
15.04.2024 08:41 21,6 °C 8,5 °C 54 % 92 % 1012,0 hPa 0,0 l/m² 9,2 km/h (2 Bft) S-SW 204 ° 1 min 116 W/m² 7,3 °C 6,4 °C 12,9 km/h (3 Bft)
15.04.2024 08:42 21,6 °C 8,6 °C 54 % 92 % 1011,9 hPa 0,0 l/m² 11,0 km/h (2 Bft) S-SW 200 ° 1 min 114 W/m² 7,4 °C 5,5 °C 16,1 km/h (3 Bft)
15.04.2024 08:44 21,7 °C 8,6 °C 54 % 91 % 1011,9 hPa 0,0 l/m² 13,4 km/h (3 Bft) S-SW 209 ° 2 min 130 W/m² 7,2 °C 4,2 °C 19,3 km/h (3 Bft)
15.04.2024 08:46 21,7 °C 8,7 °C 54 % 92 % 1011,8 hPa 0,0 l/m² 12,6 km/h (3 Bft) S-SW 210 ° 2 min 114 W/m² 7,5 °C 4,7 °C 17,7 km/h (3 Bft)
15.04.2024 08:48 21,7 °C 8,7 °C 54 % 91 % 1011,9 hPa 0,0 l/m² 12,3 km/h (2 Bft) S-SW 195 ° 2 min 113 W/m² 7,3 °C 4,9 °C 16,1 km/h (3 Bft)
15.04.2024 08:50 21,7 °C 8,7 °C 54 % 91 % 1011,9 hPa 0,0 l/m² 12,9 km/h (3 Bft) S 190 ° 2 min 142 W/m² 7,3 °C 4,6 °C 17,7 km/h (3 Bft)
15.04.2024 08:51 21,7 °C 8,7 °C 54 % 91 % 1011,9 hPa 0,0 l/m² 11,9 km/h (2 Bft) S-SW 210 ° 1 min 153 W/m² 7,3 °C 5,1 °C 16,1 km/h (3 Bft)
15.04.2024 08:52 21,7 °C 8,7 °C 54 % 91 % 1011,9 hPa 0,0 l/m² 11,8 km/h (2 Bft) S 177 ° 1 min 165 W/m² 7,3 °C 5,1 °C 16,1 km/h (3 Bft)
15.04.2024 08:54 21,7 °C 8,8 °C 54 % 91 % 1011,9 hPa 0,0 l/m² 12,7 km/h (3 Bft) S-SW 193 ° 2 min 214 W/m² 7,4 °C 4,8 °C 17,7 km/h (3 Bft)
15.04.2024 08:56 21,7 °C 8,9 °C 54 % 91 % 1011,8 hPa 0,0 l/m² 12,1 km/h (2 Bft) S-SW 198 ° 2 min 207 W/m² 7,5 °C 5,2 °C 17,7 km/h (3 Bft)
15.04.2024 08:58 21,7 °C 9,1 °C 54 % 91 % 1011,7 hPa 0,0 l/m² 10,0 km/h (2 Bft) S-SW 193 ° 2 min 169 W/m² 7,7 °C 6,6 °C 17,7 km/h (3 Bft)
15.04.2024 09:00 21,7 °C 9,1 °C 54 % 91 % 1011,8 hPa 0,0 l/m² 11,5 km/h (2 Bft) S 177 ° 2 min 183 W/m² 7,7 °C 5,7 °C 16,1 km/h (3 Bft)
15.04.2024 09:01 21,7 °C 9,2 °C 54 % 91 % 1011,7 hPa 0,0 l/m² 7,6 km/h (2 Bft) S-SW 193 ° 1 min 195 W/m² 7,8 °C 8,3 °C 11,3 km/h (2 Bft)
15.04.2024 09:02 21,7 °C 9,2 °C 54 % 91 % 1011,7 hPa 0,0 l/m² 7,7 km/h (2 Bft) S 177 ° 1 min 207 W/m² 7,8 °C 8,2 °C 11,3 km/h (2 Bft)
15.04.2024 09:05 21,7 °C 9,4 °C 54 % 91 % 1011,7 hPa 0,0 l/m² 7,4 km/h (2 Bft) S 187 ° 3 min 262 W/m² 8,0 °C 8,7 °C 12,9 km/h (3 Bft)
15.04.2024 09:07 21,7 °C 9,5 °C 54 % 91 % 1011,6 hPa 0,0 l/m² 9,3 km/h (2 Bft) S-SW 211 ° 2 min 262 W/m² 8,1 °C 7,5 °C 12,9 km/h (3 Bft)
15.04.2024 09:09 21,7 °C 9,6 °C 54 % 91 % 1011,6 hPa 0,0 l/m² 13,0 km/h (3 Bft) S 191 ° 2 min 258 W/m² 8,2 °C 5,6 °C 17,7 km/h (3 Bft)
15.04.2024 09:10 21,7 °C 9,6 °C 54 % 90 % 1011,6 hPa 0,0 l/m² 12,6 km/h (3 Bft) S-SW 208 ° 1 min 281 W/m² 8,0 °C 5,8 °C 16,1 km/h (3 Bft)
15.04.2024 09:11 21,7 °C 9,6 °C 54 % 89 % 1011,6 hPa 0,0 l/m² 11,9 km/h (2 Bft) S 190 ° 1 min 350 W/m² 7,9 °C 6,1 °C 16,1 km/h (3 Bft)
15.04.2024 09:12 21,7 °C 9,6 °C 54 % 89 % 1011,6 hPa 0,0 l/m² 12,1 km/h (2 Bft) S 190 ° 1 min 272 W/m² 7,9 °C 6,0 °C 16,1 km/h (3 Bft)
15.04.2024 09:14 21,7 °C 9,7 °C 54 % 89 % 1011,6 hPa 0,0 l/m² 8,9 km/h (2 Bft) SW 221 ° 2 min 204 W/m² 8,0 °C 7,9 °C 14,5 km/h (3 Bft)
15.04.2024 09:16 21,7 °C 9,7 °C 54 % 89 % 1011,5 hPa 0,0 l/m² 9,1 km/h (2 Bft) S-SW 200 ° 2 min 185 W/m² 8,0 °C 7,8 °C 14,5 km/h (3 Bft)
15.04.2024 09:18 21,7 °C 9,6 °C 54 % 89 % 1011,5 hPa 0,0 l/m² 15,1 km/h (3 Bft) S 178 ° 2 min 197 W/m² 7,9 °C 4,6 °C 19,3 km/h (3 Bft)
15.04.2024 09:20 21,7 °C 9,4 °C 54 % 88 % 1011,6 hPa 0,0 l/m² 15,0 km/h (3 Bft) S 183 ° 2 min 197 W/m² 7,5 °C 4,4 °C 20,9 km/h (4 Bft)
15.04.2024 09:21 21,7 °C 9,4 °C 54 % 88 % 1011,6 hPa 0,0 l/m² 13,2 km/h (3 Bft) S 188 ° 1 min 190 W/m² 7,5 °C 5,2 °C 17,7 km/h (3 Bft)
15.04.2024 09:22 21,7 °C 9,4 °C 54 % 89 % 1011,6 hPa 0,0 l/m² 10,1 km/h (2 Bft) S-SW 210 ° 1 min 179 W/m² 7,7 °C 6,9 °C 14,5 km/h (3 Bft)
15.04.2024 09:25 21,7 °C 9,4 °C 54 % 89 % 1011,6 hPa 0,0 l/m² 11,2 km/h (2 Bft) S-SW 203 ° 3 min 135 W/m² 7,7 °C 6,2 °C 16,1 km/h (3 Bft)
15.04.2024 09:27 21,7 °C 9,4 °C 54 % 89 % 1011,5 hPa 0,0 l/m² 9,7 km/h (2 Bft) S-SO 153 ° 2 min 127 W/m² 7,7 °C 7,1 °C 12,9 km/h (3 Bft)
15.04.2024 09:29 21,7 °C 9,4 °C 54 % 89 % 1011,5 hPa 0,0 l/m² 10,9 km/h (2 Bft) S 184 ° 2 min 141 W/m² 7,7 °C 6,4 °C 16,1 km/h (3 Bft)
15.04.2024 09:30 21,7 °C 9,3 °C 54 % 88 % 1011,4 hPa 0,0 l/m² 10,4 km/h (2 Bft) S 175 ° 1 min 165 W/m² 7,4 °C 6,6 °C 16,1 km/h (3 Bft)
15.04.2024 09:31 21,7 °C 9,3 °C 54 % 89 % 1011,4 hPa 0,0 l/m² 11,8 km/h (2 Bft) S-SW 201 ° 1 min 172 W/m² 7,6 °C 5,8 °C 14,5 km/h (3 Bft)
15.04.2024 09:32 21,7 °C 9,3 °C 54 % 89 % 1011,4 hPa 0,0 l/m² 10,7 km/h (2 Bft) S-SW 209 ° 1 min 183 W/m² 7,6 °C 6,4 °C 12,9 km/h (3 Bft)
15.04.2024 09:35 21,7 °C 9,4 °C 54 % 88 % 1011,3 hPa 0,0 l/m² 13,7 km/h (3 Bft) S 191 ° 3 min 206 W/m² 7,5 °C 5,0 °C 19,3 km/h (3 Bft)
15.04.2024 09:37 21,7 °C 9,4 °C 54 % 89 % 1011,2 hPa 0,0 l/m² 14,1 km/h (3 Bft) S 182 ° 2 min 209 W/m² 7,7 °C 4,8 °C 20,9 km/h (4 Bft)
15.04.2024 09:39 21,7 °C 9,4 °C 54 % 89 % 1011,2 hPa 0,0 l/m² 12,7 km/h (3 Bft) S 179 ° 2 min 211 W/m² 7,7 °C 5,5 °C 19,3 km/h (3 Bft)
15.04.2024 09:40 21,7 °C 9,4 °C 54 % 88 % 1011,1 hPa 0,0 l/m² 16,3 km/h (3 Bft) S 185 ° 1 min 213 W/m² 7,5 °C 3,9 °C 17,7 km/h (3 Bft)
15.04.2024 09:41 21,7 °C 9,4 °C 54 % 88 % 1011,1 hPa 0,0 l/m² 12,4 km/h (2 Bft) S 184 ° 1 min 211 W/m² 7,5 °C 5,6 °C 17,7 km/h (3 Bft)
15.04.2024 09:42 21,7 °C 9,5 °C 54 % 88 % 1011,1 hPa 0,0 l/m² 13,4 km/h (3 Bft) S 178 ° 1 min 211 W/m² 7,6 °C 5,2 °C 17,7 km/h (3 Bft)
15.04.2024 09:44 21,7 °C 9,5 °C 54 % 88 % 1011,1 hPa 0,0 l/m² 14,3 km/h (3 Bft) S 184 ° 2 min 211 W/m² 7,6 °C 4,8 °C 20,9 km/h (4 Bft)
15.04.2024 09:47 21,7 °C 9,5 °C 54 % 89 % 1011,1 hPa 0,0 l/m² 13,4 km/h (3 Bft) S 170 ° 3 min 188 W/m² 7,8 °C 5,2 °C 20,9 km/h (4 Bft)
15.04.2024 09:49 21,7 °C 9,6 °C 54 % 89 % 1011,1 hPa 0,0 l/m² 11,4 km/h (2 Bft) S 190 ° 2 min 165 W/m² 7,9 °C 6,4 °C 17,7 km/h (3 Bft)
15.04.2024 09:50 21,7 °C 9,6 °C 54 % 89 % 1011,1 hPa 0,0 l/m² 9,8 km/h (2 Bft) S 179 ° 1 min 156 W/m² 7,9 °C 7,3 °C 14,5 km/h (3 Bft)
15.04.2024 09:51 21,7 °C 9,6 °C 54 % 89 % 1011,1 hPa 0,0 l/m² 11,6 km/h (2 Bft) S 186 ° 1 min 155 W/m² 7,9 °C 6,3 °C 16,1 km/h (3 Bft)
15.04.2024 09:52 21,7 °C 9,6 °C 54 % 89 % 1011,1 hPa 0,0 l/m² 12,4 km/h (2 Bft) S 189 ° 1 min 156 W/m² 7,9 °C 5,9 °C 20,9 km/h (4 Bft)
15.04.2024 09:54 21,7 °C 9,6 °C 54 % 88 % 1011,1 hPa 0,0 l/m² 13,4 km/h (3 Bft) S 178 ° 2 min 158 W/m² 7,7 °C 5,4 °C 22,5 km/h (4 Bft)
15.04.2024 09:56 21,7 °C 9,5 °C 54 % 88 % 1011,0 hPa 0,0 l/m² 15,4 km/h (3 Bft) S 172 ° 2 min 155 W/m² 7,6 °C 4,4 °C 22,5 km/h (4 Bft)
15.04.2024 09:58 21,7 °C 9,4 °C 54 % 88 % 1011,0 hPa 0,0 l/m² 16,3 km/h (3 Bft) S 191 ° 2 min 160 W/m² 7,5 °C 3,9 °C 20,9 km/h (4 Bft)
15.04.2024 10:00 21,7 °C 9,4 °C 54 % 88 % 1011,0 hPa 0,0 l/m² 15,8 km/h (3 Bft) S 187 ° 2 min 192 W/m² 7,5 °C 4,1 °C 22,5 km/h (4 Bft)
15.04.2024 10:01 21,7 °C 9,4 °C 54 % 88 % 1011,0 hPa 0,0 l/m² 12,5 km/h (2 Bft) S-SW 201 ° 1 min 200 W/m² 7,5 °C 5,6 °C 20,9 km/h (4 Bft)
15.04.2024 10:02 21,7 °C 9,4 °C 54 % 88 % 1011,0 hPa 0,0 l/m² 15,6 km/h (3 Bft) S 187 ° 1 min 207 W/m² 7,5 °C 4,2 °C 20,9 km/h (4 Bft)
15.04.2024 10:03 21,7 °C 9,4 °C 54 % 88 % 1011,0 hPa 0,0 l/m² 11,3 km/h (2 Bft) S 179 ° 1 min 207 W/m² 7,5 °C 6,2 °C 14,5 km/h (3 Bft)
15.04.2024 10:05 21,7 °C 9,4 °C 54 % 88 % 1010,9 hPa 0,0 l/m² 14,8 km/h (3 Bft) S 189 ° 2 min 178 W/m² 7,5 °C 4,5 °C 20,9 km/h (4 Bft)
15.04.2024 10:07 21,7 °C 9,5 °C 54 % 88 % 1010,9 hPa 0,0 l/m² 13,3 km/h (3 Bft) S 173 ° 2 min 172 W/m² 7,6 °C 5,3 °C 19,3 km/h (3 Bft)
15.04.2024 10:09 21,7 °C 9,4 °C 54 % 87 % 1010,8 hPa 0,0 l/m² 12,0 km/h (2 Bft) S 175 ° 2 min 176 W/m² 7,3 °C 5,8 °C 17,7 km/h (3 Bft)
15.04.2024 10:10 21,7 °C 9,5 °C 54 % 87 % 1010,9 hPa 0,0 l/m² 10,5 km/h (2 Bft) S-SO 164 ° 1 min 183 W/m² 7,4 °C 6,8 °C 12,9 km/h (3 Bft)
15.04.2024 10:11 21,7 °C 9,5 °C 54 % 88 % 1010,9 hPa 0,0 l/m² 11,0 km/h (2 Bft) S 174 ° 1 min 188 W/m² 7,6 °C 6,5 °C 16,1 km/h (3 Bft)
15.04.2024 10:12 21,7 °C 9,5 °C 54 % 88 % 1010,8 hPa 0,0 l/m² 13,3 km/h (3 Bft) S 187 ° 1 min 193 W/m² 7,6 °C 5,3 °C 19,3 km/h (3 Bft)
15.04.2024 10:14 21,7 °C 9,6 °C 54 % 88 % 1010,8 hPa 0,0 l/m² 11,4 km/h (2 Bft) S-SW 200 ° 2 min 204 W/m² 7,7 °C 6,4 °C 17,7 km/h (3 Bft)
15.04.2024 10:16 21,7 °C 9,6 °C 54 % 88 % 1010,7 hPa 0,0 l/m² 8,8 km/h (2 Bft) S-SW 199 ° 2 min 207 W/m² 7,7 °C 7,9 °C 12,9 km/h (3 Bft)
15.04.2024 10:18 21,7 °C 9,7 °C 54 % 88 % 1010,8 hPa 0,0 l/m² 8,8 km/h (2 Bft) S-SO 153 ° 2 min 207 W/m² 7,8 °C 8,0 °C 14,5 km/h (3 Bft)
15.04.2024 10:20 21,7 °C 9,7 °C 54 % 88 % 1010,8 hPa 0,0 l/m² 13,0 km/h (3 Bft) S-SO 167 ° 2 min 199 W/m² 7,8 °C 5,7 °C 22,5 km/h (4 Bft)
15.04.2024 10:21 21,7 °C 9,7 °C 54 % 88 % 1010,8 hPa 0,0 l/m² 12,3 km/h (2 Bft) S 175 ° 1 min 193 W/m² 7,8 °C 6,0 °C 17,7 km/h (3 Bft)
15.04.2024 10:22 21,7 °C 9,7 °C 54 % 88 % 1010,8 hPa 0,0 l/m² 16,5 km/h (3 Bft) S 185 ° 1 min 185 W/m² 7,8 °C 4,2 °C 20,9 km/h (4 Bft)
15.04.2024 10:23 21,7 °C 9,7 °C 54 % 87 % 1010,8 hPa 0,0 l/m² 14,1 km/h (3 Bft) S 187 ° 1 min 179 W/m² 7,6 °C 5,2 °C 19,3 km/h (3 Bft)
15.04.2024 10:25 21,7 °C 9,6 °C 54 % 87 % 1010,8 hPa 0,0 l/m² 13,2 km/h (3 Bft) S-SO 167 ° 2 min 163 W/m² 7,5 °C 5,5 °C 17,7 km/h (3 Bft)
15.04.2024 10:27 21,7 °C 9,6 °C 54 % 88 % 1010,9 hPa 0,0 l/m² 10,5 km/h (2 Bft) S 173 ° 2 min 167 W/m² 7,7 °C 6,9 °C 16,1 km/h (3 Bft)
15.04.2024 10:29 21,7 °C 9,7 °C 54 % 87 % 1010,8 hPa 0,0 l/m² 12,1 km/h (2 Bft) SO 144 ° 2 min 171 W/m² 7,6 °C 6,1 °C 19,3 km/h (3 Bft)
15.04.2024 10:30 21,7 °C 9,7 °C 54 % 88 % 1010,8 hPa 0,0 l/m² 9,8 km/h (2 Bft) S-SO 165 ° 1 min 167 W/m² 7,8 °C 7,4 °C 14,5 km/h (3 Bft)
15.04.2024 10:31 21,7 °C 9,7 °C 54 % 88 % 1010,8 hPa 0,0 l/m² 13,7 km/h (3 Bft) S 181 ° 1 min 169 W/m² 7,8 °C 5,3 °C 20,9 km/h (4 Bft)
15.04.2024 10:32 21,6 °C 9,7 °C 54 % 87 % 1010,8 hPa 0,0 l/m² 12,4 km/h (2 Bft) S-SO 165 ° 1 min 169 W/m² 7,6 °C 6,0 °C 16,1 km/h (3 Bft)
15.04.2024 10:33 21,7 °C 9,7 °C 54 % 87 % 1010,8 hPa 0,0 l/m² 11,5 km/h (2 Bft) S-SO 158 ° 1 min 174 W/m² 7,6 °C 6,4 °C 19,3 km/h (3 Bft)
15.04.2024 10:34 21,7 °C 9,7 °C 54 % 87 % 1010,7 hPa 0,0 l/m² 10,6 km/h (2 Bft) SO 146 ° 1 min 176 W/m² 7,6 °C 6,9 °C 16,1 km/h (3 Bft)
15.04.2024 10:35 21,6 °C 9,7 °C 54 % 88 % 1010,7 hPa 0,0 l/m² 12,5 km/h (2 Bft) S 178 ° 1 min 183 W/m² 7,8 °C 5,9 °C 17,7 km/h (3 Bft)
15.04.2024 10:36 21,7 °C 9,7 °C 54 % 87 % 1010,7 hPa 0,0 l/m² 10,7 km/h (2 Bft) SO 146 ° 1 min 188 W/m² 7,6 °C 6,9 °C 12,9 km/h (3 Bft)
15.04.2024 10:37 21,7 °C 9,8 °C 54 % 87 % 1010,7 hPa 0,0 l/m² 9,9 km/h (2 Bft) S-SW 194 ° 1 min 186 W/m² 7,7 °C 7,4 °C 16,1 km/h (3 Bft)
15.04.2024 10:38 21,6 °C 9,8 °C 54 % 87 % 1010,6 hPa 0,0 l/m² 7,7 km/h (2 Bft) S 183 ° 1 min 185 W/m² 7,7 °C 8,9 °C 11,3 km/h (2 Bft)
15.04.2024 10:39 21,7 °C 9,8 °C 54 % 87 % 1010,7 hPa 0,0 l/m² 9,3 km/h (2 Bft) S 191 ° 1 min 186 W/m² 7,7 °C 7,8 °C 14,5 km/h (3 Bft)
15.04.2024 10:41 21,7 °C 9,8 °C 54 % 87 % 1010,6 hPa 0,0 l/m² 10,9 km/h (2 Bft) S-SW 200 ° 2 min 193 W/m² 7,7 °C 6,9 °C 16,1 km/h (3 Bft)
15.04.2024 10:43 21,7 °C 9,8 °C 54 % 87 % 1010,6 hPa 0,0 l/m² 11,9 km/h (2 Bft) S 183 ° 2 min 204 W/m² 7,7 °C 6,3 °C 16,1 km/h (3 Bft)
15.04.2024 10:44 21,7 °C 9,8 °C 54 % 87 % 1010,6 hPa 0,0 l/m² 8,9 km/h (2 Bft) S-SO 154 ° 1 min 211 W/m² 7,7 °C 8,0 °C 14,5 km/h (3 Bft)
15.04.2024 10:45 21,6 °C 9,9 °C 54 % 87 % 1010,6 hPa 0,0 l/m² 13,1 km/h (3 Bft) S 174 ° 1 min 216 W/m² 7,8 °C 5,9 °C 19,3 km/h (3 Bft)
15.04.2024 10:46 21,7 °C 9,9 °C 54 % 87 % 1010,6 hPa 0,0 l/m² 7,5 km/h (2 Bft) S-SW 202 ° 1 min 209 W/m² 7,8 °C 9,1 °C 12,9 km/h (3 Bft)
15.04.2024 10:47 21,7 °C 9,9 °C 54 % 87 % 1010,6 hPa 0,0 l/m² 15,6 km/h (3 Bft) S 175 ° 1 min 207 W/m² 7,8 °C 4,8 °C 20,9 km/h (4 Bft)
15.04.2024 10:48 21,7 °C 9,9 °C 54 % 87 % 1010,6 hPa 0,0 l/m² 12,6 km/h (3 Bft) S 183 ° 1 min 214 W/m² 7,8 °C 6,1 °C 14,5 km/h (3 Bft)
15.04.2024 10:49 21,7 °C 9,9 °C 54 % 86 % 1010,6 hPa 0,0 l/m² 10,0 km/h (2 Bft) S 178 ° 1 min 225 W/m² 7,7 °C 7,5 °C 16,1 km/h (3 Bft)
15.04.2024 10:51 21,7 °C 9,9 °C 54 % 86 % 1010,6 hPa 0,0 l/m² 13,4 km/h (3 Bft) S 173 ° 2 min 251 W/m² 7,7 °C 5,7 °C 22,5 km/h (4 Bft)
15.04.2024 10:53 21,6 °C 9,9 °C 54 % 86 % 1010,5 hPa 0,0 l/m² 14,6 km/h (3 Bft) S 186 ° 2 min 287 W/m² 7,7 °C 5,2 °C 24,1 km/h (4 Bft)
15.04.2024 10:54 21,7 °C 10,0 °C 54 % 85 % 1010,5 hPa 0,0 l/m² 10,5 km/h (2 Bft) S 171 ° 1 min 299 W/m² 7,6 °C 7,3 °C 14,5 km/h (3 Bft)
15.04.2024 10:55 21,7 °C 10,1 °C 54 % 86 % 1010,5 hPa 0,0 l/m² 13,9 km/h (3 Bft) S 178 ° 1 min 323 W/m² 7,9 °C 5,7 °C 19,3 km/h (3 Bft)
15.04.2024 10:56 21,7 °C 10,1 °C 54 % 86 % 1010,4 hPa 0,0 l/m² 11,4 km/h (2 Bft) S 177 ° 1 min 323 W/m² 7,9 °C 6,9 °C 16,1 km/h (3 Bft)
15.04.2024 10:57 21,7 °C 10,3 °C 54 % 87 % 1010,5 hPa 0,0 l/m² 11,7 km/h (2 Bft) S 184 ° 1 min 578 W/m² 8,2 °C 7,0 °C 17,7 km/h (3 Bft)
15.04.2024 10:58 21,7 °C 10,3 °C 54 % 85 % 1010,5 hPa 0,0 l/m² 18,2 km/h (3 Bft) S 178 ° 1 min 380 W/m² 7,9 °C 4,3 °C 22,5 km/h (4 Bft)
15.04.2024 10:59 21,7 °C 10,4 °C 54 % 85 % 1010,5 hPa 0,0 l/m² 16,4 km/h (3 Bft) S 172 ° 1 min 397 W/m² 8,0 °C 5,1 °C 20,9 km/h (4 Bft)
15.04.2024 11:01 21,7 °C 10,6 °C 54 % 85 % 1010,3 hPa 0,0 l/m² 15,5 km/h (3 Bft) S-SO 165 ° 2 min 413 W/m² 8,2 °C 5,7 °C 24,1 km/h (4 Bft)
15.04.2024 11:03 21,7 °C 10,8 °C 54 % 86 % 1010,3 hPa 0,0 l/m² 9,0 km/h (2 Bft) S 189 ° 2 min 403 W/m² 8,6 °C 9,1 °C 11,3 km/h (2 Bft)
15.04.2024 11:04 21,7 °C 10,8 °C 54 % 86 % 1010,4 hPa 0,0 l/m² 8,9 km/h (2 Bft) S 183 ° 1 min 385 W/m² 8,6 °C 9,1 °C 16,1 km/h (3 Bft)
15.04.2024 11:05 21,7 °C 10,9 °C 54 % 86 % 1010,4 hPa 0,0 l/m² 12,0 km/h (2 Bft) S-SO 161 ° 1 min 367 W/m² 8,7 °C 7,6 °C 16,1 km/h (3 Bft)
15.04.2024 11:06 21,7 °C 10,9 °C 54 % 85 % 1010,3 hPa 0,0 l/m² 10,2 km/h (2 Bft) S 178 ° 1 min 355 W/m² 8,5 °C 8,5 °C 12,9 km/h (3 Bft)
15.04.2024 11:07 21,7 °C 11,0 °C 54 % 85 % 1010,2 hPa 0,0 l/m² 7,1 km/h (2 Bft) S-SO 152 ° 1 min 309 W/m² 8,6 °C 10,5 °C 12,9 km/h (3 Bft)
15.04.2024 11:08 21,7 °C 10,9 °C 53 % 85 % 1010,3 hPa 0,0 l/m² 9,6 km/h (2 Bft) S-SO 155 ° 1 min 274 W/m² 8,5 °C 8,8 °C 14,5 km/h (3 Bft)
15.04.2024 11:09 21,7 °C 10,9 °C 53 % 85 % 1010,1 hPa 0,0 l/m² 11,8 km/h (2 Bft) S 173 ° 1 min 309 W/m² 8,5 °C 7,6 °C 20,9 km/h (4 Bft)
15.04.2024 11:11 21,7 °C 10,8 °C 53 % 84 % 1010,2 hPa 0,0 l/m² 14,6 km/h (3 Bft) SO 144 ° 2 min 336 W/m² 8,2 °C 6,3 °C 24,1 km/h (4 Bft)
15.04.2024 11:13 21,7 °C 10,7 °C 53 % 84 % 1010,2 hPa 0,0 l/m² 11,0 km/h (2 Bft) S 180 ° 2 min 345 W/m² 8,1 °C 7,8 °C 16,1 km/h (3 Bft)
15.04.2024 11:14 21,7 °C 10,8 °C 53 % 84 % 1010,1 hPa 0,0 l/m² 11,6 km/h (2 Bft) S 189 ° 1 min 387 W/m² 8,2 °C 7,6 °C 17,7 km/h (3 Bft)
15.04.2024 11:15 21,7 °C 10,8 °C 53 % 84 % 1010,1 hPa 0,0 l/m² 11,5 km/h (2 Bft) S 190 ° 1 min 387 W/m² 8,2 °C 7,7 °C 14,5 km/h (3 Bft)
15.04.2024 11:16 21,7 °C 11,0 °C 53 % 85 % 1010,1 hPa 0,0 l/m² 10,7 km/h (2 Bft) S 171 ° 1 min 418 W/m² 8,6 °C 8,3 °C 16,1 km/h (3 Bft)
15.04.2024 11:17 21,7 °C 11,1 °C 53 % 85 % 1010,0 hPa 0,0 l/m² 13,3 km/h (3 Bft) S-SO 157 ° 1 min 418 W/m² 8,7 °C 7,2 °C 19,3 km/h (3 Bft)
15.04.2024 11:18 21,8 °C 11,3 °C 53 % 85 % 1010,0 hPa 0,0 l/m² 11,7 km/h (2 Bft) SO 134 ° 1 min 912 W/m² 8,9 °C 8,2 °C 14,5 km/h (3 Bft)
15.04.2024 11:19 21,8 °C 11,4 °C 53 % 84 % 1010,0 hPa 0,0 l/m² 12,9 km/h (3 Bft) S-SO 156 ° 1 min 844 W/m² 8,8 °C 7,7 °C 17,7 km/h (3 Bft)
15.04.2024 11:21 21,8 °C 11,9 °C 53 % 84 % 1010,1 hPa 0,0 l/m² 12,7 km/h (3 Bft) S-SO 161 ° 2 min 686 W/m² 9,3 °C 8,4 °C 19,3 km/h (3 Bft)
15.04.2024 11:23 21,8 °C 12,2 °C 53 % 83 % 1010,0 hPa 0,0 l/m² 12,1 km/h (2 Bft) S-SO 153 ° 2 min 689 W/m² 9,4 °C 9,0 °C 17,7 km/h (3 Bft)
15.04.2024 11:24 21,8 °C 12,2 °C 53 % 81 % 1010,0 hPa 0,0 l/m² 7,0 km/h (2 Bft) S-SW 201 ° 1 min 690 W/m² 9,0 °C 11,8 °C 11,3 km/h (2 Bft)
15.04.2024 11:25 21,8 °C 12,3 °C 53 % 83 % 1010,0 hPa 0,0 l/m² 3,1 km/h (1 Bft) S-SO 165 ° 1 min 691 W/m² 9,5 °C 12,3 °C 6,4 km/h (2 Bft)
15.04.2024 11:26 21,9 °C 12,2 °C 53 % 82 % 1010,0 hPa 0,0 l/m² 9,0 km/h (2 Bft) O-SO 104 ° 1 min 692 W/m² 9,2 °C 10,6 °C 14,5 km/h (3 Bft)
15.04.2024 11:27 21,9 °C 12,1 °C 53 % 80 % 1010,0 hPa 0,0 l/m² 12,9 km/h (3 Bft) SO 138 ° 1 min 348 W/m² 8,8 °C 8,5 °C 16,1 km/h (3 Bft)
15.04.2024 11:28 21,9 °C 12,1 °C 53 % 82 % 1010,0 hPa 0,0 l/m² 11,7 km/h (2 Bft) S-SO 163 ° 1 min 373 W/m² 9,1 °C 9,1 °C 17,7 km/h (3 Bft)
15.04.2024 11:29 21,9 °C 11,9 °C 53 % 81 % 1010,0 hPa 0,0 l/m² 14,1 km/h (3 Bft) S 178 ° 1 min 378 W/m² 8,7 °C 7,8 °C 19,3 km/h (3 Bft)
15.04.2024 11:31 21,9 °C 11,7 °C 53 % 82 % 1010,0 hPa 0,0 l/m² 14,4 km/h (3 Bft) S 186 ° 2 min 364 W/m² 8,7 °C 7,4 °C 19,3 km/h (3 Bft)
15.04.2024 11:33 21,9 °C 11,5 °C 53 % 83 % 1010,0 hPa 0,0 l/m² 13,0 km/h (3 Bft) S 182 ° 2 min 334 W/m² 8,7 °C 7,8 °C 19,3 km/h (3 Bft)
15.04.2024 11:34 21,9 °C 11,4 °C 53 % 83 % 1010,0 hPa 0,0 l/m² 11,5 km/h (2 Bft) S-SW 196 ° 1 min 320 W/m² 8,6 °C 8,4 °C 17,7 km/h (3 Bft)
15.04.2024 11:35 21,9 °C 11,3 °C 53 % 82 % 1010,0 hPa 0,0 l/m² 10,0 km/h (2 Bft) S 174 ° 1 min 309 W/m² 8,3 °C 9,0 °C 11,3 km/h (2 Bft)
15.04.2024 11:36 21,9 °C 11,3 °C 53 % 82 % 1010,0 hPa 0,0 l/m² 8,6 km/h (2 Bft) S-SO 167 ° 1 min 323 W/m² 8,3 °C 9,8 °C 12,9 km/h (3 Bft)
15.04.2024 11:37 21,9 °C 11,3 °C 53 % 83 % 1010,0 hPa 0,0 l/m² 8,8 km/h (2 Bft) S 188 ° 1 min 323 W/m² 8,5 °C 9,7 °C 12,9 km/h (3 Bft)
15.04.2024 11:38 21,9 °C 11,5 °C 53 % 83 % 1010,0 hPa 0,0 l/m² 9,7 km/h (2 Bft) SO 131 ° 1 min 323 W/m² 8,7 °C 9,4 °C 14,5 km/h (3 Bft)
15.04.2024 11:39 21,9 °C 11,6 °C 53 % 83 % 1010,0 hPa 0,0 l/m² 12,5 km/h (2 Bft) SO 144 ° 1 min 341 W/m² 8,8 °C 8,1 °C 16,1 km/h (3 Bft)
15.04.2024 11:41 21,9 °C 11,5 °C 53 % 82 % 1010,0 hPa 0,0 l/m² 8,5 km/h (2 Bft) SO 139 ° 2 min 392 W/m² 8,5 °C 10,1 °C 14,5 km/h (3 Bft)
15.04.2024 11:43 21,9 °C 11,6 °C 53 % 83 % 1009,8 hPa 0,0 l/m² 9,8 km/h (2 Bft) S-SO 152 ° 2 min 438 W/m² 8,8 °C 9,5 °C 14,5 km/h (3 Bft)
15.04.2024 11:44 21,9 °C 11,7 °C 53 % 83 % 1009,8 hPa 0,0 l/m² 12,3 km/h (2 Bft) S 173 ° 1 min 338 W/m² 8,9 °C 8,3 °C 16,1 km/h (3 Bft)
15.04.2024 11:45 21,9 °C 11,7 °C 53 % 82 % 1009,8 hPa 0,0 l/m² 15,5 km/h (3 Bft) S-SO 167 ° 1 min 352 W/m² 8,7 °C 7,0 °C 19,3 km/h (3 Bft)
15.04.2024 11:46 21,9 °C 11,7 °C 53 % 82 % 1009,8 hPa 0,0 l/m² 10,7 km/h (2 Bft) S-SW 201 ° 1 min 420 W/m² 8,7 °C 9,1 °C 14,5 km/h (3 Bft)
15.04.2024 11:47 21,9 °C 11,7 °C 53 % 82 % 1009,8 hPa 0,0 l/m² 12,9 km/h (3 Bft) S-SW 209 ° 1 min 475 W/m² 8,7 °C 8,1 °C 17,7 km/h (3 Bft)
15.04.2024 11:48 21,9 °C 11,8 °C 53 % 82 % 1009,8 hPa 0,0 l/m² 15,0 km/h (3 Bft) S 179 ° 1 min 524 W/m² 8,8 °C 7,3 °C 19,3 km/h (3 Bft)
15.04.2024 11:49 21,9 °C 11,8 °C 53 % 82 % 1009,8 hPa 0,0 l/m² 13,1 km/h (3 Bft) S 189 ° 1 min 548 W/m² 8,8 °C 8,1 °C 16,1 km/h (3 Bft)
15.04.2024 11:51 21,9 °C 11,8 °C 53 % 81 % 1009,8 hPa 0,0 l/m² 10,7 km/h (2 Bft) S 188 ° 2 min 534 W/m² 8,6 °C 9,2 °C 17,7 km/h (3 Bft)
15.04.2024 11:53 21,9 °C 12,1 °C 53 % 83 % 1009,7 hPa 0,0 l/m² 6,9 km/h (2 Bft) S-SW 202 ° 2 min 552 W/m² 9,3 °C 11,8 °C 17,7 km/h (3 Bft)
15.04.2024 11:54 21,9 °C 12,3 °C 53 % 82 % 1009,6 hPa 0,0 l/m² 11,6 km/h (2 Bft) S-SW 200 ° 1 min 788 W/m² 9,3 °C 9,3 °C 16,1 km/h (3 Bft)
15.04.2024 11:55 21,9 °C 12,5 °C 53 % 83 % 1009,5 hPa 0,0 l/m² 11,3 km/h (2 Bft) S-SW 192 ° 1 min 788 W/m² 9,7 °C 9,7 °C 16,1 km/h (3 Bft)
15.04.2024 11:56 21,9 °C 12,6 °C 53 % 82 % 1009,6 hPa 0,0 l/m² 13,3 km/h (3 Bft) S-SW 202 ° 1 min 684 W/m² 9,6 °C 9,0 °C 16,1 km/h (3 Bft)
15.04.2024 11:57 21,9 °C 12,6 °C 53 % 81 % 1009,6 hPa 0,0 l/m² 10,5 km/h (2 Bft) S-SW 213 ° 1 min 684 W/m² 9,4 °C 10,2 °C 14,5 km/h (3 Bft)
15.04.2024 11:58 21,9 °C 12,6 °C 53 % 81 % 1009,5 hPa 0,0 l/m² 12,9 km/h (3 Bft) S-SW 206 ° 1 min 684 W/m² 9,4 °C 9,1 °C 16,1 km/h (3 Bft)
15.04.2024 11:59 21,9 °C 12,6 °C 53 % 81 % 1009,6 hPa 0,0 l/m² 12,3 km/h (2 Bft) S-SO 163 ° 1 min 684 W/m² 9,4 °C 9,4 °C 16,1 km/h (3 Bft)
15.04.2024 12:01 21,9 °C 12,4 °C 53 % 80 % 1009,5 hPa 0,0 l/m² 12,4 km/h (2 Bft) S 172 ° 2 min 352 W/m² 9,0 °C 9,1 °C 17,7 km/h (3 Bft)
15.04.2024 12:02 21,9 °C 12,3 °C 53 % 80 % 1009,2 hPa 0,0 l/m² 9,1 km/h (2 Bft) S-SO 161 ° 1 min 297 W/m² 8,9 °C 10,6 °C 12,9 km/h (3 Bft)
15.04.2024 12:03 21,9 °C 12,2 °C 53 % 81 % 1009,2 hPa 0,0 l/m² 12,3 km/h (2 Bft) S 172 ° 1 min 279 W/m² 9,0 °C 8,9 °C 17,7 km/h (3 Bft)
15.04.2024 12:04 22,0 °C 12,1 °C 53 % 80 % 1009,2 hPa 0,0 l/m² 15,4 km/h (3 Bft) S-SO 168 ° 1 min 279 W/m² 8,8 °C 7,5 °C 19,3 km/h (3 Bft)
15.04.2024 12:05 21,9 °C 11,9 °C 53 % 81 % 1009,2 hPa 0,0 l/m² 11,7 km/h (2 Bft) SO 140 ° 1 min 267 W/m² 8,7 °C 8,8 °C 16,1 km/h (3 Bft)
15.04.2024 12:06 21,9 °C 11,9 °C 53 % 80 % 1009,3 hPa 0,0 l/m² 12,7 km/h (3 Bft) S-SO 166 ° 1 min 246 W/m² 8,6 °C 8,4 °C 17,7 km/h (3 Bft)
15.04.2024 12:07 21,9 °C 11,8 °C 53 % 81 % 1009,3 hPa 0,0 l/m² 8,9 km/h (2 Bft) S-SW 200 ° 1 min 221 W/m² 8,6 °C 10,2 °C 14,5 km/h (3 Bft)
15.04.2024 12:08 21,9 °C 11,8 °C 53 % 82 % 1009,5 hPa 0,0 l/m² 10,9 km/h (2 Bft) S-SW 202 ° 1 min 209 W/m² 8,8 °C 9,1 °C 14,5 km/h (3 Bft)
15.04.2024 12:09 21,9 °C 11,7 °C 53 % 81 % 1009,6 hPa 0,0 l/m² 12,7 km/h (3 Bft) S-SW 200 ° 1 min 206 W/m² 8,5 °C 8,2 °C 14,5 km/h (3 Bft)
15.04.2024 12:11 21,9 °C 11,6 °C 53 % 83 % 1009,7 hPa 0,0 l/m² 10,9 km/h (2 Bft) S-SO 155 ° 2 min 209 W/m² 8,8 °C 8,9 °C 17,7 km/h (3 Bft)
15.04.2024 12:13 21,9 °C 11,4 °C 53 % 81 % 1009,7 hPa 0,0 l/m² 15,8 km/h (3 Bft) S 176 ° 2 min 207 W/m² 8,3 °C 6,5 °C 20,9 km/h (4 Bft)
15.04.2024 12:14 21,9 °C 11,4 °C 53 % 82 % 1009,7 hPa 0,0 l/m² 13,3 km/h (3 Bft) S-SO 159 ° 1 min 188 W/m² 8,4 °C 7,5 °C 17,7 km/h (3 Bft)
15.04.2024 12:15 21,9 °C 11,3 °C 53 % 83 % 1009,6 hPa 0,0 l/m² 9,3 km/h (2 Bft) S-SW 192 ° 1 min 197 W/m² 8,5 °C 9,4 °C 14,5 km/h (3 Bft)
15.04.2024 12:16 21,9 °C 11,3 °C 53 % 83 % 1009,6 hPa 0,0 l/m² 10,8 km/h (2 Bft) S 191 ° 1 min 200 W/m² 8,5 °C 8,6 °C 19,3 km/h (3 Bft)
15.04.2024 12:17 21,9 °C 11,3 °C 53 % 82 % 1009,5 hPa 0,0 l/m² 11,9 km/h (2 Bft) S 190 ° 1 min 199 W/m² 8,3 °C 8,1 °C 17,7 km/h (3 Bft)
15.04.2024 12:18 21,9 °C 11,3 °C 53 % 82 % 1009,6 hPa 0,0 l/m² 14,9 km/h (3 Bft) S 169 ° 1 min 193 W/m² 8,3 °C 6,7 °C 17,7 km/h (3 Bft)
15.04.2024 12:19 21,9 °C 11,3 °C 53 % 82 % 1009,5 hPa 0,0 l/m² 15,6 km/h (3 Bft) S 182 ° 1 min 213 W/m² 8,3 °C 6,5 °C 20,9 km/h (4 Bft)
15.04.2024 12:20 21,9 °C 11,3 °C 53 % 82 % 1009,4 hPa 0,0 l/m² 9,7 km/h (2 Bft) S 180 ° 1 min 253 W/m² 8,3 °C 9,2 °C 14,5 km/h (3 Bft)
15.04.2024 12:22 21,9 °C 11,3 °C 53 % 82 % 1009,4 hPa 0,0 l/m² 13,6 km/h (3 Bft) S 179 ° 2 min 211 W/m² 8,3 °C 7,3 °C 19,3 km/h (3 Bft)
15.04.2024 12:23 21,9 °C 11,3 °C 53 % 82 % 1009,4 hPa 0,0 l/m² 15,4 km/h (3 Bft) S 179 ° 1 min 186 W/m² 8,3 °C 6,6 °C 19,3 km/h (3 Bft)
15.04.2024 12:24 21,9 °C 11,3 °C 53 % 82 % 1009,4 hPa 0,0 l/m² 13,6 km/h (3 Bft) S 169 ° 1 min 179 W/m² 8,3 °C 7,3 °C 24,1 km/h (4 Bft)
15.04.2024 12:25 21,8 °C 11,2 °C 53 % 82 % 1009,3 hPa 0,0 l/m² 13,5 km/h (3 Bft) S-SO 163 ° 1 min 211 W/m² 8,2 °C 7,2 °C 17,7 km/h (3 Bft)
15.04.2024 12:26 21,8 °C 11,2 °C 53 % 82 % 1009,4 hPa 0,0 l/m² 8,9 km/h (2 Bft) S 174 ° 1 min 209 W/m² 8,2 °C 9,6 °C 12,9 km/h (3 Bft)
15.04.2024 12:27 21,8 °C 11,2 °C 53 % 83 % 1009,3 hPa 0,0 l/m² 7,5 km/h (2 Bft) S 169 ° 1 min 200 W/m² 8,4 °C 10,4 °C 9,7 km/h (2 Bft)
15.04.2024 12:28 21,8 °C 11,2 °C 53 % 83 % 1009,2 hPa 0,0 l/m² 11,9 km/h (2 Bft) S-SO 156 ° 1 min 186 W/m² 8,4 °C 7,9 °C 19,3 km/h (3 Bft)
15.04.2024 12:29 21,8 °C 11,2 °C 53 % 82 % 1009,1 hPa 0,0 l/m² 10,4 km/h (2 Bft) S-SO 160 ° 1 min 176 W/m² 8,2 °C 8,7 °C 14,5 km/h (3 Bft)
15.04.2024 12:30 21,8 °C 11,2 °C 53 % 82 % 1009,1 hPa 0,0 l/m² 9,0 km/h (2 Bft) S 180 ° 1 min 156 W/m² 8,2 °C 9,5 °C 14,5 km/h (3 Bft)
15.04.2024 12:32 21,8 °C 11,2 °C 53 % 83 % 1009,2 hPa 0,0 l/m² 9,9 km/h (2 Bft) S 189 ° 2 min 111 W/m² 8,4 °C 9,0 °C 14,5 km/h (3 Bft)
15.04.2024 12:34 21,8 °C 11,1 °C 53 % 83 % 1009,1 hPa 0,0 l/m² 11,2 km/h (2 Bft) S-SO 165 ° 2 min 111 W/m² 8,3 °C 8,2 °C 19,3 km/h (3 Bft)
15.04.2024 12:35 21,8 °C 11,1 °C 53 % 83 % 1009,1 hPa 0,0 l/m² 9,1 km/h (2 Bft) S 173 ° 1 min 156 W/m² 8,3 °C 9,3 °C 14,5 km/h (3 Bft)
15.04.2024 12:36 21,8 °C 11,1 °C 53 % 83 % 1008,9 hPa 0,0 l/m² 7,4 km/h (2 Bft) S-SO 159 ° 1 min 200 W/m² 8,3 °C 10,4 °C 9,7 km/h (2 Bft)
15.04.2024 12:37 21,8 °C 11,2 °C 53 % 83 % 1008,9 hPa 0,0 l/m² 9,8 km/h (2 Bft) S-SW 202 ° 1 min 288 W/m² 8,4 °C 9,0 °C 14,5 km/h (3 Bft)
15.04.2024 12:38 21,8 °C 11,2 °C 53 % 83 % 1008,8 hPa 0,0 l/m² 10,5 km/h (2 Bft) S 182 ° 1 min 350 W/m² 8,4 °C 8,7 °C 14,5 km/h (3 Bft)
15.04.2024 12:39 21,8 °C 11,3 °C 53 % 83 % 1008,8 hPa 0,0 l/m² 10,3 km/h (2 Bft) S-SO 157 ° 1 min 436 W/m² 8,5 °C 8,9 °C 12,9 km/h (3 Bft)
15.04.2024 12:41 21,8 °C 11,6 °C 53 % 83 % 1008,8 hPa 0,0 l/m² 8,0 km/h (2 Bft) S 169 ° 2 min 487 W/m² 8,8 °C 10,5 °C 11,3 km/h (2 Bft)
15.04.2024 12:43 21,8 °C 12,0 °C 53 % 83 % 1008,6 hPa 0,0 l/m² 8,4 km/h (2 Bft) S 179 ° 2 min 454 W/m² 9,2 °C 10,7 °C 11,3 km/h (2 Bft)
15.04.2024 12:44 21,8 °C 12,1 °C 53 % 81 % 1008,7 hPa 0,0 l/m² 6,9 km/h (2 Bft) SO 144 ° 1 min 476 W/m² 8,9 °C 11,8 °C 12,9 km/h (3 Bft)
15.04.2024 12:46 21,8 °C 12,2 °C 53 % 81 % 1008,6 hPa 0,0 l/m² 9,9 km/h (2 Bft) SO 134 ° 2 min 468 W/m² 9,0 °C 10,1 °C 14,5 km/h (3 Bft)
15.04.2024 12:47 21,8 °C 12,2 °C 53 % 81 % 1008,5 hPa 0,0 l/m² 9,7 km/h (2 Bft) SO 134 ° 1 min 468 W/m² 9,0 °C 10,2 °C 14,5 km/h (3 Bft)
15.04.2024 12:48 21,8 °C 12,3 °C 53 % 81 % 1008,4 hPa 0,0 l/m² 8,0 km/h (2 Bft) O-SO 123 ° 1 min 668 W/m² 9,1 °C 11,3 °C 12,9 km/h (3 Bft)
15.04.2024 12:49 21,8 °C 12,5 °C 53 % 83 % 1008,5 hPa 0,0 l/m² 10,3 km/h (2 Bft) O-SO 107 ° 1 min 668 W/m² 9,7 °C 10,2 °C 14,5 km/h (3 Bft)
15.04.2024 12:50 21,8 °C 12,7 °C 53 % 81 % 1008,4 hPa 0,0 l/m² 8,6 km/h (2 Bft) SO 126 ° 1 min 668 W/m² 9,5 °C 11,3 °C 12,9 km/h (3 Bft)
15.04.2024 12:52 21,9 °C 12,8 °C 53 % 81 % 1008,4 hPa 0,0 l/m² 8,5 km/h (2 Bft) SO 144 ° 2 min 668 W/m² 9,6 °C 11,5 °C 12,9 km/h (3 Bft)
15.04.2024 12:54 21,9 °C 12,9 °C 53 % 80 % 1008,3 hPa 0,0 l/m² 9,2 km/h (2 Bft) SO 136 ° 2 min 540 W/m² 9,5 °C 11,2 °C 14,5 km/h (3 Bft)
15.04.2024 12:55 21,9 °C 13,0 °C 53 % 80 % 1008,2 hPa 0,0 l/m² 8,6 km/h (2 Bft) S-SO 147 ° 1 min 494 W/m² 9,6 °C 11,7 °C 11,3 km/h (2 Bft)
15.04.2024 12:56 21,9 °C 13,2 °C 53 % 81 % 1008,3 hPa 0,0 l/m² 7,9 km/h (2 Bft) SO 136 ° 1 min 990 W/m² 10,0 °C 12,3 °C 11,3 km/h (2 Bft)
15.04.2024 12:57 21,9 °C 13,2 °C 53 % 81 % 1008,2 hPa 0,0 l/m² 7,6 km/h (2 Bft) SO 132 ° 1 min 990 W/m² 10,0 °C 12,5 °C 9,7 km/h (2 Bft)
15.04.2024 12:58 21,9 °C 13,3 °C 53 % 80 % 1008,2 hPa 0,0 l/m² 7,8 km/h (2 Bft) SO 129 ° 1 min 990 W/m² 9,9 °C 12,4 °C 9,7 km/h (2 Bft)
15.04.2024 12:59 21,9 °C 13,3 °C 53 % 79 % 1008,1 hPa 0,0 l/m² 4,9 km/h (1 Bft) SO 145 ° 1 min 886 W/m² 9,7 °C 13,3 °C 8,0 km/h (2 Bft)
15.04.2024 13:00 21,9 °C 13,3 °C 53 % 79 % 1008,0 hPa 0,0 l/m² 5,3 km/h (1 Bft) O-SO 119 ° 1 min 870 W/m² 9,7 °C 13,3 °C 9,7 km/h (2 Bft)
15.04.2024 13:02 22,0 °C 13,4 °C 53 % 78 % 1008,1 hPa 0,0 l/m² 6,6 km/h (2 Bft) SO 126 ° 2 min 844 W/m² 9,6 °C 13,3 °C 14,5 km/h (3 Bft)
15.04.2024 13:04 22,0 °C 13,7 °C 53 % 79 % 1007,8 hPa 0,0 l/m² 9,0 km/h (2 Bft) SO 132 ° 2 min 879 W/m² 10,1 °C 12,2 °C 14,5 km/h (3 Bft)
15.04.2024 13:05 22,0 °C 13,7 °C 53 % 78 % 1007,8 hPa 0,0 l/m² 5,7 km/h (2 Bft) SO 138 ° 1 min 241 W/m² 9,9 °C 13,7 °C 8,0 km/h (2 Bft)
15.04.2024 13:06 22,1 °C 13,6 °C 53 % 78 % 1007,9 hPa 0,0 l/m² 9,0 km/h (2 Bft) SO 133 ° 1 min 241 W/m² 9,8 °C 12,1 °C 12,9 km/h (3 Bft)
15.04.2024 13:07 22,1 °C 13,6 °C 53 % 80 % 1007,8 hPa 0,0 l/m² 9,4 km/h (2 Bft) SO 140 ° 1 min 304 W/m² 10,2 °C 11,9 °C 14,5 km/h (3 Bft)
15.04.2024 13:08 22,1 °C 13,4 °C 53 % 78 % 1007,8 hPa 0,0 l/m² 7,8 km/h (2 Bft) S 172 ° 1 min 304 W/m² 9,6 °C 12,5 °C 11,3 km/h (2 Bft)
15.04.2024 13:09 22,1 °C 13,3 °C 53 % 80 % 1007,8 hPa 0,0 l/m² 8,8 km/h (2 Bft) S-SO 153 ° 1 min 397 W/m² 9,9 °C 11,9 °C 11,3 km/h (2 Bft)
15.04.2024 13:10 22,1 °C 13,2 °C 53 % 78 % 1007,7 hPa 0,0 l/m² 7,6 km/h (2 Bft) S 176 ° 1 min 366 W/m² 9,4 °C 12,5 °C 9,7 km/h (2 Bft)
15.04.2024 13:12 22,1 °C 13,0 °C 53 % 79 % 1007,6 hPa 0,0 l/m² 5,8 km/h (2 Bft) O-SO 112 ° 2 min 366 W/m² 9,4 °C 13,0 °C 9,7 km/h (2 Bft)
15.04.2024 13:13 22,1 °C 12,9 °C 53 % 79 % 1007,6 hPa 0,0 l/m² 5,0 km/h (1 Bft) SO 124 ° 1 min 366 W/m² 9,3 °C 12,9 °C 6,4 km/h (2 Bft)
15.04.2024 13:14 22,1 °C 12,9 °C 53 % 80 % 1007,6 hPa 0,0 l/m² 6,5 km/h (2 Bft) O-SO 103 ° 1 min 366 W/m² 9,5 °C 12,9 °C 9,7 km/h (2 Bft)
15.04.2024 13:15 22,1 °C 12,8 °C 53 % 78 % 1007,4 hPa 0,0 l/m² 7,3 km/h (2 Bft) O-SO 115 ° 1 min 220 W/m² 9,1 °C 12,2 °C 11,3 km/h (2 Bft)
15.04.2024 13:16 22,1 °C 12,8 °C 53 % 80 % 1007,4 hPa 0,0 l/m² 5,0 km/h (1 Bft) O 86 ° 1 min 220 W/m² 9,4 °C 12,8 °C 9,7 km/h (2 Bft)
15.04.2024 13:17 22,1 °C 13,0 °C 53 % 81 % 1007,4 hPa 0,0 l/m² 7,0 km/h (2 Bft) SO 137 ° 1 min 220 W/m² 9,8 °C 12,6 °C 9,7 km/h (2 Bft)
15.04.2024 13:18 22,1 °C 13,2 °C 53 % 81 % 1007,3 hPa 0,0 l/m² 6,5 km/h (2 Bft) S-SO 161 ° 1 min 907 W/m² 10,0 °C 13,2 °C 11,3 km/h (2 Bft)
15.04.2024 13:19 22,1 °C 13,4 °C 53 % 81 % 1007,3 hPa 0,0 l/m² 8,6 km/h (2 Bft) SO 136 ° 1 min 969 W/m² 10,2 °C 12,1 °C 12,9 km/h (3 Bft)
15.04.2024 13:20 22,2 °C 13,6 °C 53 % 81 % 1007,3 hPa 0,0 l/m² 12,0 km/h (2 Bft) SO 138 ° 1 min 969 W/m² 10,4 °C 10,7 °C 14,5 km/h (3 Bft)
15.04.2024 13:22 22,2 °C 13,4 °C 53 % 78 % 1007,1 hPa 0,0 l/m² 12,0 km/h (2 Bft) O-SO 116 ° 2 min 969 W/m² 9,6 °C 10,4 °C 14,5 km/h (3 Bft)
15.04.2024 13:24 22,2 °C 13,2 °C 53 % 79 % 1007,0 hPa 0,0 l/m² 6,4 km/h (2 Bft) O-NO 76 ° 2 min 269 W/m² 9,6 °C 13,2 °C 12,9 km/h (3 Bft)
15.04.2024 13:25 22,2 °C 13,1 °C 53 % 79 % 1007,0 hPa 0,0 l/m² 9,7 km/h (2 Bft) SO 126 ° 1 min 290 W/m² 9,5 °C 11,2 °C 12,9 km/h (3 Bft)
15.04.2024 13:26 22,2 °C 13,1 °C 53 % 79 % 1006,9 hPa 0,0 l/m² 8,6 km/h (2 Bft) SO 132 ° 1 min 309 W/m² 9,5 °C 11,8 °C 12,9 km/h (3 Bft)
15.04.2024 13:27 22,2 °C 13,0 °C 53 % 79 % 1007,0 hPa 0,0 l/m² 9,6 km/h (2 Bft) O-SO 115 ° 1 min 346 W/m² 9,4 °C 11,1 °C 11,3 km/h (2 Bft)
15.04.2024 13:28 22,2 °C 12,9 °C 53 % 79 % 1007,0 hPa 0,0 l/m² 9,3 km/h (2 Bft) O-SO 113 ° 1 min 364 W/m² 9,3 °C 11,2 °C 11,3 km/h (2 Bft)
15.04.2024 13:29 22,2 °C 12,9 °C 53 % 80 % 1006,9 hPa 0,0 l/m² 7,4 km/h (2 Bft) SO 143 ° 1 min 364 W/m² 9,5 °C 12,3 °C 11,3 km/h (2 Bft)
15.04.2024 13:30 22,2 °C 13,0 °C 53 % 80 % 1006,9 hPa 0,0 l/m² 5,8 km/h (2 Bft) SO 144 ° 1 min 327 W/m² 9,6 °C 13,0 °C 9,7 km/h (2 Bft)
15.04.2024 13:32 22,2 °C 13,1 °C 53 % 76 % 1006,8 hPa 0,0 l/m² 5,1 km/h (1 Bft) SO 143 ° 2 min 346 W/m² 9,0 °C 13,1 °C 9,7 km/h (2 Bft)
15.04.2024 13:34 22,2 °C 13,4 °C 53 % 79 % 1006,8 hPa 0,0 l/m² 6,0 km/h (2 Bft) O-SO 113 ° 2 min 346 W/m² 9,8 °C 13,4 °C 11,3 km/h (2 Bft)
15.04.2024 13:35 22,2 °C 13,7 °C 53 % 80 % 1006,8 hPa 0,0 l/m² 8,4 km/h (2 Bft) O-SO 103 ° 1 min 346 W/m² 10,3 °C 12,5 °C 11,3 km/h (2 Bft)
15.04.2024 13:36 22,2 °C 13,6 °C 53 % 78 % 1006,8 hPa 0,0 l/m² 5,1 km/h (1 Bft) O-SO 119 ° 1 min 360 W/m² 9,8 °C 13,6 °C 6,4 km/h (2 Bft)
15.04.2024 13:37 22,2 °C 13,6 °C 53 % 78 % 1006,7 hPa 0,0 l/m² 3,6 km/h (1 Bft) O-SO 118 ° 1 min 360 W/m² 9,8 °C 13,6 °C 4,8 km/h (1 Bft)
15.04.2024 13:38 22,2 °C 13,5 °C 53 % 76 % 1006,6 hPa 0,0 l/m² 3,9 km/h (1 Bft) O 90 ° 1 min 360 W/m² 9,4 °C 13,5 °C 4,8 km/h (1 Bft)
15.04.2024 13:39 22,2 °C 13,7 °C 53 % 80 % 1006,6 hPa 0,0 l/m² 2,0 km/h (1 Bft) O 90 ° 1 min 360 W/m² 10,3 °C 13,7 °C 3,2 km/h (1 Bft)
15.04.2024 13:40 22,2 °C 13,9 °C 53 % 80 % 1006,6 hPa 0,0 l/m² 3,3 km/h (1 Bft) N-NO 33 ° 1 min 360 W/m² 10,5 °C 13,9 °C 8,0 km/h (2 Bft)
15.04.2024 13:42 22,2 °C 13,8 °C 53 % 76 % 1006,5 hPa 0,0 l/m² 2,7 km/h (1 Bft) NO 50 ° 2 min 294 W/m² 9,6 °C 13,8 °C 6,4 km/h (2 Bft)
15.04.2024 13:44 22,2 °C 13,8 °C 53 % 76 % 1006,6 hPa 0,0 l/m² 1,4 km/h (1 Bft) O-NO 69 ° 2 min 362 W/m² 9,6 °C 13,8 °C 4,8 km/h (1 Bft)
15.04.2024 13:45 22,2 °C 13,8 °C 53 % 77 % 1006,6 hPa 0,0 l/m² 0,5 km/h (0 Bft) O-NO 69 ° 1 min 362 W/m² 9,8 °C 13,8 °C 1,6 km/h (1 Bft)
15.04.2024 13:46 22,2 °C 14,0 °C 53 % 78 % 1006,5 hPa 0,0 l/m² 3,9 km/h (1 Bft) NO 56 ° 1 min 362 W/m² 10,2 °C 14,0 °C 6,4 km/h (2 Bft)
15.04.2024 13:47 22,2 °C 14,3 °C 53 % 76 % 1006,5 hPa 0,0 l/m² 1,5 km/h (1 Bft) NO 56 ° 1 min 362 W/m² 10,1 °C 14,3 °C 3,2 km/h (1 Bft)
15.04.2024 13:48 22,2 °C 14,5 °C 53 % 78 % 1006,4 hPa 0,0 l/m² 5,6 km/h (2 Bft) O 87 ° 1 min 362 W/m² 10,7 °C 14,5 °C 9,7 km/h (2 Bft)
15.04.2024 13:49 22,2 °C 14,7 °C 53 % 77 % 1006,4 hPa 0,0 l/m² 8,7 km/h (2 Bft) O 81 ° 1 min 911 W/m² 10,7 °C 13,4 °C 12,9 km/h (3 Bft)
15.04.2024 13:51 22,2 °C 14,9 °C 53 % 76 % 1006,3 hPa 0,0 l/m² 6,1 km/h (2 Bft) O-SO 104 ° 2 min 893 W/m² 10,7 °C 14,9 °C 9,7 km/h (2 Bft)
15.04.2024 13:53 22,2 °C 14,8 °C 53 % 73 % 1006,3 hPa 0,0 l/m² 8,0 km/h (2 Bft) W-SW 244 ° 2 min 195 W/m² 10,0 °C 13,9 °C 11,3 km/h (2 Bft)
15.04.2024 13:54 22,2 °C 14,5 °C 53 % 74 % 1006,3 hPa 0,0 l/m² 5,7 km/h (2 Bft) SW 232 ° 1 min 195 W/m² 9,9 °C 14,5 °C 12,9 km/h (3 Bft)
15.04.2024 13:55 22,2 °C 14,3 °C 53 % 68 % 1006,3 hPa 0,0 l/m² 0,7 km/h (0 Bft) SW 232 ° 1 min 195 W/m² 8,5 °C 14,3 °C 3,2 km/h (1 Bft)
15.04.2024 13:56 22,2 °C 14,2 °C 53 % 70 % 1006,2 hPa 0,0 l/m² 6,5 km/h (2 Bft) SW 230 ° 1 min 236 W/m² 8,8 °C 14,2 °C 9,7 km/h (2 Bft)
15.04.2024 13:57 22,2 °C 14,2 °C 53 % 74 % 1006,1 hPa 0,0 l/m² 6,9 km/h (2 Bft) SW 214 ° 1 min 243 W/m² 9,6 °C 13,9 °C 9,7 km/h (2 Bft)
15.04.2024 13:58 22,2 °C 14,1 °C 53 % 74 % 1006,1 hPa 0,0 l/m² 6,8 km/h (2 Bft) S-SW 192 ° 1 min 239 W/m² 9,5 °C 13,9 °C 8,0 km/h (2 Bft)
15.04.2024 13:59 22,2 °C 13,9 °C 53 % 73 % 1006,2 hPa 0,0 l/m² 11,1 km/h (2 Bft) S-SW 192 ° 1 min 209 W/m² 9,1 °C 11,4 °C 16,1 km/h (3 Bft)
15.04.2024 14:01 22,2 °C 13,8 °C 52 % 73 % 1006,1 hPa 0,0 l/m² 9,8 km/h (2 Bft) S-SW 210 ° 2 min 192 W/m² 9,0 °C 11,9 °C 14,5 km/h (3 Bft)
15.04.2024 14:03 22,2 °C 13,6 °C 53 % 75 % 1006,1 hPa 0,0 l/m² 7,0 km/h (2 Bft) S-SW 207 ° 2 min 199 W/m² 9,3 °C 13,2 °C 8,0 km/h (2 Bft)
15.04.2024 14:04 22,2 °C 13,6 °C 53 % 72 % 1006,0 hPa 0,0 l/m² 7,5 km/h (2 Bft) S-SW 194 ° 1 min 211 W/m² 8,6 °C 12,9 °C 9,7 km/h (2 Bft)
15.04.2024 14:05 22,2 °C 13,5 °C 53 % 74 % 1006,0 hPa 0,0 l/m² 7,4 km/h (2 Bft) S 175 ° 1 min 239 W/m² 9,0 °C 12,9 °C 9,7 km/h (2 Bft)
15.04.2024 14:06 22,2 °C 13,5 °C 53 % 74 % 1006,0 hPa 0,0 l/m² 5,4 km/h (2 Bft) S 178 ° 1 min 248 W/m² 9,0 °C 13,5 °C 6,4 km/h (2 Bft)
15.04.2024 14:07 22,2 °C 13,6 °C 53 % 75 % 1006,0 hPa 0,0 l/m² 9,1 km/h (2 Bft) S 182 ° 1 min 262 W/m² 9,3 °C 12,0 °C 17,7 km/h (3 Bft)
15.04.2024 14:08 22,1 °C 13,6 °C 53 % 75 % 1006,0 hPa 0,0 l/m² 12,6 km/h (3 Bft) S 179 ° 1 min 279 W/m² 9,3 °C 10,4 °C 16,1 km/h (3 Bft)
15.04.2024 14:09 22,2 °C 13,6 °C 53 % 74 % 1005,9 hPa 0,0 l/m² 11,1 km/h (2 Bft) S-SW 194 ° 1 min 274 W/m² 9,1 °C 11,1 °C 16,1 km/h (3 Bft)
15.04.2024 14:10 22,2 °C 13,6 °C 53 % 74 % 1006,0 hPa 0,0 l/m² 6,8 km/h (2 Bft) S-SW 203 ° 1 min 251 W/m² 9,1 °C 13,4 °C 9,7 km/h (2 Bft)
15.04.2024 14:12 22,1 °C 13,9 °C 53 % 75 % 1005,9 hPa 0,0 l/m² 8,3 km/h (2 Bft) S 176 ° 2 min 907 W/m² 9,5 °C 12,8 °C 12,9 km/h (3 Bft)
15.04.2024 14:14 22,1 °C 14,5 °C 53 % 73 % 1005,8 hPa 0,0 l/m² 13,1 km/h (3 Bft) S 172 ° 2 min 884 W/m² 9,7 °C 11,3 °C 17,7 km/h (3 Bft)
15.04.2024 14:15 22,2 °C 14,7 °C 53 % 73 % 1005,7 hPa 0,0 l/m² 8,4 km/h (2 Bft) S-SO 165 ° 1 min 884 W/m² 9,9 °C 13,6 °C 11,3 km/h (2 Bft)
15.04.2024 14:16 22,2 °C 14,8 °C 53 % 72 % 1005,7 hPa 0,0 l/m² 13,7 km/h (3 Bft) S 175 ° 1 min 884 W/m² 9,8 °C 11,4 °C 19,3 km/h (3 Bft)
15.04.2024 14:17 22,2 °C 14,7 °C 53 % 70 % 1005,6 hPa 0,0 l/m² 14,8 km/h (3 Bft) S-SW 198 ° 1 min 239 W/m² 9,3 °C 10,9 °C 17,7 km/h (3 Bft)
15.04.2024 14:18 22,2 °C 14,7 °C 53 % 72 % 1005,5 hPa 0,0 l/m² 16,2 km/h (3 Bft) S 182 ° 1 min 239 W/m² 9,7 °C 10,4 °C 20,9 km/h (4 Bft)
15.04.2024 14:19 22,2 °C 14,6 °C 53 % 71 % 1005,5 hPa 0,0 l/m² 13,7 km/h (3 Bft) S 183 ° 1 min 218 W/m² 9,4 °C 11,2 °C 17,7 km/h (3 Bft)
15.04.2024 14:20 22,2 °C 14,6 °C 53 % 70 % 1005,6 hPa 0,0 l/m² 11,7 km/h (2 Bft) S 190 ° 1 min 190 W/m² 9,2 °C 11,9 °C 16,1 km/h (3 Bft)
15.04.2024 14:22 22,2 °C 14,3 °C 53 % 70 % 1005,6 hPa 0,0 l/m² 15,1 km/h (3 Bft) S 184 ° 2 min 216 W/m² 8,9 °C 10,3 °C 19,3 km/h (3 Bft)
15.04.2024 14:24 22,2 °C 13,9 °C 53 % 72 % 1005,6 hPa 0,0 l/m² 15,6 km/h (3 Bft) S 182 ° 2 min 232 W/m² 8,9 °C 9,7 °C 22,5 km/h (4 Bft)
15.04.2024 14:25 22,2 °C 13,8 °C 53 % 73 % 1005,6 hPa 0,0 l/m² 12,1 km/h (2 Bft) S 180 ° 1 min 232 W/m² 9,0 °C 10,8 °C 16,1 km/h (3 Bft)
15.04.2024 14:26 22,2 °C 13,7 °C 53 % 73 % 1005,4 hPa 0,0 l/m² 16,9 km/h (3 Bft) S 175 ° 1 min 246 W/m² 8,9 °C 9,0 °C 24,1 km/h (4 Bft)
15.04.2024 14:27 22,2 °C 13,7 °C 53 % 73 % 1005,4 hPa 0,0 l/m² 12,3 km/h (2 Bft) S 172 ° 1 min 246 W/m² 8,9 °C 10,6 °C 17,7 km/h (3 Bft)
15.04.2024 14:28 22,2 °C 13,9 °C 53 % 73 % 1005,4 hPa 0,0 l/m² 9,1 km/h (2 Bft) S 187 ° 1 min 844 W/m² 9,1 °C 12,4 °C 14,5 km/h (3 Bft)
15.04.2024 14:29 22,2 °C 14,3 °C 53 % 74 % 1005,3 hPa 0,0 l/m² 8,9 km/h (2 Bft) S 180 ° 1 min 816 W/m² 9,7 °C 12,9 °C 12,9 km/h (3 Bft)
15.04.2024 14:30 22,2 °C 14,6 °C 53 % 74 % 1005,4 hPa 0,0 l/m² 12,8 km/h (3 Bft) S 171 ° 1 min 807 W/m² 10,0 °C 11,5 °C 17,7 km/h (3 Bft)
15.04.2024 14:32 22,2 °C 15,1 °C 53 % 72 % 1005,2 hPa 0,0 l/m² 10,2 km/h (2 Bft) SW 217 ° 2 min 786 W/m² 10,1 °C 13,1 °C 16,1 km/h (3 Bft)
15.04.2024 14:33 22,2 °C 15,2 °C 53 % 72 % 1005,2 hPa 0,0 l/m² 12,0 km/h (2 Bft) S-SW 192 ° 1 min 782 W/m² 10,2 °C 12,5 °C 17,7 km/h (3 Bft)
15.04.2024 14:34 22,2 °C 15,3 °C 52 % 69 % 1005,2 hPa 0,0 l/m² 8,4 km/h (2 Bft) S-SW 205 ° 1 min 786 W/m² 9,6 °C 14,2 °C 12,9 km/h (3 Bft)
15.04.2024 14:35 22,2 °C 15,3 °C 52 % 69 % 1005,1 hPa 0,0 l/m² 10,6 km/h (2 Bft) S-SW 207 ° 1 min 789 W/m² 9,6 °C 13,2 °C 16,1 km/h (3 Bft)
15.04.2024 14:36 22,2 °C 15,3 °C 52 % 69 % 1005,2 hPa 0,0 l/m² 8,3 km/h (2 Bft) SW 228 ° 1 min 800 W/m² 9,6 °C 14,3 °C 12,9 km/h (3 Bft)
15.04.2024 14:37 22,2 °C 15,3 °C 52 % 67 % 1005,1 hPa 0,0 l/m² 3,1 km/h (1 Bft) SW 222 ° 1 min 810 W/m² 9,2 °C 15,3 °C 4,8 km/h (1 Bft)
15.04.2024 14:38 22,2 °C 15,4 °C 52 % 68 % 1005,0 hPa 0,0 l/m² 7,1 km/h (2 Bft) S-SO 157 ° 1 min 824 W/m² 9,5 °C 15,0 °C 12,9 km/h (3 Bft)
15.04.2024 14:39 22,3 °C 15,3 °C 52 % 65 % 1005,0 hPa 0,0 l/m² 2,7 km/h (1 Bft) S 182 ° 1 min 824 W/m² 8,8 °C 15,3 °C 6,4 km/h (2 Bft)
15.04.2024 14:41 22,3 °C 15,4 °C 52 % 70 % 1004,9 hPa 0,0 l/m² 9,2 km/h (2 Bft) S-SW 212 ° 2 min 793 W/m² 10,0 °C 13,9 °C 14,5 km/h (3 Bft)
15.04.2024 14:43 22,3 °C 15,4 °C 52 % 71 % 1004,9 hPa 0,0 l/m² 9,6 km/h (2 Bft) S-SW 196 ° 2 min 195 W/m² 10,2 °C 13,7 °C 14,5 km/h (3 Bft)
15.04.2024 14:44 22,3 °C 15,3 °C 52 % 70 % 1004,8 hPa 0,0 l/m² 10,4 km/h (2 Bft) S-SO 165 ° 1 min 216 W/m² 9,9 °C 13,3 °C 16,1 km/h (3 Bft)
15.04.2024 14:45 22,3 °C 15,1 °C 52 % 69 % 1004,7 hPa 0,0 l/m² 12,3 km/h (2 Bft) S-SO 164 ° 1 min 253 W/m² 9,5 °C 12,3 °C 16,1 km/h (3 Bft)
15.04.2024 14:46 22,3 °C 14,9 °C 52 % 69 % 1004,7 hPa 0,0 l/m² 7,3 km/h (2 Bft) S 187 ° 1 min 272 W/m² 9,3 °C 14,4 °C 11,3 km/h (2 Bft)
15.04.2024 14:47 22,3 °C 14,8 °C 52 % 73 % 1004,6 hPa 0,0 l/m² 6,6 km/h (2 Bft) SW 219 ° 1 min 272 W/m² 10,0 °C 14,7 °C 9,7 km/h (2 Bft)
15.04.2024 14:48 22,3 °C 14,9 °C 52 % 72 % 1004,6 hPa 0,0 l/m² 9,3 km/h (2 Bft) W-SW 248 ° 1 min 272 W/m² 9,9 °C 13,3 °C 12,9 km/h (3 Bft)
15.04.2024 14:49 22,3 °C 15,1 °C 52 % 69 % 1004,6 hPa 0,0 l/m² 10,7 km/h (2 Bft) W-SW 238 ° 1 min 272 W/m² 9,5 °C 12,9 °C 16,1 km/h (3 Bft)
15.04.2024 14:51 22,3 °C 15,1 °C 52 % 68 % 1004,6 hPa 0,0 l/m² 11,1 km/h (2 Bft) SW 227 ° 2 min 496 W/m² 9,2 °C 12,8 °C 17,7 km/h (3 Bft)
15.04.2024 14:53 22,3 °C 15,1 °C 52 % 69 % 1004,6 hPa 0,0 l/m² 10,3 km/h (2 Bft) S-SW 213 ° 2 min 396 W/m² 9,5 °C 13,1 °C 14,5 km/h (3 Bft)
15.04.2024 14:54 22,3 °C 15,0 °C 52 % 69 % 1004,5 hPa 0,0 l/m² 9,8 km/h (2 Bft) S-SW 209 ° 1 min 519 W/m² 9,4 °C 13,2 °C 12,9 km/h (3 Bft)
15.04.2024 14:55 22,3 °C 14,9 °C 52 % 69 % 1004,5 hPa 0,0 l/m² 10,0 km/h (2 Bft) S-SW 213 ° 1 min 429 W/m² 9,3 °C 13,0 °C 12,9 km/h (3 Bft)
15.04.2024 14:56 22,3 °C 14,9 °C 52 % 69 % 1004,5 hPa 0,0 l/m² 8,9 km/h (2 Bft) S-SW 212 ° 1 min 487 W/m² 9,3 °C 13,5 °C 11,3 km/h (2 Bft)
15.04.2024 14:57 22,3 °C 14,9 °C 52 % 71 % 1004,5 hPa 0,0 l/m² 9,5 km/h (2 Bft) SW 219 ° 1 min 457 W/m² 9,7 °C 13,2 °C 12,9 km/h (3 Bft)
15.04.2024 14:58 22,3 °C 15,0 °C 53 % 70 % 1004,5 hPa 0,0 l/m² 9,0 km/h (2 Bft) SW 224 ° 1 min 322 W/m² 9,6 °C 13,6 °C 12,9 km/h (3 Bft)
15.04.2024 14:59 22,3 °C 14,9 °C 53 % 68 % 1004,5 hPa 0,0 l/m² 8,0 km/h (2 Bft) SW 218 ° 1 min 311 W/m² 9,0 °C 14,0 °C 11,3 km/h (2 Bft)
15.04.2024 15:01 22,3 °C 14,9 °C 53 % 70 % 1004,4 hPa 0,0 l/m² 10,7 km/h (2 Bft) SW 215 ° 2 min 390 W/m² 9,5 °C 12,7 °C 14,5 km/h (3 Bft)
15.04.2024 15:02 22,3 °C 14,9 °C 53 % 71 % 1004,4 hPa 0,0 l/m² 11,5 km/h (2 Bft) S 176 ° 1 min 410 W/m² 9,7 °C 12,4 °C 17,7 km/h (3 Bft)
15.04.2024 15:03 22,3 °C 15,1 °C 53 % 72 % 1004,4 hPa 0,0 l/m² 12,4 km/h (2 Bft) SW 223 ° 1 min 410 W/m² 10,1 °C 12,2 °C 19,3 km/h (3 Bft)
15.04.2024 15:04 22,3 °C 15,2 °C 53 % 68 % 1004,4 hPa 0,0 l/m² 17,2 km/h (3 Bft) S 189 ° 1 min 410 W/m² 9,3 °C 10,8 °C 20,9 km/h (4 Bft)
15.04.2024 15:05 22,3 °C 15,2 °C 53 % 67 % 1004,4 hPa 0,0 l/m² 18,9 km/h (3 Bft) SW 216 ° 1 min 446 W/m² 9,1 °C 10,3 °C 25,7 km/h (4 Bft)
15.04.2024 15:06 22,3 °C 15,2 °C 53 % 66 % 1004,3 hPa 0,0 l/m² 13,9 km/h (3 Bft) S-SW 196 ° 1 min 446 W/m² 8,9 °C 11,8 °C 17,7 km/h (3 Bft)
15.04.2024 15:07 22,3 °C 15,3 °C 53 % 67 % 1004,4 hPa 0,0 l/m² 8,9 km/h (2 Bft) S-SW 198 ° 1 min 446 W/m² 9,2 °C 14,0 °C 12,9 km/h (3 Bft)
15.04.2024 15:08 22,3 °C 15,5 °C 53 % 68 % 1004,3 hPa 0,0 l/m² 10,0 km/h (2 Bft) W-SW 247 ° 1 min 446 W/m² 9,6 °C 13,7 °C 16,1 km/h (3 Bft)
15.04.2024 15:09 22,3 °C 15,8 °C 53 % 69 % 1004,3 hPa 0,0 l/m² 11,2 km/h (2 Bft) S-SW 204 ° 1 min 446 W/m² 10,1 °C 13,5 °C 17,7 km/h (3 Bft)
15.04.2024 15:10 22,3 °C 16,1 °C 53 % 66 % 1004,2 hPa 0,0 l/m² 13,5 km/h (3 Bft) SW 221 ° 1 min 923 W/m² 9,7 °C 13,0 °C 20,9 km/h (4 Bft)
15.04.2024 15:11 22,3 °C 16,2 °C 53 % 64 % 1004,2 hPa 0,0 l/m² 16,6 km/h (3 Bft) S-SW 213 ° 1 min 923 W/m² 9,4 °C 12,2 °C 22,5 km/h (4 Bft)
15.04.2024 15:12 22,3 °C 16,2 °C 53 % 64 % 1004,2 hPa 0,0 l/m² 14,0 km/h (3 Bft) SW 217 ° 1 min 923 W/m² 9,4 °C 13,0 °C 17,7 km/h (3 Bft)
15.04.2024 15:13 22,3 °C 16,1 °C 53 % 63 % 1004,1 hPa 0,0 l/m² 15,6 km/h (3 Bft) SW 217 ° 1 min 923 W/m² 9,1 °C 12,3 °C 20,9 km/h (4 Bft)
15.04.2024 15:14 22,3 °C 16,0 °C 53 % 63 % 1004,1 hPa 0,0 l/m² 13,1 km/h (3 Bft) SW 221 ° 1 min 923 W/m² 9,0 °C 13,0 °C 17,7 km/h (3 Bft)
15.04.2024 15:15 22,3 °C 15,9 °C 53 % 62 % 1004,1 hPa 0,0 l/m² 15,2 km/h (3 Bft) S-SW 209 ° 1 min 404 W/m² 8,6 °C 12,2 °C 20,9 km/h (4 Bft)
15.04.2024 15:17 22,3 °C 15,7 °C 53 % 63 % 1004,1 hPa 0,0 l/m² 11,2 km/h (2 Bft) W-SW 244 ° 2 min 346 W/m² 8,7 °C 13,4 °C 16,1 km/h (3 Bft)
15.04.2024 15:18 22,3 °C 15,7 °C 53 % 64 % 1004,1 hPa 0,0 l/m² 13,4 km/h (3 Bft) W-SW 242 ° 1 min 369 W/m² 8,9 °C 12,6 °C 20,9 km/h (4 Bft)
15.04.2024 15:19 22,3 °C 15,6 °C 53 % 63 % 1004,1 hPa 0,0 l/m² 18,0 km/h (3 Bft) S-SW 204 ° 1 min 401 W/m² 8,6 °C 11,0 °C 22,5 km/h (4 Bft)
15.04.2024 15:20 22,3 °C 15,5 °C 53 % 63 % 1004,0 hPa 0,0 l/m² 14,1 km/h (3 Bft) S-SW 212 ° 1 min 396 W/m² 8,5 °C 12,1 °C 19,3 km/h (3 Bft)
15.04.2024 15:21 22,3 °C 15,4 °C 53 % 63 % 1004,0 hPa 0,0 l/m² 14,1 km/h (3 Bft) S-SW 203 ° 1 min 413 W/m² 8,4 °C 12,0 °C 17,7 km/h (3 Bft)
15.04.2024 15:22 22,3 °C 15,3 °C 53 % 64 % 1004,0 hPa 0,0 l/m² 11,9 km/h (2 Bft) S-SW 209 ° 1 min 387 W/m² 8,5 °C 12,7 °C 16,1 km/h (3 Bft)
15.04.2024 15:23 22,3 °C 15,2 °C 53 % 66 % 1003,9 hPa 0,0 l/m² 14,3 km/h (3 Bft) SW 217 ° 1 min 369 W/m² 8,9 °C 11,7 °C 17,7 km/h (3 Bft)
15.04.2024 15:24 22,3 °C 15,2 °C 53 % 65 % 1003,9 hPa 0,0 l/m² 15,8 km/h (3 Bft) S-SW 192 ° 1 min 355 W/m² 8,7 °C 11,2 °C 22,5 km/h (4 Bft)
15.04.2024 15:25 22,3 °C 15,1 °C 53 % 65 % 1003,8 hPa 0,0 l/m² 13,4 km/h (3 Bft) S 180 ° 1 min 360 W/m² 8,6 °C 11,9 °C 17,7 km/h (3 Bft)
15.04.2024 15:26 22,3 °C 15,1 °C 53 % 66 % 1003,9 hPa 0,0 l/m² 13,5 km/h (3 Bft) S-SW 192 ° 1 min 392 W/m² 8,8 °C 11,8 °C 19,3 km/h (3 Bft)
15.04.2024 15:27 22,3 °C 15,1 °C 53 % 64 % 1003,8 hPa 0,0 l/m² 16,0 km/h (3 Bft) S-SW 200 ° 1 min 429 W/m² 8,3 °C 11,0 °C 25,7 km/h (4 Bft)
15.04.2024 15:28 22,3 °C 15,1 °C 53 % 63 % 1003,9 hPa 0,0 l/m² 17,6 km/h (3 Bft) S 186 ° 1 min 422 W/m² 8,1 °C 10,5 °C 22,5 km/h (4 Bft)
15.04.2024 15:29 22,3 °C 15,1 °C 53 % 63 % 1003,7 hPa 0,0 l/m² 13,3 km/h (3 Bft) S-SO 163 ° 1 min 399 W/m² 8,1 °C 11,9 °C 17,7 km/h (3 Bft)
15.04.2024 15:30 22,3 °C 15,1 °C 53 % 66 % 1003,7 hPa 0,0 l/m² 14,7 km/h (3 Bft) S-SW 202 ° 1 min 385 W/m² 8,8 °C 11,4 °C 17,7 km/h (3 Bft)
15.04.2024 15:31 22,3 °C 15,1 °C 53 % 63 % 1003,7 hPa 0,0 l/m² 13,1 km/h (3 Bft) S-SW 204 ° 1 min 385 W/m² 8,1 °C 12,0 °C 19,3 km/h (3 Bft)
15.04.2024 15:32 22,3 °C 15,2 °C 53 % 65 % 1003,7 hPa 0,0 l/m² 9,7 km/h (2 Bft) S 190 ° 1 min 478 W/m² 8,7 °C 13,5 °C 12,9 km/h (3 Bft)
15.04.2024 15:33 22,3 °C 15,3 °C 53 % 66 % 1003,6 hPa 0,0 l/m² 10,8 km/h (2 Bft) S-SW 192 ° 1 min 524 W/m² 9,0 °C 13,1 °C 12,9 km/h (3 Bft)
15.04.2024 15:34 22,3 °C 15,3 °C 53 % 65 % 1003,6 hPa 0,0 l/m² 13,9 km/h (3 Bft) S 190 ° 1 min 425 W/m² 8,8 °C 11,9 °C 22,5 km/h (4 Bft)
15.04.2024 15:35 22,3 °C 15,4 °C 53 % 64 % 1003,6 hPa 0,0 l/m² 14,2 km/h (3 Bft) S-SW 196 ° 1 min 359 W/m² 8,6 °C 11,9 °C 17,7 km/h (3 Bft)
15.04.2024 15:36 22,3 °C 15,4 °C 53 % 62 % 1003,6 hPa 0,0 l/m² 14,3 km/h (3 Bft) SW 215 ° 1 min 323 W/m² 8,2 °C 11,9 °C 17,7 km/h (3 Bft)
15.04.2024 15:37 22,3 °C 15,4 °C 53 % 63 % 1003,6 hPa 0,0 l/m² 12,5 km/h (2 Bft) S-SW 210 ° 1 min 339 W/m² 8,4 °C 12,5 °C 17,7 km/h (3 Bft)
15.04.2024 15:38 22,3 °C 15,3 °C 53 % 62 % 1003,4 hPa 0,0 l/m² 15,0 km/h (3 Bft) S-SW 193 ° 1 min 341 W/m² 8,1 °C 11,6 °C 19,3 km/h (3 Bft)
15.04.2024 15:39 22,3 °C 15,3 °C 53 % 62 % 1003,5 hPa 0,0 l/m² 15,6 km/h (3 Bft) S-SW 192 ° 1 min 371 W/m² 8,1 °C 11,4 °C 19,3 km/h (3 Bft)
15.04.2024 15:40 22,3 °C 15,3 °C 53 % 63 % 1003,4 hPa 0,0 l/m² 14,4 km/h (3 Bft) SW 225 ° 1 min 371 W/m² 8,3 °C 11,8 °C 19,3 km/h (3 Bft)
15.04.2024 15:41 22,3 °C 15,3 °C 53 % 64 % 1003,4 hPa 0,0 l/m² 12,9 km/h (3 Bft) S-SW 207 ° 1 min 330 W/m² 8,5 °C 12,3 °C 16,1 km/h (3 Bft)
15.04.2024 15:42 22,3 °C 15,3 °C 53 % 65 % 1003,4 hPa 0,0 l/m² 15,6 km/h (3 Bft) S 189 ° 1 min 301 W/m² 8,8 °C 11,4 °C 20,9 km/h (4 Bft)
15.04.2024 15:43 22,3 °C 15,3 °C 53 % 62 % 1003,4 hPa 0,0 l/m² 14,9 km/h (3 Bft) S-SW 207 ° 1 min 325 W/m² 8,1 °C 11,6 °C 19,3 km/h (3 Bft)
15.04.2024 15:44 22,3 °C 15,2 °C 53 % 63 % 1003,3 hPa 0,0 l/m² 14,4 km/h (3 Bft) SW 221 ° 1 min 301 W/m² 8,2 °C 11,6 °C 19,3 km/h (3 Bft)
15.04.2024 15:46 22,3 °C 15,3 °C 53 % 63 % 1003,2 hPa 0,0 l/m² 18,0 km/h (3 Bft) S 169 ° 2 min 547 W/m² 8,3 °C 10,7 °C 24,1 km/h (4 Bft)
15.04.2024 15:48 22,2 °C 15,4 °C 53 % 63 % 1003,2 hPa 0,0 l/m² 13,9 km/h (3 Bft) S 187 ° 2 min 404 W/m² 8,4 °C 12,0 °C 22,5 km/h (4 Bft)
15.04.2024 15:49 22,2 °C 15,4 °C 53 % 62 % 1003,2 hPa 0,0 l/m² 13,2 km/h (3 Bft) S-SW 195 ° 1 min 341 W/m² 8,2 °C 12,3 °C 17,7 km/h (3 Bft)
15.04.2024 15:50 22,3 °C 15,4 °C 53 % 60 % 1003,1 hPa 0,0 l/m² 12,4 km/h (2 Bft) S 182 ° 1 min 250 W/m² 7,7 °C 12,6 °C 22,5 km/h (4 Bft)
15.04.2024 15:51 22,3 °C 15,3 °C 53 % 63 % 1003,1 hPa 0,0 l/m² 15,0 km/h (3 Bft) S-SW 197 ° 1 min 250 W/m² 8,3 °C 11,6 °C 22,5 km/h (4 Bft)
15.04.2024 15:52 22,2 °C 15,3 °C 53 % 62 % 1003,1 hPa 0,0 l/m² 20,8 km/h (4 Bft) S 189 ° 1 min 250 W/m² 8,1 °C 9,9 °C 24,1 km/h (4 Bft)
15.04.2024 15:53 22,2 °C 15,2 °C 53 % 62 % 1003,1 hPa 0,0 l/m² 14,9 km/h (3 Bft) SW 216 ° 1 min 250 W/m² 8,0 °C 11,5 °C 19,3 km/h (3 Bft)
15.04.2024 15:54 22,3 °C 15,1 °C 53 % 64 % 1003,0 hPa 0,0 l/m² 11,9 km/h (2 Bft) SW 222 ° 1 min 267 W/m² 8,3 °C 12,4 °C 17,7 km/h (3 Bft)
15.04.2024 15:55 22,2 °C 15,1 °C 53 % 65 % 1003,0 hPa 0,0 l/m² 11,5 km/h (2 Bft) S-SW 203 ° 1 min 329 W/m² 8,6 °C 12,6 °C 19,3 km/h (3 Bft)
15.04.2024 15:56 22,2 °C 15,1 °C 53 % 65 % 1003,0 hPa 0,0 l/m² 11,0 km/h (2 Bft) S-SW 205 ° 1 min 555 W/m² 8,6 °C 12,8 °C 14,5 km/h (3 Bft)
15.04.2024 15:57 22,2 °C 15,2 °C 53 % 65 % 1003,0 hPa 0,0 l/m² 11,7 km/h (2 Bft) SW 226 ° 1 min 555 W/m² 8,7 °C 12,6 °C 16,1 km/h (3 Bft)
15.04.2024 15:58 22,2 °C 15,3 °C 53 % 65 % 1002,9 hPa 0,0 l/m² 10,7 km/h (2 Bft) SW 232 ° 1 min 371 W/m² 8,8 °C 13,1 °C 17,7 km/h (3 Bft)
15.04.2024 15:59 22,2 °C 15,4 °C 53 % 64 % 1002,9 hPa 0,0 l/m² 13,3 km/h (3 Bft) S-SW 192 ° 1 min 359 W/m² 8,6 °C 12,3 °C 24,1 km/h (4 Bft)
15.04.2024 16:00 22,2 °C 15,4 °C 53 % 62 % 1002,9 hPa 0,0 l/m² 12,5 km/h (2 Bft) S-SW 207 ° 1 min 325 W/m² 8,2 °C 12,5 °C 16,1 km/h (3 Bft)
15.04.2024 16:01 22,2 °C 15,4 °C 53 % 61 % 1002,9 hPa 0,0 l/m² 14,0 km/h (3 Bft) S-SW 202 ° 1 min 283 W/m² 7,9 °C 12,0 °C 20,9 km/h (4 Bft)
15.04.2024 16:02 22,2 °C 15,4 °C 53 % 62 % 1002,9 hPa 0,0 l/m² 13,9 km/h (3 Bft) SW 220 ° 1 min 244 W/m² 8,2 °C 12,0 °C 19,3 km/h (3 Bft)
15.04.2024 16:03 22,2 °C 15,3 °C 53 % 63 % 1002,9 hPa 0,0 l/m² 12,8 km/h (3 Bft) S-SW 201 ° 1 min 258 W/m² 8,3 °C 12,3 °C 16,1 km/h (3 Bft)
15.04.2024 16:04 22,2 °C 15,2 °C 53 % 63 % 1002,7 hPa 0,0 l/m² 14,3 km/h (3 Bft) S-SW 208 ° 1 min 290 W/m² 8,2 °C 11,7 °C 19,3 km/h (3 Bft)
15.04.2024 16:05 22,2 °C 15,2 °C 53 % 62 % 1002,8 hPa 0,0 l/m² 16,8 km/h (3 Bft) S-SW 210 ° 1 min 332 W/m² 8,0 °C 10,9 °C 20,9 km/h (4 Bft)
15.04.2024 16:06 22,2 °C 15,2 °C 53 % 62 % 1002,7 hPa 0,0 l/m² 15,6 km/h (3 Bft) S-SW 209 ° 1 min 364 W/m² 8,0 °C 11,2 °C 19,3 km/h (3 Bft)
15.04.2024 16:07 22,2 °C 15,2 °C 53 % 62 % 1002,7 hPa 0,0 l/m² 12,3 km/h (2 Bft) S-SW 200 ° 1 min 378 W/m² 8,0 °C 12,4 °C 17,7 km/h (3 Bft)
15.04.2024 16:08 22,2 °C 15,2 °C 53 % 62 % 1002,7 hPa 0,0 l/m² 15,6 km/h (3 Bft) S-SW 193 ° 1 min 292 W/m² 8,0 °C 11,2 °C 19,3 km/h (3 Bft)
15.04.2024 16:09 22,2 °C 15,3 °C 53 % 62 % 1002,7 hPa 0,0 l/m² 15,4 km/h (3 Bft) S 182 ° 1 min 257 W/m² 8,1 °C 11,4 °C 20,9 km/h (4 Bft)
15.04.2024 16:10 22,2 °C 15,2 °C 53 % 62 % 1002,6 hPa 0,0 l/m² 13,4 km/h (3 Bft) S-SW 206 ° 1 min 244 W/m² 8,0 °C 12,0 °C 16,1 km/h (3 Bft)
15.04.2024 16:11 22,2 °C 15,2 °C 53 % 62 % 1002,6 hPa 0,0 l/m² 13,5 km/h (3 Bft) S-SW 203 ° 1 min 248 W/m² 8,0 °C 11,9 °C 16,1 km/h (3 Bft)
15.04.2024 16:12 22,2 °C 15,2 °C 53 % 62 % 1002,6 hPa 0,0 l/m² 14,1 km/h (3 Bft) S-SW 208 ° 1 min 257 W/m² 8,0 °C 11,7 °C 16,1 km/h (3 Bft)
15.04.2024 16:13 22,2 °C 15,1 °C 53 % 63 % 1002,6 hPa 0,0 l/m² 9,8 km/h (2 Bft) S-SW 202 ° 1 min 257 W/m² 8,1 °C 13,3 °C 14,5 km/h (3 Bft)
15.04.2024 16:14 22,2 °C 15,1 °C 53 % 64 % 1002,5 hPa 0,0 l/m² 11,1 km/h (2 Bft) SW 215 ° 1 min 302 W/m² 8,3 °C 12,8 °C 16,1 km/h (3 Bft)
15.04.2024 16:15 22,2 °C 15,1 °C 53 % 65 % 1002,6 hPa 0,0 l/m² 13,1 km/h (3 Bft) S-SW 197 ° 1 min 302 W/m² 8,6 °C 12,0 °C 17,7 km/h (3 Bft)
15.04.2024 16:16 22,2 °C 15,2 °C 53 % 63 % 1002,6 hPa 0,0 l/m² 15,0 km/h (3 Bft) W-SW 246 ° 1 min 294 W/m² 8,2 °C 11,4 °C 22,5 km/h (4 Bft)
15.04.2024 16:17 22,2 °C 15,2 °C 53 % 61 % 1002,5 hPa 0,0 l/m² 16,5 km/h (3 Bft) SW 214 ° 1 min 278 W/m² 7,7 °C 11,0 °C 25,7 km/h (4 Bft)
15.04.2024 16:18 22,1 °C 15,3 °C 53 % 59 % 1002,7 hPa 0,0 l/m² 15,2 km/h (3 Bft) S 185 ° 1 min 258 W/m² 7,3 °C 11,5 °C 24,1 km/h (4 Bft)
15.04.2024 16:19 22,2 °C 15,3 °C 53 % 59 % 1002,5 hPa 0,0 l/m² 15,6 km/h (3 Bft) S-SW 211 ° 1 min 241 W/m² 7,3 °C 11,4 °C 19,3 km/h (3 Bft)
15.04.2024 16:20 22,2 °C 15,3 °C 53 % 60 % 1002,4 hPa 0,0 l/m² 12,7 km/h (3 Bft) SW 224 ° 1 min 214 W/m² 7,6 °C 12,4 °C 16,1 km/h (3 Bft)
15.04.2024 16:21 22,1 °C 15,2 °C 52 % 60 % 1002,4 hPa 0,0 l/m² 11,0 km/h (2 Bft) SW 232 ° 1 min 213 W/m² 7,5 °C 12,9 °C 12,9 km/h (3 Bft)
15.04.2024 16:22 22,1 °C 15,2 °C 52 % 61 % 1002,3 hPa 0,0 l/m² 12,1 km/h (2 Bft) SW 217 ° 1 min 220 W/m² 7,7 °C 12,5 °C 17,7 km/h (3 Bft)
15.04.2024 16:23 22,2 °C 15,2 °C 52 % 61 % 1002,3 hPa 0,0 l/m² 13,3 km/h (3 Bft) W 271 ° 1 min 229 W/m² 7,7 °C 12,0 °C 24,1 km/h (4 Bft)
15.04.2024 16:24 22,1 °C 15,2 °C 52 % 61 % 1002,3 hPa 0,0 l/m² 10,9 km/h (2 Bft) SW 223 ° 1 min 260 W/m² 7,7 °C 12,9 °C 17,7 km/h (3 Bft)
15.04.2024 16:25 22,1 °C 15,3 °C 52 % 59 % 1002,2 hPa 0,0 l/m² 12,9 km/h (3 Bft) S-SW 201 ° 1 min 265 W/m² 7,3 °C 12,3 °C 19,3 km/h (3 Bft)
15.04.2024 16:26 22,2 °C 15,3 °C 52 % 60 % 1002,3 hPa 0,0 l/m² 19,6 km/h (3 Bft) S-SW 204 ° 1 min 316 W/m² 7,6 °C 10,2 °C 25,7 km/h (4 Bft)
15.04.2024 16:27 22,1 °C 15,3 °C 52 % 59 % 1002,3 hPa 0,0 l/m² 21,4 km/h (4 Bft) S 191 ° 1 min 323 W/m² 7,3 °C 9,8 °C 27,4 km/h (5 Bft)
15.04.2024 16:28 22,1 °C 15,3 °C 52 % 59 % 1002,1 hPa 0,0 l/m² 19,6 km/h (3 Bft) S-SW 200 ° 1 min 330 W/m² 7,3 °C 10,2 °C 27,4 km/h (5 Bft)
15.04.2024 16:29 22,1 °C 15,4 °C 52 % 58 % 1002,1 hPa 0,0 l/m² 18,0 km/h (3 Bft) SW 234 ° 1 min 367 W/m² 7,2 °C 10,8 °C 22,5 km/h (4 Bft)
15.04.2024 16:30 22,1 °C 15,5 °C 52 % 59 % 1002,1 hPa 0,0 l/m² 17,1 km/h (3 Bft) S-SW 213 ° 1 min 367 W/m² 7,5 °C 11,2 °C 24,1 km/h (4 Bft)
15.04.2024 16:31 22,1 °C 15,7 °C 52 % 60 % 1002,1 hPa 0,0 l/m² 17,2 km/h (3 Bft) S-SW 205 ° 1 min 367 W/m² 8,0 °C 11,4 °C 22,5 km/h (4 Bft)
15.04.2024 16:32 22,1 °C 15,8 °C 52 % 58 % 1002,1 hPa 0,0 l/m² 14,8 km/h (3 Bft) SW 216 ° 1 min 497 W/m² 7,6 °C 12,2 °C 22,5 km/h (4 Bft)
15.04.2024 16:33 22,1 °C 16,0 °C 52 % 59 % 1002,0 hPa 0,0 l/m² 11,9 km/h (2 Bft) W-SW 255 ° 1 min 497 W/m² 8,0 °C 13,5 °C 14,5 km/h (3 Bft)
15.04.2024 16:34 22,1 °C 16,2 °C 52 % 60 % 1002,0 hPa 0,0 l/m² 10,4 km/h (2 Bft) S-SW 211 ° 1 min 497 W/m² 8,4 °C 14,3 °C 14,5 km/h (3 Bft)
15.04.2024 16:35 22,1 °C 16,3 °C 52 % 60 % 1002,1 hPa 0,0 l/m² 16,0 km/h (3 Bft) SW 220 ° 1 min 497 W/m² 8,5 °C 12,5 °C 25,7 km/h (4 Bft)
15.04.2024 16:36 22,1 °C 16,4 °C 52 % 55 % 1002,0 hPa 0,0 l/m² 22,0 km/h (4 Bft) W-SW 247 ° 1 min 717 W/m² 7,3 °C 11,1 °C 27,4 km/h (5 Bft)
15.04.2024 16:37 22,1 °C 16,4 °C 52 % 56 % 1002,0 hPa 0,0 l/m² 21,1 km/h (4 Bft) SW 225 ° 1 min 717 W/m² 7,6 °C 11,3 °C 29,0 km/h (5 Bft)
15.04.2024 16:38 22,1 °C 16,4 °C 52 % 57 % 1002,0 hPa 0,0 l/m² 18,7 km/h (3 Bft) S-SW 207 ° 1 min 283 W/m² 7,9 °C 11,9 °C 24,1 km/h (4 Bft)
15.04.2024 16:39 22,1 °C 16,3 °C 52 % 55 % 1001,9 hPa 0,0 l/m² 14,7 km/h (3 Bft) S-SW 204 ° 1 min 271 W/m² 7,2 °C 12,9 °C 22,5 km/h (4 Bft)
15.04.2024 16:40 22,1 °C 16,1 °C 52 % 57 % 1001,8 hPa 0,0 l/m² 20,4 km/h (4 Bft) SW 215 ° 1 min 311 W/m² 7,6 °C 11,1 °C 25,7 km/h (4 Bft)
15.04.2024 16:41 22,1 °C 15,9 °C 52 % 57 % 1001,9 hPa 0,0 l/m² 16,4 km/h (3 Bft) S-SW 205 ° 1 min 318 W/m² 7,4 °C 11,9 °C 20,9 km/h (4 Bft)
15.04.2024 16:42 22,1 °C 15,9 °C 52 % 58 % 1001,8 hPa 0,0 l/m² 14,0 km/h (3 Bft) S-SW 209 ° 1 min 413 W/m² 7,6 °C 12,6 °C 17,7 km/h (3 Bft)
15.04.2024 16:43 22,1 °C 15,9 °C 52 % 60 % 1001,7 hPa 0,0 l/m² 9,9 km/h (2 Bft) SW 236 ° 1 min 415 W/m² 8,1 °C 14,2 °C 14,5 km/h (3 Bft)
15.04.2024 16:44 22,1 °C 15,9 °C 52 % 58 % 1001,7 hPa 0,0 l/m² 18,4 km/h (3 Bft) W-SW 238 ° 1 min 339 W/m² 7,6 °C 11,3 °C 33,8 km/h (5 Bft)
15.04.2024 16:46 22,1 °C 16,1 °C 52 % 55 % 1001,6 hPa 0,0 l/m² 17,3 km/h (3 Bft) S-SW 207 ° 2 min 302 W/m² 7,1 °C 11,9 °C 24,1 km/h (4 Bft)
15.04.2024 16:47 22,1 °C 16,1 °C 52 % 56 % 1001,6 hPa 0,0 l/m² 15,7 km/h (3 Bft) SW 232 ° 1 min 287 W/m² 7,3 °C 12,3 °C 20,9 km/h (4 Bft)
15.04.2024 16:48 22,1 °C 16,0 °C 52 % 56 % 1001,6 hPa 0,0 l/m² 14,8 km/h (3 Bft) SW 232 ° 1 min 274 W/m² 7,2 °C 12,5 °C 22,5 km/h (4 Bft)
15.04.2024 16:49 22,1 °C 15,9 °C 52 % 55 % 1001,6 hPa 0,0 l/m² 16,3 km/h (3 Bft) SW 215 ° 1 min 246 W/m² 6,9 °C 11,9 °C 20,9 km/h (4 Bft)
15.04.2024 16:50 22,1 °C 15,9 °C 52 % 56 % 1001,6 hPa 0,0 l/m² 15,1 km/h (3 Bft) W-SW 238 ° 1 min 243 W/m² 7,1 °C 12,3 °C 20,9 km/h (4 Bft)
15.04.2024 16:51 22,1 °C 15,8 °C 52 % 57 % 1001,6 hPa 0,0 l/m² 14,0 km/h (3 Bft) S-SW 210 ° 1 min 262 W/m² 7,3 °C 12,5 °C 19,3 km/h (3 Bft)
15.04.2024 16:52 22,1 °C 15,8 °C 52 % 58 % 1001,5 hPa 0,0 l/m² 14,1 km/h (3 Bft) W-SW 244 ° 1 min 269 W/m² 7,6 °C 12,5 °C 19,3 km/h (3 Bft)
15.04.2024 16:53 22,1 °C 15,7 °C 52 % 58 % 1001,6 hPa 0,0 l/m² 17,9 km/h (3 Bft) S-SW 207 ° 1 min 329 W/m² 7,5 °C 11,2 °C 20,9 km/h (4 Bft)
15.04.2024 16:54 22,1 °C 15,7 °C 52 % 57 % 1001,5 hPa 0,0 l/m² 17,1 km/h (3 Bft) S-SW 212 ° 1 min 381 W/m² 7,2 °C 11,4 °C 19,3 km/h (3 Bft)
15.04.2024 16:55 22,1 °C 15,6 °C 52 % 58 % 1001,5 hPa 0,0 l/m² 18,7 km/h (3 Bft) S-SW 207 ° 1 min 272 W/m² 7,4 °C 10,9 °C 22,5 km/h (4 Bft)
15.04.2024 16:56 22,1 °C 15,6 °C 52 % 58 % 1001,4 hPa 0,0 l/m² 18,3 km/h (3 Bft) S-SW 205 ° 1 min 258 W/m² 7,4 °C 11,0 °C 25,7 km/h (4 Bft)
15.04.2024 16:57 22,1 °C 15,6 °C 52 % 58 % 1001,4 hPa 0,0 l/m² 19,1 km/h (3 Bft) S-SW 198 ° 1 min 244 W/m² 7,4 °C 10,7 °C 25,7 km/h (4 Bft)
15.04.2024 16:58 22,1 °C 15,6 °C 52 % 56 % 1001,5 hPa 0,0 l/m² 17,4 km/h (3 Bft) SW 214 ° 1 min 234 W/m² 6,9 °C 11,2 °C 25,7 km/h (4 Bft)
15.04.2024 16:59 22,1 °C 15,6 °C 52 % 56 % 1001,4 hPa 0,0 l/m² 20,7 km/h (4 Bft) SW 215 ° 1 min 225 W/m² 6,9 °C 10,4 °C 25,7 km/h (4 Bft)
15.04.2024 17:00 22,1 °C 15,5 °C 52 % 56 % 1001,3 hPa 0,0 l/m² 14,1 km/h (3 Bft) SW 217 ° 1 min 229 W/m² 6,8 °C 12,1 °C 22,5 km/h (4 Bft)
15.04.2024 17:01 22,1 °C 15,4 °C 52 % 59 % 1001,3 hPa 0,0 l/m² 11,5 km/h (2 Bft) S-SW 204 ° 1 min 258 W/m² 7,4 °C 12,9 °C 19,3 km/h (3 Bft)
15.04.2024 17:02 22,1 °C 15,4 °C 52 % 59 % 1001,3 hPa 0,0 l/m² 16,8 km/h (3 Bft) S 189 ° 1 min 274 W/m² 7,4 °C 11,1 °C 22,5 km/h (4 Bft)
15.04.2024 17:03 22,1 °C 15,4 °C 52 % 59 % 1001,3 hPa 0,0 l/m² 14,1 km/h (3 Bft) SW 220 ° 1 min 267 W/m² 7,4 °C 12,0 °C 19,3 km/h (3 Bft)
15.04.2024 17:04 22,1 °C 15,4 °C 52 % 60 % 1001,3 hPa 0,0 l/m² 12,9 km/h (3 Bft) SW 229 ° 1 min 253 W/m² 7,7 °C 12,4 °C 17,7 km/h (3 Bft)
15.04.2024 17:05 22,1 °C 15,4 °C 52 % 59 % 1001,3 hPa 0,0 l/m² 13,7 km/h (3 Bft) S-SW 202 ° 1 min 257 W/m² 7,4 °C 12,1 °C 17,7 km/h (3 Bft)
15.04.2024 17:06 22,1 °C 15,4 °C 52 % 59 % 1001,3 hPa 0,0 l/m² 11,9 km/h (2 Bft) S-SW 213 ° 1 min 246 W/m² 7,4 °C 12,8 °C 16,1 km/h (3 Bft)
15.04.2024 17:07 22,1 °C 15,4 °C 52 % 60 % 1001,3 hPa 0,0 l/m² 11,1 km/h (2 Bft) S-SW 205 ° 1 min 211 W/m² 7,7 °C 13,1 °C 17,7 km/h (3 Bft)
15.04.2024 17:08 22,1 °C 15,5 °C 52 % 59 % 1001,2 hPa 0,0 l/m² 12,2 km/h (2 Bft) W-SW 242 ° 1 min 204 W/m² 7,5 °C 12,8 °C 16,1 km/h (3 Bft)
15.04.2024 17:09 22,1 °C 15,5 °C 52 % 60 % 1001,2 hPa 0,0 l/m² 9,9 km/h (2 Bft) W-SW 254 ° 1 min 276 W/m² 7,8 °C 13,7 °C 17,7 km/h (3 Bft)
15.04.2024 17:10 22,1 °C 15,6 °C 52 % 60 % 1001,1 hPa 0,0 l/m² 13,8 km/h (3 Bft) SW 233 ° 1 min 276 W/m² 7,9 °C 12,3 °C 17,7 km/h (3 Bft)
15.04.2024 17:11 22,1 °C 15,7 °C 52 % 60 % 1001,1 hPa 0,0 l/m² 12,2 km/h (2 Bft) S-SW 207 ° 1 min 548 W/m² 8,0 °C 13,0 °C 17,7 km/h (3 Bft)
15.04.2024 17:12 22,1 °C 15,8 °C 52 % 60 % 1001,2 hPa 0,0 l/m² 12,6 km/h (3 Bft) S-SW 205 ° 1 min 547 W/m² 8,1 °C 13,0 °C 19,3 km/h (3 Bft)
15.04.2024 17:13 22,0 °C 16,1 °C 51 % 60 % 1001,0 hPa 0,0 l/m² 10,4 km/h (2 Bft) SW 227 ° 1 min 531 W/m² 8,3 °C 14,2 °C 12,9 km/h (3 Bft)
15.04.2024 17:14 22,1 °C 16,3 °C 51 % 58 % 1001,0 hPa 0,0 l/m² 21,4 km/h (4 Bft) SW 217 ° 1 min 513 W/m² 8,0 °C 11,1 °C 27,4 km/h (5 Bft)
15.04.2024 17:15 22,0 °C 16,4 °C 51 % 56 % 1000,9 hPa 0,0 l/m² 16,0 km/h (3 Bft) S-SW 198 ° 1 min 503 W/m² 7,6 °C 12,6 °C 19,3 km/h (3 Bft)
15.04.2024 17:16 22,0 °C 16,5 °C 50 % 57 % 1000,8 hPa 0,0 l/m² 14,7 km/h (3 Bft) SW 219 ° 1 min 494 W/m² 8,0 °C 13,1 °C 17,7 km/h (3 Bft)
15.04.2024 17:17 22,1 °C 16,6 °C 50 % 57 % 1000,9 hPa 0,0 l/m² 14,3 km/h (3 Bft) SW 215 ° 1 min 485 W/m² 8,0 °C 13,3 °C 16,1 km/h (3 Bft)
15.04.2024 17:18 22,1 °C 16,6 °C 51 % 57 % 1000,8 hPa 0,0 l/m² 15,8 km/h (3 Bft) SW 222 ° 1 min 452 W/m² 8,0 °C 12,9 °C 25,7 km/h (4 Bft)
15.04.2024 17:19 22,0 °C 16,4 °C 51 % 56 % 1000,7 hPa 0,0 l/m² 16,4 km/h (3 Bft) SW 220 ° 1 min 452 W/m² 7,6 °C 12,5 °C 22,5 km/h (4 Bft)
15.04.2024 17:20 22,1 °C 16,4 °C 50 % 56 % 1000,7 hPa 0,0 l/m² 16,4 km/h (3 Bft) S-SW 201 ° 1 min 452 W/m² 7,6 °C 12,5 °C 20,9 km/h (4 Bft)
15.04.2024 17:21 22,1 °C 16,3 °C 50 % 56 % 1000,7 hPa 0,0 l/m² 11,9 km/h (2 Bft) S-SW 210 ° 1 min 490 W/m² 7,5 °C 13,8 °C 19,3 km/h (3 Bft)
15.04.2024 17:22 22,0 °C 16,4 °C 50 % 57 % 1000,6 hPa 0,0 l/m² 15,2 km/h (3 Bft) SW 226 ° 1 min 494 W/m² 7,9 °C 12,8 °C 19,3 km/h (3 Bft)
15.04.2024 17:23 22,0 °C 16,5 °C 50 % 56 % 1000,7 hPa 0,0 l/m² 13,6 km/h (3 Bft) S-SW 211 ° 1 min 494 W/m² 7,7 °C 13,4 °C 17,7 km/h (3 Bft)
15.04.2024 17:24 22,0 °C 16,6 °C 50 % 59 % 1000,6 hPa 0,0 l/m² 13,3 km/h (3 Bft) SW 231 ° 1 min 462 W/m² 8,6 °C 13,7 °C 20,9 km/h (4 Bft)
15.04.2024 17:25 22,0 °C 16,6 °C 50 % 57 % 1000,6 hPa 0,0 l/m² 14,3 km/h (3 Bft) S-SW 198 ° 1 min 466 W/m² 8,0 °C 13,3 °C 19,3 km/h (3 Bft)
15.04.2024 17:26 22,0 °C 16,6 °C 50 % 57 % 1000,6 hPa 0,0 l/m² 16,2 km/h (3 Bft) S-SW 200 ° 1 min 466 W/m² 8,0 °C 12,8 °C 22,5 km/h (4 Bft)
15.04.2024 17:27 22,0 °C 16,6 °C 50 % 55 % 1000,5 hPa 0,0 l/m² 18,5 km/h (3 Bft) S-SW 192 ° 1 min 445 W/m² 7,5 °C 12,2 °C 22,5 km/h (4 Bft)
15.04.2024 17:28 22,0 °C 16,6 °C 50 % 54 % 1000,4 hPa 0,0 l/m² 18,2 km/h (3 Bft) S-SW 202 ° 1 min 454 W/m² 7,3 °C 12,2 °C 20,9 km/h (4 Bft)
15.04.2024 17:29 22,0 °C 16,6 °C 50 % 54 % 1000,5 hPa 0,0 l/m² 16,0 km/h (3 Bft) S-SW 208 ° 1 min 455 W/m² 7,3 °C 12,8 °C 17,7 km/h (3 Bft)
15.04.2024 17:30 22,1 °C 16,6 °C 50 % 54 % 1000,5 hPa 0,0 l/m² 13,7 km/h (3 Bft) SW 231 ° 1 min 443 W/m² 7,3 °C 13,5 °C 19,3 km/h (3 Bft)
15.04.2024 17:31 22,1 °C 16,7 °C 50 % 56 % 1000,3 hPa 0,0 l/m² 7,5 km/h (2 Bft) S-SW 203 ° 1 min 432 W/m² 7,9 °C 16,1 °C 12,9 km/h (3 Bft)
15.04.2024 17:32 22,0 °C 16,8 °C 50 % 58 % 1000,3 hPa 0,0 l/m² 8,9 km/h (2 Bft) S-SW 205 ° 1 min 411 W/m² 8,5 °C 15,6 °C 14,5 km/h (3 Bft)
15.04.2024 17:33 22,0 °C 16,8 °C 50 % 57 % 1000,3 hPa 0,0 l/m² 14,4 km/h (3 Bft) W-SW 239 ° 1 min 404 W/m² 8,2 °C 13,6 °C 22,5 km/h (4 Bft)
15.04.2024 17:34 22,0 °C 16,9 °C 50 % 52 % 1000,2 hPa 0,0 l/m² 15,8 km/h (3 Bft) SW 236 ° 1 min 392 W/m² 7,0 °C 13,3 °C 20,9 km/h (4 Bft)
15.04.2024 17:35 22,0 °C 16,8 °C 50 % 52 % 1000,1 hPa 0,0 l/m² 16,4 km/h (3 Bft) S-SW 211 ° 1 min 371 W/m² 6,9 °C 13,0 °C 22,5 km/h (4 Bft)
15.04.2024 17:36 22,0 °C 16,7 °C 50 % 54 % 1000,1 hPa 0,0 l/m² 15,3 km/h (3 Bft) S-SW 196 ° 1 min 373 W/m² 7,3 °C 13,2 °C 22,5 km/h (4 Bft)
15.04.2024 17:37 22,0 °C 16,7 °C 50 % 52 % 1000,2 hPa 0,0 l/m² 15,1 km/h (3 Bft) S-SW 198 ° 1 min 350 W/m² 6,8 °C 13,2 °C 19,3 km/h (3 Bft)
15.04.2024 17:38 22,0 °C 16,6 °C 50 % 53 % 1000,2 hPa 0,0 l/m² 16,7 km/h (3 Bft) S-SW 211 ° 1 min 345 W/m² 7,0 °C 12,6 °C 22,5 km/h (4 Bft)
15.04.2024 17:39 22,0 °C 16,6 °C 50 % 53 % 1000,1 hPa 0,0 l/m² 15,8 km/h (3 Bft) S-SW 192 ° 1 min 292 W/m² 7,0 °C 12,9 °C 24,1 km/h (4 Bft)
15.04.2024 17:40 22,0 °C 16,5 °C 50 % 54 % 1000,2 hPa 0,0 l/m² 14,1 km/h (3 Bft) S-SW 202 ° 1 min 304 W/m² 7,2 °C 13,3 °C 19,3 km/h (3 Bft)
15.04.2024 17:41 22,0 °C 16,4 °C 50 % 54 % 1000,1 hPa 0,0 l/m² 14,7 km/h (3 Bft) S-SW 198 ° 1 min 359 W/m² 7,1 °C 13,0 °C 20,9 km/h (4 Bft)
15.04.2024 17:42 22,0 °C 16,4 °C 50 % 53 % 1000,1 hPa 0,0 l/m² 20,3 km/h (4 Bft) SW 225 ° 1 min 413 W/m² 6,8 °C 11,5 °C 27,4 km/h (5 Bft)
15.04.2024 17:43 22,0 °C 16,4 °C 50 % 53 % 1000,1 hPa 0,0 l/m² 18,4 km/h (3 Bft) S-SW 192 ° 1 min 427 W/m² 6,8 °C 11,9 °C 27,4 km/h (5 Bft)
15.04.2024 17:44 22,0 °C 16,4 °C 50 % 52 % 1000,0 hPa 0,0 l/m² 19,6 km/h (3 Bft) S-SW 194 ° 1 min 327 W/m² 6,5 °C 11,6 °C 32,2 km/h (5 Bft)
15.04.2024 17:45 22,0 °C 16,4 °C 50 % 54 % 1000,1 hPa 0,0 l/m² 13,9 km/h (3 Bft) S-SW 202 ° 1 min 327 W/m² 7,1 °C 13,2 °C 22,5 km/h (4 Bft)
15.04.2024 17:46 22,0 °C 16,4 °C 50 % 55 % 1000,0 hPa 0,0 l/m² 14,1 km/h (3 Bft) S-SW 202 ° 1 min 455 W/m² 7,3 °C 13,2 °C 20,9 km/h (4 Bft)
15.04.2024 17:47 22,0 °C 16,4 °C 50 % 55 % 1000,0 hPa 0,0 l/m² 12,5 km/h (2 Bft) S-SW 194 ° 1 min 406 W/m² 7,3 °C 13,7 °C 16,1 km/h (3 Bft)
15.04.2024 17:48 22,0 °C 16,4 °C 51 % 53 % 1000,0 hPa 0,0 l/m² 12,7 km/h (3 Bft) S-SW 202 ° 1 min 336 W/m² 6,8 °C 13,6 °C 17,7 km/h (3 Bft)
15.04.2024 17:49 22,0 °C 16,4 °C 51 % 53 % 999,9 hPa 0,0 l/m² 10,7 km/h (2 Bft) SW 227 ° 1 min 250 W/m² 6,8 °C 14,4 °C 17,7 km/h (3 Bft)
15.04.2024 17:50 22,0 °C 16,4 °C 51 % 54 % 999,8 hPa 0,0 l/m² 8,3 km/h (2 Bft) SW 232 ° 1 min 251 W/m² 7,1 °C 15,4 °C 12,9 km/h (3 Bft)
15.04.2024 17:51 22,0 °C 16,4 °C 51 % 56 % 999,8 hPa 0,0 l/m² 7,9 km/h (2 Bft) S-SW 210 ° 1 min 267 W/m² 7,6 °C 15,6 °C 11,3 km/h (2 Bft)
15.04.2024 17:52 22,0 °C 16,3 °C 51 % 57 % 999,8 hPa 0,0 l/m² 10,4 km/h (2 Bft) S-SW 211 ° 1 min 234 W/m² 7,8 °C 14,4 °C 17,7 km/h (3 Bft)
15.04.2024 17:53 22,0 °C 16,3 °C 51 % 56 % 1000,0 hPa 0,0 l/m² 16,0 km/h (3 Bft) SW 227 ° 1 min 223 W/m² 7,5 °C 12,5 °C 22,5 km/h (4 Bft)
15.04.2024 17:54 21,9 °C 16,3 °C 51 % 53 % 999,8 hPa 0,0 l/m² 15,2 km/h (3 Bft) W-SW 237 ° 1 min 223 W/m² 6,7 °C 12,7 °C 20,9 km/h (4 Bft)
15.04.2024 17:55 21,9 °C 16,3 °C 51 % 53 % 999,9 hPa 0,0 l/m² 17,7 km/h (3 Bft) SW 229 ° 1 min 308 W/m² 6,7 °C 12,0 °C 20,9 km/h (4 Bft)
15.04.2024 17:56 21,9 °C 16,2 °C 51 % 52 % 999,8 hPa 0,0 l/m² 15,1 km/h (3 Bft) W 275 ° 1 min 308 W/m² 6,3 °C 12,6 °C 24,1 km/h (4 Bft)
15.04.2024 17:57 21,9 °C 16,2 °C 51 % 53 % 999,8 hPa 0,0 l/m² 15,4 km/h (3 Bft) W 270 ° 1 min 190 W/m² 6,6 °C 12,5 °C 20,9 km/h (4 Bft)
15.04.2024 17:58 21,9 °C 16,2 °C 51 % 52 % 999,8 hPa 0,0 l/m² 17,0 km/h (3 Bft) SW 221 ° 1 min 183 W/m² 6,3 °C 12,1 °C 24,1 km/h (4 Bft)
15.04.2024 17:59 21,9 °C 16,1 °C 51 % 52 % 999,8 hPa 0,0 l/m² 15,7 km/h (3 Bft) SW 233 ° 1 min 162 W/m² 6,2 °C 12,3 °C 22,5 km/h (4 Bft)
15.04.2024 18:00 21,9 °C 16,0 °C 51 % 53 % 999,8 hPa 0,0 l/m² 12,9 km/h (3 Bft) SW 225 ° 1 min 158 W/m² 6,4 °C 13,1 °C 17,7 km/h (3 Bft)
15.04.2024 18:01 21,9 °C 16,0 °C 51 % 53 % 999,7 hPa 0,0 l/m² 19,0 km/h (3 Bft) SW 223 ° 1 min 156 W/m² 6,4 °C 11,3 °C 25,7 km/h (4 Bft)
15.04.2024 18:02 21,9 °C 15,9 °C 51 % 51 % 999,8 hPa 0,0 l/m² 21,7 km/h (4 Bft) S-SW 211 ° 1 min 156 W/m² 5,8 °C 10,5 °C 29,0 km/h (5 Bft)
15.04.2024 18:03 21,9 °C 15,9 °C 51 % 51 % 999,7 hPa 0,0 l/m² 20,5 km/h (4 Bft) S-SW 212 ° 1 min 156 W/m² 5,8 °C 10,8 °C 25,7 km/h (4 Bft)
15.04.2024 18:04 21,9 °C 15,8 °C 51 % 52 % 999,7 hPa 0,0 l/m² 14,8 km/h (3 Bft) SW 229 ° 1 min 156 W/m² 6,0 °C 12,2 °C 22,5 km/h (4 Bft)
15.04.2024 18:05 21,9 °C 15,8 °C 51 % 53 % 999,6 hPa 0,0 l/m² 13,8 km/h (3 Bft) W-SW 238 ° 1 min 151 W/m² 6,2 °C 12,6 °C 20,9 km/h (4 Bft)
15.04.2024 18:06 21,9 °C 15,8 °C 51 % 53 % 999,6 hPa 0,0 l/m² 13,4 km/h (3 Bft) SW 225 ° 1 min 146 W/m² 6,2 °C 12,7 °C 22,5 km/h (4 Bft)
15.04.2024 18:07 21,9 °C 15,7 °C 51 % 54 % 999,6 hPa 0,0 l/m² 11,1 km/h (2 Bft) SW 225 ° 1 min 142 W/m² 6,4 °C 13,4 °C 14,5 km/h (3 Bft)
15.04.2024 18:08 21,9 °C 15,6 °C 51 % 56 % 999,6 hPa 0,0 l/m² 9,2 km/h (2 Bft) SW 221 ° 1 min 139 W/m² 6,9 °C 14,1 °C 12,9 km/h (3 Bft)
15.04.2024 18:09 21,9 °C 15,6 °C 51 % 54 % 999,6 hPa 0,0 l/m² 12,0 km/h (2 Bft) SW 225 ° 1 min 139 W/m² 6,3 °C 13,0 °C 14,5 km/h (3 Bft)
15.04.2024 18:10 21,9 °C 15,6 °C 51 % 55 % 999,6 hPa 0,0 l/m² 11,3 km/h (2 Bft) W-SW 247 ° 1 min 134 W/m² 6,6 °C 13,2 °C 14,5 km/h (3 Bft)
15.04.2024 18:11 21,9 °C 15,5 °C 51 % 54 % 999,6 hPa 0,0 l/m² 11,8 km/h (2 Bft) SW 218 ° 1 min 121 W/m² 6,2 °C 12,9 °C 16,1 km/h (3 Bft)
15.04.2024 18:12 21,9 °C 15,5 °C 51 % 55 % 999,6 hPa 0,0 l/m² 10,4 km/h (2 Bft) S-SW 209 ° 1 min 114 W/m² 6,5 °C 13,5 °C 12,9 km/h (3 Bft)
15.04.2024 18:13 21,9 °C 15,4 °C 51 % 56 % 999,6 hPa 0,0 l/m² 9,2 km/h (2 Bft) S-SW 198 ° 1 min 107 W/m² 6,7 °C 13,9 °C 12,9 km/h (3 Bft)
15.04.2024 18:14 21,9 °C 15,4 °C 51 % 55 % 999,6 hPa 0,0 l/m² 11,9 km/h (2 Bft) SW 229 ° 1 min 102 W/m² 6,4 °C 12,8 °C 14,5 km/h (3 Bft)
15.04.2024 18:15 21,9 °C 15,3 °C 51 % 56 % 999,6 hPa 0,0 l/m² 11,1 km/h (2 Bft) SW 221 ° 1 min 98 W/m² 6,6 °C 13,0 °C 17,7 km/h (3 Bft)
15.04.2024 18:16 21,9 °C 15,3 °C 51 % 55 % 999,6 hPa 0,0 l/m² 11,8 km/h (2 Bft) SW 218 ° 1 min 98 W/m² 6,3 °C 12,7 °C 19,3 km/h (3 Bft)
15.04.2024 18:17 21,9 °C 15,3 °C 51 % 54 % 999,4 hPa 0,0 l/m² 17,1 km/h (3 Bft) SW 232 ° 1 min 100 W/m² 6,0 °C 10,9 °C 22,5 km/h (4 Bft)
15.04.2024 18:18 21,9 °C 15,3 °C 51 % 54 % 999,4 hPa 0,0 l/m² 13,5 km/h (3 Bft) SW 225 ° 1 min 100 W/m² 6,0 °C 12,1 °C 17,7 km/h (3 Bft)
15.04.2024 18:19 21,9 °C 15,3 °C 51 % 54 % 999,4 hPa 0,0 l/m² 17,8 km/h (3 Bft) S-SW 208 ° 1 min 100 W/m² 6,0 °C 10,7 °C 24,1 km/h (4 Bft)
15.04.2024 18:20 21,9 °C 15,4 °C 52 % 53 % 999,4 hPa 0,0 l/m² 13,8 km/h (3 Bft) SW 219 ° 1 min 98 W/m² 5,9 °C 12,1 °C 17,7 km/h (3 Bft)
15.04.2024 18:21 21,9 °C 15,4 °C 52 % 54 % 999,3 hPa 0,0 l/m² 11,1 km/h (2 Bft) SW 215 ° 1 min 97 W/m² 6,1 °C 13,1 °C 16,1 km/h (3 Bft)
15.04.2024 18:22 21,8 °C 15,4 °C 52 % 54 % 999,3 hPa 0,0 l/m² 14,3 km/h (3 Bft) SW 218 ° 1 min 95 W/m² 6,1 °C 11,9 °C 19,3 km/h (3 Bft)
15.04.2024 18:23 21,9 °C 15,3 °C 52 % 55 % 999,2 hPa 0,0 l/m² 13,1 km/h (3 Bft) W-SW 250 ° 1 min 91 W/m² 6,3 °C 12,2 °C 17,7 km/h (3 Bft)
15.04.2024 18:24 21,9 °C 15,3 °C 52 % 55 % 999,2 hPa 0,0 l/m² 10,3 km/h (2 Bft) SW 227 ° 1 min 88 W/m² 6,3 °C 13,3 °C 14,5 km/h (3 Bft)
15.04.2024 18:25 21,9 °C 15,3 °C 52 % 55 % 999,2 hPa 0,0 l/m² 11,8 km/h (2 Bft) SW 235 ° 1 min 88 W/m² 6,3 °C 12,7 °C 16,1 km/h (3 Bft)
15.04.2024 18:26 21,9 °C 15,3 °C 52 % 55 % 999,1 hPa 0,0 l/m² 8,7 km/h (2 Bft) SW 234 ° 1 min 88 W/m² 6,3 °C 14,1 °C 11,3 km/h (2 Bft)
15.04.2024 18:27 21,9 °C 15,3 °C 52 % 54 % 999,0 hPa 0,0 l/m² 9,4 km/h (2 Bft) W-SW 237 ° 1 min 90 W/m² 6,0 °C 13,7 °C 12,9 km/h (3 Bft)
15.04.2024 18:28 21,9 °C 15,3 °C 52 % 56 % 999,0 hPa 0,0 l/m² 9,3 km/h (2 Bft) S-SW 198 ° 1 min 86 W/m² 6,6 °C 13,8 °C 12,9 km/h (3 Bft)
15.04.2024 18:29 21,9 °C 15,2 °C 52 % 56 % 999,0 hPa 0,0 l/m² 8,0 km/h (2 Bft) SW 220 ° 1 min 72 W/m² 6,5 °C 14,3 °C 12,9 km/h (3 Bft)
15.04.2024 18:30 21,9 °C 15,2 °C 52 % 55 % 999,0 hPa 0,0 l/m² 9,5 km/h (2 Bft) SW 232 ° 1 min 63 W/m² 6,2 °C 13,6 °C 12,9 km/h (3 Bft)
15.04.2024 18:31 21,9 °C 15,2 °C 52 % 55 % 998,9 hPa 0,0 l/m² 5,4 km/h (2 Bft) S-SW 209 ° 1 min 56 W/m² 6,2 °C 15,2 °C 9,7 km/h (2 Bft)
15.04.2024 18:32 21,9 °C 15,1 °C 53 % 57 % 999,0 hPa 0,0 l/m² 6,6 km/h (2 Bft) SW 225 ° 0 min 51 W/m² 6,6 °C 15,0 °C 8,0 km/h (2 Bft)
15.04.2024 18:33 21,9 °C 15,1 °C 53 % 57 % 998,9 hPa 0,0 l/m² 7,6 km/h (2 Bft) W-SW 237 ° 0 min 46 W/m² 6,6 °C 14,4 °C 11,3 km/h (2 Bft)
15.04.2024 18:34 21,9 °C 15,0 °C 53 % 56 % 998,8 hPa 0,0 l/m² 9,0 km/h (2 Bft) SW 219 ° 0 min 39 W/m² 6,3 °C 13,6 °C 11,3 km/h (2 Bft)
15.04.2024 18:35 21,9 °C 15,0 °C 53 % 56 % 998,8 hPa 0,0 l/m² 8,7 km/h (2 Bft) SW 224 ° 0 min 35 W/m² 6,3 °C 13,7 °C 14,5 km/h (3 Bft)
15.04.2024 18:36 21,9 °C 15,0 °C 53 % 56 % 998,8 hPa 0,0 l/m² 8,5 km/h (2 Bft) SW 226 ° 0 min 32 W/m² 6,3 °C 13,8 °C 11,3 km/h (2 Bft)
15.04.2024 18:37 21,9 °C 14,9 °C 53 % 57 % 998,7 hPa 0,0 l/m² 11,5 km/h (2 Bft) S-SW 198 ° 0 min 28 W/m² 6,5 °C 12,4 °C 17,7 km/h (3 Bft)
15.04.2024 18:38 21,9 °C 14,9 °C 53 % 56 % 998,7 hPa 0,0 l/m² 9,7 km/h (2 Bft) S-SW 211 ° 0 min 28 W/m² 6,2 °C 13,1 °C 17,7 km/h (3 Bft)
15.04.2024 18:39 21,9 °C 14,9 °C 53 % 56 % 998,7 hPa 0,0 l/m² 11,9 km/h (2 Bft) SW 225 ° 0 min 28 W/m² 6,2 °C 12,2 °C 16,1 km/h (3 Bft)
15.04.2024 18:40 21,9 °C 14,9 °C 53 % 56 % 998,7 hPa 0,0 l/m² 8,8 km/h (2 Bft) SW 229 ° 0 min 30 W/m² 6,2 °C 13,6 °C 14,5 km/h (3 Bft)
15.04.2024 18:41 21,9 °C 14,9 °C 53 % 56 % 998,7 hPa 0,0 l/m² 5,0 km/h (1 Bft) SW 221 ° 0 min 28 W/m² 6,2 °C 14,9 °C 8,0 km/h (2 Bft)
15.04.2024 18:42 21,9 °C 14,8 °C 53 % 56 % 998,6 hPa 0,0 l/m² 5,3 km/h (1 Bft) SW 228 ° 0 min 26 W/m² 6,1 °C 14,8 °C 8,0 km/h (2 Bft)
15.04.2024 18:43 21,9 °C 14,9 °C 53 % 56 % 998,6 hPa 0,0 l/m² 6,2 km/h (2 Bft) SW 228 ° 0 min 23 W/m² 6,2 °C 14,9 °C 8,0 km/h (2 Bft)
15.04.2024 18:44 21,9 °C 14,8 °C 53 % 58 % 998,6 hPa 0,0 l/m² 4,1 km/h (1 Bft) SW 228 ° 0 min 19 W/m² 6,6 °C 14,8 °C 4,8 km/h (1 Bft)
15.04.2024 18:46 21,9 °C 14,7 °C 53 % 59 % 998,7 hPa 0,0 l/m² 5,3 km/h (1 Bft) SW 221 ° 0 min 12 W/m² 6,8 °C 14,7 °C 8,0 km/h (2 Bft)
15.04.2024 18:47 21,9 °C 14,6 °C 53 % 59 % 998,6 hPa 0,0 l/m² 5,0 km/h (1 Bft) SW 221 ° 0 min 11 W/m² 6,7 °C 14,6 °C 8,0 km/h (2 Bft)
15.04.2024 18:48 21,9 °C 14,5 °C 53 % 60 % 998,6 hPa 0,0 l/m² 6,8 km/h (2 Bft) SW 223 ° 0 min 11 W/m² 6,8 °C 14,3 °C 8,0 km/h (2 Bft)
15.04.2024 18:49 21,9 °C 14,4 °C 53 % 61 % 998,7 hPa 0,0 l/m² 8,0 km/h (2 Bft) S-SW 211 ° 0 min 11 W/m² 7,0 °C 13,5 °C 12,9 km/h (3 Bft)
15.04.2024 18:50 21,9 °C 14,3 °C 53 % 62 % 998,8 hPa 0,0 l/m² 9,5 km/h (2 Bft) S-SW 198 ° 0 min 12 W/m² 7,1 °C 12,6 °C 11,3 km/h (2 Bft)
15.04.2024 18:51 21,9 °C 14,1 °C 53 % 62 % 998,9 hPa 0,0 l/m² 11,5 km/h (2 Bft) S-SW 198 ° 0 min 14 W/m² 6,9 °C 11,4 °C 12,9 km/h (3 Bft)
15.04.2024 18:52 21,9 °C 14,1 °C 53 % 62 % 998,8 hPa 0,0 l/m² 15,3 km/h (3 Bft) S 186 ° 0 min 18 W/m² 6,9 °C 10,0 °C 20,9 km/h (4 Bft)
15.04.2024 18:53 21,9 °C 14,0 °C 53 % 61 % 999,2 hPa 0,0 l/m² 20,7 km/h (4 Bft) SW 219 ° 0 min 19 W/m² 6,6 °C 8,3 °C 33,8 km/h (5 Bft)
15.04.2024 18:54 21,9 °C 14,0 °C 53 % 59 % 999,2 hPa 0,0 l/m² 35,2 km/h (5 Bft) SW 221 ° 0 min 19 W/m² 6,1 °C 5,5 °C 45,1 km/h (6 Bft)
15.04.2024 18:55 21,9 °C 14,0 °C 53 % 59 % 999,4 hPa 0,0 l/m² 31,6 km/h (5 Bft) S 190 ° 0 min 21 W/m² 6,1 °C 6,0 °C 49,9 km/h (7 Bft)
15.04.2024 18:56 21,9 °C 14,0 °C 53 % 59 % 999,4 hPa 0,0 l/m² 31,2 km/h (5 Bft) W-SW 244 ° 0 min 21 W/m² 6,1 °C 6,1 °C 41,8 km/h (6 Bft)
15.04.2024 18:57 21,9 °C 14,0 °C 53 % 59 % 999,4 hPa 0,0 l/m² 29,5 km/h (5 Bft) S-SW 204 ° 0 min 23 W/m² 6,1 °C 6,4 °C 46,7 km/h (6 Bft)
15.04.2024 18:58 21,9 °C 13,9 °C 53 % 60 % 999,5 hPa 0,0 l/m² 35,8 km/h (5 Bft) S 184 ° 0 min 28 W/m² 6,3 °C 5,2 °C 54,7 km/h (7 Bft)
15.04.2024 18:59 21,9 °C 13,8 °C 53 % 60 % 999,4 hPa 0,0 l/m² 38,2 km/h (6 Bft) S-SW 206 ° 0 min 30 W/m² 6,2 °C 4,8 °C 46,7 km/h (6 Bft)
15.04.2024 19:00 21,9 °C 13,7 °C 53 % 60 % 999,2 hPa 0,0 l/m² 28,9 km/h (5 Bft) W-SW 246 ° 0 min 35 W/m² 6,1 °C 6,1 °C 37,0 km/h (5 Bft)
15.04.2024 19:01 21,9 °C 13,6 °C 53 % 59 % 999,0 hPa 0,0 l/m² 28,3 km/h (5 Bft) W-SW 254 ° 0 min 39 W/m² 5,7 °C 6,0 °C 37,0 km/h (5 Bft)
15.04.2024 19:02 21,9 °C 13,6 °C 53 % 61 % 998,9 hPa 0,0 l/m² 20,4 km/h (4 Bft) W-SW 237 ° 0 min 40 W/m² 6,2 °C 7,8 °C 25,7 km/h (4 Bft)
15.04.2024 19:03 21,9 °C 13,4 °C 53 % 60 % 998,9 hPa 0,0 l/m² 20,9 km/h (4 Bft) SW 234 ° 0 min 40 W/m² 5,8 °C 7,4 °C 25,7 km/h (4 Bft)
15.04.2024 19:04 21,9 °C 13,4 °C 53 % 61 % 999,0 hPa 0,0 l/m² 19,2 km/h (3 Bft) SW 231 ° 0 min 33 W/m² 6,0 °C 7,9 °C 25,7 km/h (4 Bft)
15.04.2024 19:05 21,9 °C 13,3 °C 53 % 61 % 998,9 hPa 0,0 l/m² 18,2 km/h (3 Bft) SW 234 ° 0 min 28 W/m² 5,9 °C 8,1 °C 24,1 km/h (4 Bft)
15.04.2024 19:06 21,9 °C 13,3 °C 53 % 61 % 998,9 hPa 0,0 l/m² 17,8 km/h (3 Bft) W-SW 254 ° 0 min 21 W/m² 5,9 °C 8,2 °C 25,7 km/h (4 Bft)
15.04.2024 19:07 21,9 °C 13,3 °C 53 % 61 % 999,0 hPa 0,0 l/m² 19,0 km/h (3 Bft) SW 225 ° 0 min 18 W/m² 5,9 °C 7,8 °C 27,4 km/h (5 Bft)
15.04.2024 19:08 21,9 °C 13,3 °C 53 % 61 % 999,1 hPa 0,0 l/m² 20,0 km/h (4 Bft) SW 235 ° 0 min 14 W/m² 5,9 °C 7,6 °C 25,7 km/h (4 Bft)
15.04.2024 19:09 21,9 °C 13,2 °C 53 % 61 % 999,1 hPa 0,0 l/m² 19,9 km/h (4 Bft) W-SW 251 ° 0 min 12 W/m² 5,8 °C 7,4 °C 27,4 km/h (5 Bft)
15.04.2024 19:10 21,9 °C 13,2 °C 53 % 61 % 999,2 hPa 0,0 l/m² 33,7 km/h (5 Bft) W 271 ° 0 min 11 W/m² 5,8 °C 4,5 °C 48,3 km/h (6 Bft)
15.04.2024 19:11 21,9 °C 13,2 °C 53 % 62 % 999,2 hPa 0,0 l/m² 27,1 km/h (5 Bft) W 267 ° 0 min 12 W/m² 6,1 °C 5,7 °C 35,4 km/h (5 Bft)
15.04.2024 19:12 21,9 °C 13,1 °C 53 % 64 % 999,2 hPa 0,0 l/m² 29,5 km/h (5 Bft) W-SW 246 ° 0 min 14 W/m² 6,4 °C 5,1 °C 37,0 km/h (5 Bft)
15.04.2024 19:13 21,9 °C 13,1 °C 53 % 65 % 999,2 hPa 0,0 l/m² 26,2 km/h (4 Bft) W 259 ° 0 min 19 W/m² 6,7 °C 5,8 °C 33,8 km/h (5 Bft)
15.04.2024 19:14 21,9 °C 12,9 °C 53 % 65 % 999,2 hPa 0,0 l/m² 26,2 km/h (4 Bft) W-SW 245 ° 0 min 23 W/m² 6,5 °C 5,5 °C 37,0 km/h (5 Bft)
15.04.2024 19:15 21,9 °C 12,9 °C 53 % 65 % 999,2 hPa 0,0 l/m² 25,4 km/h (4 Bft) W 265 ° 0 min 23 W/m² 6,5 °C 5,7 °C 32,2 km/h (5 Bft)
15.04.2024 19:16 21,9 °C 12,8 °C 53 % 65 % 999,2 hPa 0,0 l/m² 24,0 km/h (4 Bft) W-SW 257 ° 0 min 30 W/m² 6,4 °C 5,9 °C 30,6 km/h (5 Bft)
15.04.2024 19:17 21,9 °C 12,7 °C 53 % 66 % 999,1 hPa 0,0 l/m² 27,6 km/h (5 Bft) W 266 ° 0 min 33 W/m² 6,5 °C 4,9 °C 37,0 km/h (5 Bft)
15.04.2024 19:18 21,9 °C 12,6 °C 53 % 66 % 999,1 hPa 0,0 l/m² 24,7 km/h (4 Bft) W-SW 253 ° 0 min 35 W/m² 6,4 °C 5,4 °C 35,4 km/h (5 Bft)
15.04.2024 19:19 21,9 °C 12,6 °C 53 % 67 % 999,3 hPa 0,0 l/m² 22,9 km/h (4 Bft) S-SW 213 ° 0 min 35 W/m² 6,6 °C 5,9 °C 30,6 km/h (5 Bft)
15.04.2024 19:20 21,9 °C 12,5 °C 53 % 67 % 999,1 hPa 0,0 l/m² 25,6 km/h (4 Bft) SW 236 ° 0 min 40 W/m² 6,5 °C 5,1 °C 33,8 km/h (5 Bft)
15.04.2024 19:21 21,9 °C 12,5 °C 53 % 67 % 999,4 hPa 0,0 l/m² 25,6 km/h (4 Bft) W-SW 246 ° 0 min 44 W/m² 6,5 °C 5,1 °C 33,8 km/h (5 Bft)
15.04.2024 19:22 21,9 °C 12,4 °C 53 % 68 % 999,3 hPa 0,0 l/m² 24,5 km/h (4 Bft) W 279 ° 0 min 47 W/m² 6,7 °C 5,2 °C 33,8 km/h (5 Bft)
15.04.2024 19:23 21,9 °C 12,4 °C 53 % 68 % 999,3 hPa 0,0 l/m² 27,4 km/h (5 Bft) W-SW 245 ° 1 min 53 W/m² 6,7 °C 4,6 °C 35,4 km/h (5 Bft)
15.04.2024 19:24 21,8 °C 12,3 °C 53 % 68 % 998,8 hPa 0,0 l/m² 25,7 km/h (4 Bft) W-SW 251 ° 1 min 54 W/m² 6,6 °C 4,8 °C 37,0 km/h (5 Bft)
15.04.2024 19:25 21,9 °C 12,3 °C 53 % 64 % 998,8 hPa 0,0 l/m² 19,6 km/h (3 Bft) W-SW 238 ° 1 min 53 W/m² 5,7 °C 6,4 °C 24,1 km/h (4 Bft)
15.04.2024 19:26 21,9 °C 12,3 °C 53 % 64 % 998,9 hPa 0,0 l/m² 21,5 km/h (4 Bft) SW 235 ° 0 min 51 W/m² 5,7 °C 5,8 °C 27,4 km/h (5 Bft)
15.04.2024 19:27 21,9 °C 12,3 °C 53 % 65 % 999,0 hPa 0,0 l/m² 26,2 km/h (4 Bft) SW 217 ° 0 min 42 W/m² 5,9 °C 4,7 °C 43,5 km/h (6 Bft)
15.04.2024 19:28 21,9 °C 12,3 °C 53 % 65 % 998,9 hPa 0,0 l/m² 26,2 km/h (4 Bft) SW 223 ° 0 min 39 W/m² 5,9 °C 4,7 °C 33,8 km/h (5 Bft)
15.04.2024 19:29 21,9 °C 12,3 °C 53 % 65 % 998,8 hPa 0,0 l/m² 29,8 km/h (5 Bft) SW 221 ° 0 min 37 W/m² 5,9 °C 3,9 °C 35,4 km/h (5 Bft)
15.04.2024 19:30 21,8 °C 12,3 °C 53 % 65 % 998,9 hPa 0,0 l/m² 26,2 km/h (4 Bft) W-SW 250 ° 0 min 37 W/m² 5,9 °C 4,7 °C 33,8 km/h (5 Bft)
15.04.2024 19:31 21,9 °C 12,3 °C 53 % 61 % 998,6 hPa 0,0 l/m² 27,6 km/h (5 Bft) W-SW 242 ° 0 min 37 W/m² 5,0 °C 4,4 °C 35,4 km/h (5 Bft)
15.04.2024 19:32 21,9 °C 12,4 °C 53 % 59 % 998,5 hPa 0,0 l/m² 24,8 km/h (4 Bft) SW 226 ° 0 min 40 W/m² 4,6 °C 5,1 °C 32,2 km/h (5 Bft)
15.04.2024 19:33 21,9 °C 12,4 °C 53 % 59 % 998,4 hPa 0,0 l/m² 23,7 km/h (4 Bft) W-SW 248 ° 0 min 42 W/m² 4,6 °C 5,4 °C 32,2 km/h (5 Bft)
15.04.2024 19:34 21,9 °C 12,6 °C 53 % 59 % 998,5 hPa 0,0 l/m² 23,3 km/h (4 Bft) S-SW 207 ° 0 min 42 W/m² 4,8 °C 5,8 °C 30,6 km/h (5 Bft)
15.04.2024 19:35 21,9 °C 12,7 °C 53 % 59 % 998,5 hPa 0,0 l/m² 16,9 km/h (3 Bft) W-SW 238 ° 0 min 42 W/m² 4,9 °C 7,7 °C 24,1 km/h (4 Bft)
15.04.2024 19:36 21,9 °C 12,7 °C 53 % 60 % 998,4 hPa 0,0 l/m² 14,1 km/h (3 Bft) SW 234 ° 0 min 40 W/m² 5,1 °C 8,7 °C 24,1 km/h (4 Bft)
15.04.2024 19:37 21,9 °C 12,8 °C 54 % 60 % 998,4 hPa 0,0 l/m² 19,1 km/h (3 Bft) S-SW 206 ° 0 min 37 W/m² 5,2 °C 7,2 °C 22,5 km/h (4 Bft)
15.04.2024 19:38 21,9 °C 12,8 °C 53 % 59 % 998,3 hPa 0,0 l/m² 18,4 km/h (3 Bft) S-SW 202 ° 0 min 32 W/m² 5,0 °C 7,4 °C 25,7 km/h (4 Bft)
15.04.2024 19:39 21,9 °C 12,8 °C 53 % 59 % 998,3 hPa 0,0 l/m² 18,5 km/h (3 Bft) SW 215 ° 0 min 21 W/m² 5,0 °C 7,3 °C 24,1 km/h (4 Bft)
15.04.2024 19:40 21,8 °C 12,8 °C 54 % 59 % 998,4 hPa 0,0 l/m² 17,4 km/h (3 Bft) W-SW 243 ° 0 min 18 W/m² 5,0 °C 7,7 °C 24,1 km/h (4 Bft)
15.04.2024 19:41 21,9 °C 12,8 °C 54 % 59 % 998,2 hPa 0,0 l/m² 11,0 km/h (2 Bft) S-SW 210 ° 0 min 14 W/m² 5,0 °C 10,2 °C 17,7 km/h (3 Bft)
15.04.2024 19:42 21,9 °C 12,8 °C 53 % 61 % 998,3 hPa 0,0 l/m² 15,5 km/h (3 Bft) SW 215 ° 0 min 14 W/m² 5,5 °C 8,3 °C 25,7 km/h (4 Bft)
15.04.2024 19:43 21,9 °C 12,7 °C 53 % 61 % 998,2 hPa 0,0 l/m² 13,1 km/h (3 Bft) SW 217 ° 0 min 12 W/m² 5,4 °C 9,2 °C 19,3 km/h (3 Bft)
15.04.2024 19:44 21,9 °C 12,7 °C 54 % 62 % 998,2 hPa 0,0 l/m² 8,5 km/h (2 Bft) SW 219 ° 0 min 11 W/m² 5,6 °C 11,4 °C 14,5 km/h (3 Bft)
15.04.2024 19:45 21,9 °C 12,6 °C 53 % 62 % 998,2 hPa 0,0 l/m² 9,2 km/h (2 Bft) SW 217 ° 0 min 11 W/m² 5,5 °C 10,9 °C 12,9 km/h (3 Bft)
15.04.2024 19:46 21,9 °C 12,4 °C 53 % 63 % 998,2 hPa 0,0 l/m² 9,6 km/h (2 Bft) SW 215 ° 0 min 9 W/m² 5,6 °C 10,5 °C 12,9 km/h (3 Bft)
15.04.2024 19:47 21,9 °C 12,3 °C 54 % 63 % 998,2 hPa 0,0 l/m² 9,8 km/h (2 Bft) S-SW 213 ° 0 min 9 W/m² 5,5 °C 10,2 °C 14,5 km/h (3 Bft)
15.04.2024 19:48 21,8 °C 12,2 °C 53 % 64 % 998,2 hPa 0,0 l/m² 11,3 km/h (2 Bft) SW 219 ° 0 min 9 W/m² 5,6 °C 9,4 °C 16,1 km/h (3 Bft)
15.04.2024 19:49 21,8 °C 12,1 °C 54 % 64 % 998,2 hPa 0,0 l/m² 10,9 km/h (2 Bft) S-SW 202 ° 0 min 9 W/m² 5,5 °C 9,5 °C 12,9 km/h (3 Bft)
15.04.2024 19:50 21,9 °C 12,0 °C 53 % 64 % 998,2 hPa 0,0 l/m² 9,7 km/h (2 Bft) SW 217 ° 0 min 7 W/m² 5,4 °C 10,0 °C 14,5 km/h (3 Bft)
15.04.2024 19:51 21,9 °C 11,9 °C 53 % 65 % 998,1 hPa 0,0 l/m² 8,2 km/h (2 Bft) S-SW 213 ° 0 min 7 W/m² 5,5 °C 10,7 °C 11,3 km/h (2 Bft)
15.04.2024 19:52 21,8 °C 11,8 °C 53 % 65 % 998,1 hPa 0,0 l/m² 8,1 km/h (2 Bft) S-SW 206 ° 0 min 7 W/m² 5,4 °C 10,7 °C 11,3 km/h (2 Bft)
15.04.2024 19:53 21,8 °C 11,7 °C 53 % 65 % 998,0 hPa 0,0 l/m² 9,2 km/h (2 Bft) S-SW 210 ° 0 min 7 W/m² 5,3 °C 9,9 °C 12,9 km/h (3 Bft)
15.04.2024 19:54 21,9 °C 11,7 °C 53 % 66 % 998,0 hPa 0,0 l/m² 7,6 km/h (2 Bft) S-SW 200 ° 0 min 7 W/m² 5,6 °C 10,9 °C 9,7 km/h (2 Bft)
15.04.2024 19:55 21,9 °C 11,6 °C 53 % 67 % 998,0 hPa 0,0 l/m² 8,3 km/h (2 Bft) S-SW 198 ° 0 min 7 W/m² 5,7 °C 10,3 °C 11,3 km/h (2 Bft)
15.04.2024 19:56 21,8 °C 11,5 °C 53 % 67 % 998,0 hPa 0,0 l/m² 9,1 km/h (2 Bft) S-SW 208 ° 0 min 7 W/m² 5,6 °C 9,8 °C 12,9 km/h (3 Bft)
15.04.2024 19:57 21,8 °C 11,4 °C 53 % 67 % 998,0 hPa 0,0 l/m² 8,1 km/h (2 Bft) S-SW 208 ° 0 min 5 W/m² 5,5 °C 10,3 °C 11,3 km/h (2 Bft)
15.04.2024 19:58 21,8 °C 11,3 °C 53 % 68 % 998,0 hPa 0,0 l/m² 6,0 km/h (2 Bft) S-SW 209 ° 0 min 5 W/m² 5,6 °C 11,3 °C 8,0 km/h (2 Bft)
15.04.2024 19:59 21,8 °C 11,2 °C 53 % 68 % 997,9 hPa 0,0 l/m² 6,1 km/h (2 Bft) S-SW 208 ° 0 min 5 W/m² 5,5 °C 11,2 °C 8,0 km/h (2 Bft)
15.04.2024 20:00 21,8 °C 11,1 °C 53 % 69 % 998,0 hPa 0,0 l/m² 6,6 km/h (2 Bft) S-SW 208 ° 0 min 5 W/m² 5,6 °C 11,0 °C 8,0 km/h (2 Bft)
15.04.2024 20:01 21,8 °C 11,0 °C 53 % 69 % 997,9 hPa 0,0 l/m² 5,8 km/h (2 Bft) S-SW 207 ° 0 min 5 W/m² 5,5 °C 11,0 °C 8,0 km/h (2 Bft)
15.04.2024 20:02 21,8 °C 10,9 °C 54 % 70 % 997,8 hPa 0,0 l/m² 7,3 km/h (2 Bft) S-SW 207 ° 0 min 5 W/m² 5,6 °C 10,3 °C 9,7 km/h (2 Bft)
15.04.2024 20:03 21,8 °C 10,8 °C 54 % 71 % 997,9 hPa 0,0 l/m² 7,2 km/h (2 Bft) S-SW 211 ° 0 min 5 W/m² 5,8 °C 10,2 °C 9,7 km/h (2 Bft)
15.04.2024 20:04 21,8 °C 10,7 °C 54 % 71 % 997,9 hPa 0,0 l/m² 8,1 km/h (2 Bft) S-SW 207 ° 0 min 5 W/m² 5,7 °C 9,5 °C 11,3 km/h (2 Bft)
15.04.2024 20:05 21,8 °C 10,6 °C 54 % 72 % 997,9 hPa 0,0 l/m² 7,0 km/h (2 Bft) S-SW 204 ° 0 min 0 W/m² 5,8 °C 10,2 °C 9,7 km/h (2 Bft)
15.04.2024 20:06 21,9 °C 10,5 °C 54 % 72 % 997,9 hPa 0,0 l/m² 6,4 km/h (2 Bft) S-SW 205 ° 0 min 0 W/m² 5,7 °C 10,5 °C 9,7 km/h (2 Bft)
15.04.2024 20:07 21,8 °C 10,4 °C 54 % 73 % 997,8 hPa 0,0 l/m² 7,0 km/h (2 Bft) S-SW 202 ° 0 min 0 W/m² 5,8 °C 10,0 °C 8,0 km/h (2 Bft)
15.04.2024 20:08 21,8 °C 10,3 °C 54 % 73 % 997,7 hPa 0,0 l/m² 6,8 km/h (2 Bft) S-SW 199 ° 0 min 0 W/m² 5,7 °C 10,0 °C 8,0 km/h (2 Bft)
15.04.2024 20:09 21,8 °C 10,2 °C 54 % 73 % 997,8 hPa 0,0 l/m² 5,2 km/h (1 Bft) S-SW 199 ° 0 min 0 W/m² 5,6 °C 10,2 °C 6,4 km/h (2 Bft)
15.04.2024 20:10 21,8 °C 10,2 °C 54 % 73 % 997,8 hPa 0,0 l/m² 4,1 km/h (1 Bft) S-SW 199 ° 0 min 0 W/m² 5,6 °C 10,2 °C 4,8 km/h (1 Bft)
15.04.2024 20:11 21,8 °C 10,2 °C 54 % 74 % 997,7 hPa 0,0 l/m² 5,8 km/h (2 Bft) S-SW 196 ° 0 min 0 W/m² 5,8 °C 10,2 °C 8,0 km/h (2 Bft)
15.04.2024 20:12 21,8 °C 10,1 °C 54 % 74 % 997,7 hPa 0,0 l/m² 5,4 km/h (2 Bft) S-SW 196 ° 0 min 0 W/m² 5,7 °C 10,1 °C 8,0 km/h (2 Bft)
15.04.2024 20:13 21,8 °C 10,1 °C 54 % 74 % 997,8 hPa 0,0 l/m² 5,2 km/h (1 Bft) S-SW 199 ° 0 min 0 W/m² 5,7 °C 10,1 °C 6,4 km/h (2 Bft)
15.04.2024 20:14 21,8 °C 10,1 °C 54 % 74 % 997,8 hPa 0,0 l/m² 5,5 km/h (2 Bft) S-SW 199 ° 0 min 0 W/m² 5,7 °C 10,1 °C 8,0 km/h (2 Bft)
15.04.2024 20:15 21,8 °C 10,1 °C 54 % 74 % 997,7 hPa 0,0 l/m² 5,7 km/h (2 Bft) S-SW 205 ° 0 min 0 W/m² 5,7 °C 10,1 °C 9,7 km/h (2 Bft)
15.04.2024 20:16 21,8 °C 10,1 °C 54 % 74 % 997,7 hPa 0,0 l/m² 5,6 km/h (2 Bft) S-SW 205 ° 0 min 0 W/m² 5,7 °C 10,1 °C 6,4 km/h (2 Bft)
15.04.2024 20:17 21,8 °C 10,1 °C 54 % 74 % 997,7 hPa 0,0 l/m² 5,7 km/h (2 Bft) S-SW 203 ° 0 min 0 W/m² 5,7 °C 10,1 °C 8,0 km/h (2 Bft)
15.04.2024 20:18 21,8 °C 10,1 °C 54 % 74 % 997,7 hPa 0,0 l/m² 4,9 km/h (1 Bft) S-SW 205 ° 0 min 0 W/m² 5,7 °C 10,1 °C 6,4 km/h (2 Bft)
15.04.2024 20:19 21,8 °C 10,1 °C 54 % 74 % 997,7 hPa 0,0 l/m² 5,2 km/h (1 Bft) S-SW 205 ° 0 min 0 W/m² 5,7 °C 10,1 °C 6,4 km/h (2 Bft)
15.04.2024 20:20 21,8 °C 10,1 °C 54 % 74 % 997,7 hPa 0,0 l/m² 6,1 km/h (2 Bft) S-SW 205 ° 0 min 0 W/m² 5,7 °C 10,1 °C 6,4 km/h (2 Bft)
15.04.2024 20:21 21,8 °C 10,0 °C 54 % 74 % 997,7 hPa 0,0 l/m² 5,1 km/h (1 Bft) S-SW 205 ° 0 min 0 W/m² 5,6 °C 10,0 °C 6,4 km/h (2 Bft)
15.04.2024 20:22 21,8 °C 10,0 °C 54 % 74 % 997,7 hPa 0,0 l/m² 4,2 km/h (1 Bft) S-SW 205 ° 0 min 0 W/m² 5,6 °C 10,0 °C 6,4 km/h (2 Bft)
15.04.2024 20:23 21,8 °C 10,0 °C 54 % 74 % 997,7 hPa 0,0 l/m² 5,1 km/h (1 Bft) S-SW 205 ° 0 min 0 W/m² 5,6 °C 10,0 °C 6,4 km/h (2 Bft)
15.04.2024 20:24 21,8 °C 10,1 °C 54 % 74 % 997,6 hPa 0,0 l/m² 4,4 km/h (1 Bft) S-SW 205 ° 0 min 0 W/m² 5,7 °C 10,1 °C 6,4 km/h (2 Bft)
15.04.2024 20:25 21,8 °C 10,0 °C 54 % 74 % 997,7 hPa 0,0 l/m² 5,6 km/h (2 Bft) S-SW 205 ° 0 min 0 W/m² 5,6 °C 10,0 °C 6,4 km/h (2 Bft)
15.04.2024 20:26 21,8 °C 10,0 °C 54 % 74 % 997,6 hPa 0,0 l/m² 5,0 km/h (1 Bft) S-SW 205 ° 0 min 0 W/m² 5,6 °C 10,0 °C 6,4 km/h (2 Bft)
15.04.2024 20:27 21,8 °C 10,1 °C 54 % 73 % 997,6 hPa 0,0 l/m² 4,7 km/h (1 Bft) S-SW 205 ° 0 min 0 W/m² 5,5 °C 10,1 °C 6,4 km/h (2 Bft)
15.04.2024 20:28 21,8 °C 10,1 °C 54 % 73 % 997,6 hPa 0,0 l/m² 4,5 km/h (1 Bft) S-SW 205 ° 0 min 0 W/m² 5,5 °C 10,1 °C 6,4 km/h (2 Bft)
15.04.2024 20:29 21,8 °C 10,1 °C 54 % 73 % 997,6 hPa 0,0 l/m² 4,5 km/h (1 Bft) S-SW 205 ° 0 min 0 W/m² 5,5 °C 10,1 °C 4,8 km/h (1 Bft)
15.04.2024 20:30 21,8 °C 10,2 °C 54 % 73 % 997,6 hPa 0,0 l/m² 5,6 km/h (2 Bft) S-SW 206 ° 0 min 0 W/m² 5,6 °C 10,2 °C 8,0 km/h (2 Bft)
15.04.2024 20:31 21,8 °C 10,2 °C 54 % 72 % 997,6 hPa 0,0 l/m² 6,8 km/h (2 Bft) SW 216 ° 0 min 0 W/m² 5,4 °C 9,9 °C 8,0 km/h (2 Bft)
15.04.2024 20:32 21,8 °C 10,2 °C 54 % 72 % 997,7 hPa 0,0 l/m² 8,1 km/h (2 Bft) SW 214 ° 0 min 0 W/m² 5,4 °C 9,0 °C 12,9 km/h (3 Bft)
15.04.2024 20:33 21,8 °C 10,2 °C 54 % 72 % 997,7 hPa 0,0 l/m² 6,6 km/h (2 Bft) S-SW 209 ° 0 min 0 W/m² 5,4 °C 10,1 °C 8,0 km/h (2 Bft)
15.04.2024 20:34 21,8 °C 10,2 °C 54 % 72 % 997,6 hPa 0,0 l/m² 6,7 km/h (2 Bft) S-SW 211 ° 0 min 0 W/m² 5,4 °C 10,0 °C 9,7 km/h (2 Bft)
15.04.2024 20:35 21,8 °C 10,2 °C 54 % 72 % 997,7 hPa 0,0 l/m² 5,8 km/h (2 Bft) S-SW 201 ° 0 min 0 W/m² 5,4 °C 10,2 °C 9,7 km/h (2 Bft)
15.04.2024 20:36 21,8 °C 10,2 °C 54 % 73 % 997,7 hPa 0,0 l/m² 6,7 km/h (2 Bft) S-SW 200 ° 0 min 0 W/m² 5,6 °C 10,0 °C 9,7 km/h (2 Bft)
15.04.2024 20:37 21,8 °C 10,2 °C 54 % 72 % 997,7 hPa 0,0 l/m² 5,9 km/h (2 Bft) S-SW 207 ° 0 min 0 W/m² 5,4 °C 10,2 °C 8,0 km/h (2 Bft)
15.04.2024 20:38 21,8 °C 10,2 °C 54 % 72 % 997,7 hPa 0,0 l/m² 7,2 km/h (2 Bft) SW 217 ° 0 min 0 W/m² 5,4 °C 9,6 °C 11,3 km/h (2 Bft)
15.04.2024 20:39 21,8 °C 10,2 °C 54 % 72 % 997,7 hPa 0,0 l/m² 7,3 km/h (2 Bft) SW 217 ° 0 min 0 W/m² 5,4 °C 9,6 °C 9,7 km/h (2 Bft)
15.04.2024 20:40 21,8 °C 10,3 °C 54 % 72 % 997,7 hPa 0,0 l/m² 7,7 km/h (2 Bft) S-SW 211 ° 0 min 0 W/m² 5,5 °C 9,4 °C 9,7 km/h (2 Bft)
15.04.2024 20:41 21,8 °C 10,3 °C 54 % 72 % 997,7 hPa 0,0 l/m² 7,8 km/h (2 Bft) SW 217 ° 0 min 0 W/m² 5,5 °C 9,3 °C 9,7 km/h (2 Bft)
15.04.2024 20:42 21,8 °C 10,3 °C 54 % 72 % 997,8 hPa 0,0 l/m² 9,4 km/h (2 Bft) S-SW 207 ° 0 min 0 W/m² 5,5 °C 8,3 °C 12,9 km/h (3 Bft)
15.04.2024 20:43 21,8 °C 10,4 °C 54 % 71 % 997,9 hPa 0,0 l/m² 10,2 km/h (2 Bft) S 188 ° 0 min 0 W/m² 5,4 °C 7,9 °C 12,9 km/h (3 Bft)
15.04.2024 20:44 21,8 °C 10,4 °C 54 % 71 % 997,8 hPa 0,0 l/m² 10,4 km/h (2 Bft) S-SW 202 ° 0 min 0 W/m² 5,4 °C 7,8 °C 12,9 km/h (3 Bft)
15.04.2024 20:45 21,8 °C 10,6 °C 54 % 71 % 997,9 hPa 0,0 l/m² 15,5 km/h (3 Bft) SW 217 ° 0 min 0 W/m² 5,6 °C 5,7 °C 19,3 km/h (3 Bft)
15.04.2024 20:46 21,8 °C 10,7 °C 54 % 70 % 997,8 hPa 0,0 l/m² 21,9 km/h (4 Bft) S-SW 209 ° 0 min 0 W/m² 5,5 °C 3,6 °C 37,0 km/h (5 Bft)
15.04.2024 20:47 21,8 °C 10,8 °C 55 % 67 % 997,8 hPa 0,0 l/m² 21,1 km/h (4 Bft) S 190 ° 0 min 0 W/m² 4,9 °C 4,0 °C 27,4 km/h (5 Bft)
15.04.2024 20:48 21,8 °C 11,0 °C 55 % 67 % 997,8 hPa 0,0 l/m² 20,3 km/h (4 Bft) S-SW 202 ° 0 min 0 W/m² 5,1 °C 4,5 °C 24,1 km/h (4 Bft)
15.04.2024 20:49 21,8 °C 11,2 °C 55 % 66 % 997,8 hPa 0,0 l/m² 19,0 km/h (3 Bft) SW 231 ° 0 min 0 W/m² 5,1 °C 5,2 °C 29,0 km/h (5 Bft)
15.04.2024 20:50 21,8 °C 11,4 °C 55 % 66 % 997,7 hPa 0,0 l/m² 22,2 km/h (4 Bft) SW 215 ° 0 min 0 W/m² 5,3 °C 4,5 °C 33,8 km/h (5 Bft)
15.04.2024 20:51 21,8 °C 11,6 °C 56 % 65 % 997,8 hPa 0,0 l/m² 25,4 km/h (4 Bft) SW 230 ° 0 min 0 W/m² 5,2 °C 3,9 °C 30,6 km/h (5 Bft)
15.04.2024 20:52 21,9 °C 11,7 °C 56 % 64 % 997,8 hPa 0,0 l/m² 23,5 km/h (4 Bft) S-SW 206 ° 0 min 0 W/m² 5,1 °C 4,5 °C 29,0 km/h (5 Bft)
15.04.2024 20:53 21,8 °C 11,8 °C 56 % 64 % 997,8 hPa 0,0 l/m² 17,4 km/h (3 Bft) S-SW 213 ° 0 min 0 W/m² 5,2 °C 6,4 °C 24,1 km/h (4 Bft)
15.04.2024 20:54 21,9 °C 11,9 °C 56 % 64 % 997,8 hPa 0,0 l/m² 17,8 km/h (3 Bft) SW 214 ° 0 min 0 W/m² 5,3 °C 6,4 °C 22,5 km/h (4 Bft)
15.04.2024 20:55 21,9 °C 12,1 °C 56 % 63 % 997,9 hPa 0,0 l/m² 13,9 km/h (3 Bft) SW 219 ° 0 min 0 W/m² 5,3 °C 8,1 °C 19,3 km/h (3 Bft)
15.04.2024 20:56 21,8 °C 12,2 °C 56 % 64 % 997,9 hPa 0,0 l/m² 15,6 km/h (3 Bft) S-SW 208 ° 0 min 0 W/m² 5,6 °C 7,6 °C 22,5 km/h (4 Bft)
15.04.2024 20:57 21,9 °C 12,2 °C 56 % 63 % 997,8 hPa 0,0 l/m² 16,2 km/h (3 Bft) SW 229 ° 0 min 0 W/m² 5,4 °C 7,4 °C 20,9 km/h (4 Bft)
15.04.2024 20:58 21,9 °C 12,3 °C 56 % 62 % 997,8 hPa 0,0 l/m² 18,0 km/h (3 Bft) SW 227 ° 0 min 0 W/m² 5,2 °C 6,9 °C 29,0 km/h (5 Bft)
15.04.2024 20:59 21,9 °C 12,3 °C 57 % 62 % 997,9 hPa 0,0 l/m² 16,0 km/h (3 Bft) SW 217 ° 0 min 0 W/m² 5,2 °C 7,6 °C 22,5 km/h (4 Bft)
15.04.2024 21:00 21,9 °C 12,4 °C 57 % 62 % 997,8 hPa 0,0 l/m² 15,7 km/h (3 Bft) SW 219 ° 0 min 0 W/m² 5,3 °C 7,8 °C 20,9 km/h (4 Bft)
15.04.2024 21:01 21,9 °C 12,4 °C 57 % 62 % 997,8 hPa 0,0 l/m² 14,5 km/h (3 Bft) S-SW 204 ° 0 min 0 W/m² 5,3 °C 8,2 °C 20,9 km/h (4 Bft)
15.04.2024 21:02 22,0 °C 12,5 °C 57 % 61 % 997,8 hPa 0,0 l/m² 22,3 km/h (4 Bft) S-SW 192 ° 0 min 0 W/m² 5,2 °C 5,9 °C 27,4 km/h (5 Bft)
15.04.2024 21:03 22,0 °C 12,6 °C 57 % 60 % 997,8 hPa 0,0 l/m² 19,0 km/h (3 Bft) SW 218 ° 0 min 0 W/m² 5,0 °C 6,9 °C 24,1 km/h (4 Bft)
15.04.2024 21:04 22,0 °C 12,6 °C 57 % 61 % 997,9 hPa 0,0 l/m² 15,1 km/h (3 Bft) SW 216 ° 0 min 0 W/m² 5,3 °C 8,2 °C 24,1 km/h (4 Bft)
15.04.2024 21:05 21,9 °C 12,7 °C 56 % 61 % 997,9 hPa 0,0 l/m² 16,1 km/h (3 Bft) S-SW 213 ° 0 min 0 W/m² 5,4 °C 8,0 °C 22,5 km/h (4 Bft)
15.04.2024 21:06 22,0 °C 12,7 °C 56 % 60 % 997,9 hPa 0,0 l/m² 20,7 km/h (4 Bft) SW 226 ° 0 min 0 W/m² 5,1 °C 6,6 °C 25,7 km/h (4 Bft)
15.04.2024 21:07 21,9 °C 12,7 °C 56 % 60 % 998,0 hPa 0,0 l/m² 17,7 km/h (3 Bft) SW 216 ° 0 min 0 W/m² 5,1 °C 7,5 °C 22,5 km/h (4 Bft)
15.04.2024 21:08 22,0 °C 12,8 °C 55 % 60 % 998,1 hPa 0,0 l/m² 25,5 km/h (4 Bft) SW 220 ° 0 min 0 W/m² 5,2 °C 5,5 °C 32,2 km/h (5 Bft)
15.04.2024 21:09 22,0 °C 12,8 °C 55 % 59 % 998,2 hPa 0,0 l/m² 19,0 km/h (3 Bft) SW 217 ° 0 min 0 W/m² 5,0 °C 7,2 °C 25,7 km/h (4 Bft)
15.04.2024 21:10 22,0 °C 12,8 °C 55 % 59 % 998,5 hPa 0,0 l/m² 41,1 km/h (6 Bft) SW 222 ° 0 min 0 W/m² 5,0 °C 2,9 °C 57,9 km/h (7 Bft)
15.04.2024 21:11 22,0 °C 12,9 °C 55 % 60 % 998,8 hPa 0,0 l/m² 47,3 km/h (6 Bft) W 263 ° 0 min 0 W/m² 5,3 °C 2,4 °C 59,5 km/h (7 Bft)
15.04.2024 21:12 22,0 °C 12,8 °C 55 % 61 % 999,0 hPa 0,0 l/m² 49,6 km/h (7 Bft) SW 227 ° 0 min 0 W/m² 5,5 °C 2,0 °C 70,8 km/h (8 Bft)
15.04.2024 21:13 22,0 °C 12,7 °C 55 % 62 % 999,6 hPa 0,0 l/m² 57,8 km/h (7 Bft) W 267 ° 0 min 0 W/m² 5,6 °C 1,2 °C 82,1 km/h (9 Bft)
15.04.2024 21:14 22,0 °C 12,3 °C 55 % 62 % 999,6 hPa 0,0 l/m² 35,1 km/h (5 Bft) SW 222 ° 0 min 0 W/m² 5,2 °C 3,0 °C 43,5 km/h (6 Bft)
15.04.2024 21:15 22,0 °C 12,1 °C 55 % 64 % 999,7 hPa 0,0 l/m² 40,9 km/h (6 Bft) W-SW 252 ° 0 min 0 W/m² 5,5 °C 1,9 °C 51,5 km/h (7 Bft)
15.04.2024 21:16 22,0 °C 11,6 °C 55 % 66 % 999,9 hPa 0,0 l/m² 50,7 km/h (7 Bft) W 265 ° 0 min 0 W/m² 5,5 °C 0,1 °C 64,4 km/h (8 Bft)
15.04.2024 21:17 22,0 °C 11,3 °C 54 % 67 % 999,8 hPa 0,0 l/m² 35,4 km/h (5 Bft) W 259 ° 0 min 0 W/m² 5,4 °C 1,5 °C 48,3 km/h (6 Bft)
15.04.2024 21:18 22,0 °C 10,9 °C 54 % 68 % 999,9 hPa 0,0 l/m² 42,0 km/h (6 Bft) W-SW 242 ° 0 min 0 W/m² 5,2 °C -0,0 °C 61,2 km/h (7 Bft)
15.04.2024 21:19 22,0 °C 10,6 °C 54 % 68 % 999,9 hPa 0,0 l/m² 37,6 km/h (5 Bft) W-SW 255 ° 0 min 0 W/m² 4,9 °C 0,1 °C 49,9 km/h (7 Bft)
15.04.2024 21:20 22,0 °C 10,3 °C 54 % 69 % 1000,0 hPa 0,0 l/m² 38,6 km/h (6 Bft) W 267 ° 0 min 0 W/m² 4,9 °C -0,5 °C 51,5 km/h (7 Bft)
15.04.2024 21:21 22,0 °C 10,0 °C 54 % 70 % 1000,1 hPa 0,0 l/m² 42,6 km/h (6 Bft) W-SW 251 ° 0 min 0 W/m² 4,8 °C -1,5 °C 66,0 km/h (8 Bft)
15.04.2024 21:22 22,0 °C 9,8 °C 54 % 71 % 1000,1 hPa 0,0 l/m² 43,7 km/h (6 Bft) W-SW 251 ° 0 min 0 W/m² 4,8 °C -1,9 °C 53,1 km/h (7 Bft)
15.04.2024 21:23 22,0 °C 9,6 °C 54 % 72 % 1000,2 hPa 0,0 l/m² 36,1 km/h (5 Bft) W-SW 258 ° 0 min 0 W/m² 4,8 °C -1,1 °C 53,1 km/h (7 Bft)
15.04.2024 21:24 22,0 °C 9,4 °C 54 % 73 % 1000,2 hPa 0,0 l/m² 31,1 km/h (5 Bft) W-SW 244 ° 0 min 0 W/m² 4,8 °C -0,4 °C 46,7 km/h (6 Bft)
15.04.2024 21:25 22,0 °C 9,3 °C 54 % 74 % 1000,2 hPa 0,0 l/m² 33,2 km/h (5 Bft) W-SW 257 ° 0 min 0 W/m² 4,9 °C -1,0 °C 45,1 km/h (6 Bft)
15.04.2024 21:26 21,9 °C 9,1 °C 54 % 74 % 1000,2 hPa 0,0 l/m² 28,6 km/h (5 Bft) SW 223 ° 0 min 0 W/m² 4,7 °C -0,3 °C 37,0 km/h (5 Bft)
15.04.2024 21:27 21,9 °C 8,9 °C 54 % 75 % 1000,1 hPa 0,0 l/m² 27,4 km/h (5 Bft) SW 230 ° 0 min 0 W/m² 4,7 °C -0,3 °C 40,2 km/h (6 Bft)
15.04.2024 21:28 21,9 °C 8,8 °C 54 % 76 % 1000,1 hPa 0,0 l/m² 27,0 km/h (5 Bft) W-SW 246 ° 0 min 0 W/m² 4,8 °C -0,3 °C 35,4 km/h (5 Bft)
15.04.2024 21:29 21,9 °C 8,7 °C 54 % 77 % 1000,1 hPa 0,0 l/m² 30,2 km/h (5 Bft) W-SW 245 ° 0 min 0 W/m² 4,9 °C -1,2 °C 43,5 km/h (6 Bft)
15.04.2024 21:30 21,9 °C 8,6 °C 53 % 77 % 1000,2 hPa 0,0 l/m² 34,1 km/h (5 Bft) W-SW 244 ° 0 min 0 W/m² 4,8 °C -2,2 °C 45,1 km/h (6 Bft)
15.04.2024 21:31 21,9 °C 8,4 °C 53 % 77 % 1000,3 hPa 0,0 l/m² 37,6 km/h (5 Bft) W-SW 243 ° 0 min 0 W/m² 4,6 °C -3,1 °C 48,3 km/h (6 Bft)
15.04.2024 21:32 21,9 °C 8,3 °C 53 % 77 % 1000,3 hPa 0,0 l/m² 32,4 km/h (5 Bft) W 259 ° 0 min 0 W/m² 4,5 °C -2,3 °C 46,7 km/h (6 Bft)
15.04.2024 21:33 21,9 °C 8,2 °C 53 % 78 % 1000,4 hPa 0,2 l/m² 35,3 km/h (5 Bft) W 263 ° 0 min 0 W/m² 4,6 °C -3,0 °C 54,7 km/h (7 Bft)
15.04.2024 21:34 21,9 °C 8,1 °C 53 % 78 % 1000,4 hPa 0,0 l/m² 34,6 km/h (5 Bft) W 259 ° 0 min 0 W/m² 4,5 °C -3,0 °C 46,7 km/h (6 Bft)
15.04.2024 21:35 21,9 °C 8,0 °C 53 % 79 % 1000,4 hPa 0,0 l/m² 25,0 km/h (4 Bft) W-SW 248 ° 0 min 0 W/m² 4,6 °C -0,9 °C 32,2 km/h (5 Bft)
15.04.2024 21:36 21,9 °C 7,9 °C 53 % 79 % 1000,5 hPa 0,0 l/m² 24,3 km/h (4 Bft) W-SW 240 ° 0 min 0 W/m² 4,5 °C -0,8 °C 33,8 km/h (5 Bft)
15.04.2024 21:37 21,9 °C 7,8 °C 53 % 80 % 1000,4 hPa 0,0 l/m² 24,0 km/h (4 Bft) W-SW 245 ° 0 min 0 W/m² 4,6 °C -0,9 °C 37,0 km/h (5 Bft)
15.04.2024 21:38 21,9 °C 7,7 °C 53 % 80 % 1000,5 hPa 0,0 l/m² 19,8 km/h (3 Bft) W 259 ° 0 min 0 W/m² 4,5 °C 0,4 °C 25,7 km/h (4 Bft)
15.04.2024 21:39 21,9 °C 7,7 °C 53 % 81 % 1000,6 hPa 0,0 l/m² 26,7 km/h (4 Bft) SW 229 ° 0 min 0 W/m² 4,7 °C -1,8 °C 33,8 km/h (5 Bft)
15.04.2024 21:40 21,8 °C 7,6 °C 53 % 81 % 1000,5 hPa 0,0 l/m² 28,5 km/h (5 Bft) W-SW 245 ° 0 min 0 W/m² 4,6 °C -2,4 °C 33,8 km/h (5 Bft)
15.04.2024 21:41 21,8 °C 7,5 °C 53 % 81 % 1000,4 hPa 0,2 l/m² 22,4 km/h (4 Bft) W-SW 247 ° 0 min 0 W/m² 4,5 °C -0,8 °C 32,2 km/h (5 Bft)
15.04.2024 21:42 21,9 °C 7,4 °C 53 % 82 % 1000,4 hPa 0,0 l/m² 22,5 km/h (4 Bft) W 260 ° 0 min 0 W/m² 4,5 °C -0,9 °C 30,6 km/h (5 Bft)
15.04.2024 21:43 21,8 °C 7,3 °C 53 % 82 % 1000,3 hPa 0,0 l/m² 22,1 km/h (4 Bft) W-SW 252 ° 0 min 0 W/m² 4,4 °C -0,9 °C 27,4 km/h (5 Bft)
15.04.2024 21:44 21,9 °C 7,2 °C 53 % 82 % 1000,4 hPa 0,0 l/m² 22,6 km/h (4 Bft) W-SW 248 ° 0 min 0 W/m² 4,3 °C -1,2 °C 30,6 km/h (5 Bft)
15.04.2024 21:46 21,8 °C 7,2 °C 53 % 83 % 1000,3 hPa 0,0 l/m² 20,1 km/h (4 Bft) W-SW 253 ° 0 min 0 W/m² 4,5 °C -0,4 °C 29,0 km/h (5 Bft)
15.04.2024 21:47 21,8 °C 7,1 °C 53 % 83 % 1000,2 hPa 0,2 l/m² 16,8 km/h (3 Bft) W 266 ° 0 min 0 W/m² 4,4 °C 0,8 °C 29,0 km/h (5 Bft)
15.04.2024 21:48 21,8 °C 7,1 °C 53 % 83 % 1000,2 hPa 0,0 l/m² 15,4 km/h (3 Bft) W-SW 254 ° 0 min 0 W/m² 4,4 °C 1,4 °C 20,9 km/h (4 Bft)
15.04.2024 21:49 21,8 °C 6,9 °C 53 % 83 % 1000,3 hPa 0,0 l/m² 14,3 km/h (3 Bft) W-SW 251 ° 0 min 0 W/m² 4,2 °C 1,7 °C 19,3 km/h (3 Bft)
15.04.2024 21:50 21,8 °C 6,9 °C 53 % 84 % 1000,2 hPa 0,0 l/m² 11,2 km/h (2 Bft) W-SW 257 ° 0 min 0 W/m² 4,4 °C 3,4 °C 14,5 km/h (3 Bft)
15.04.2024 21:51 21,8 °C 6,8 °C 53 % 84 % 1000,1 hPa 0,0 l/m² 12,9 km/h (3 Bft) W-SW 254 ° 0 min 0 W/m² 4,3 °C 2,3 °C 19,3 km/h (3 Bft)
15.04.2024 21:52 21,8 °C 6,8 °C 53 % 84 % 1000,2 hPa 0,0 l/m² 12,8 km/h (3 Bft) W-SW 255 ° 0 min 0 W/m² 4,3 °C 2,4 °C 16,1 km/h (3 Bft)
15.04.2024 21:53 21,8 °C 6,8 °C 53 % 85 % 1000,1 hPa 0,0 l/m² 16,8 km/h (3 Bft) W-SW 258 ° 0 min 0 W/m² 4,5 °C 0,4 °C 24,1 km/h (4 Bft)
15.04.2024 21:54 21,8 °C 6,8 °C 54 % 85 % 1000,3 hPa 0,0 l/m² 18,0 km/h (3 Bft) W-SW 248 ° 0 min 0 W/m² 4,5 °C -0,1 °C 22,5 km/h (4 Bft)
15.04.2024 21:55 21,8 °C 6,7 °C 54 % 85 % 1000,4 hPa 0,0 l/m² 16,2 km/h (3 Bft) SW 226 ° 0 min 0 W/m² 4,4 °C 0,6 °C 22,5 km/h (4 Bft)
15.04.2024 21:56 21,8 °C 6,7 °C 54 % 85 % 1000,2 hPa 0,0 l/m² 12,3 km/h (2 Bft) W 259 ° 0 min 0 W/m² 4,4 °C 2,5 °C 19,3 km/h (3 Bft)
15.04.2024 21:57 21,8 °C 6,7 °C 54 % 85 % 1000,2 hPa 0,0 l/m² 13,3 km/h (3 Bft) W-SW 253 ° 0 min 0 W/m² 4,4 °C 2,0 °C 19,3 km/h (3 Bft)
15.04.2024 21:58 21,8 °C 6,7 °C 54 % 86 % 1000,2 hPa 0,0 l/m² 15,0 km/h (3 Bft) SW 232 ° 0 min 0 W/m² 4,5 °C 1,1 °C 22,5 km/h (4 Bft)
15.04.2024 21:59 21,8 °C 6,7 °C 54 % 86 % 1000,5 hPa 0,0 l/m² 16,2 km/h (3 Bft) W-SW 241 ° 0 min 0 W/m² 4,5 °C 0,6 °C 20,9 km/h (4 Bft)
15.04.2024 22:00 21,8 °C 6,6 °C 54 % 86 % 1000,7 hPa 0,0 l/m² 19,0 km/h (3 Bft) SW 234 ° 0 min 0 W/m² 4,4 °C -0,7 °C 25,7 km/h (4 Bft)
15.04.2024 22:01 21,8 °C 6,6 °C 54 % 86 % 1000,7 hPa 0,0 l/m² 21,9 km/h (4 Bft) W-SW 252 ° 0 min 0 W/m² 4,4 °C -1,8 °C 25,7 km/h (4 Bft)
15.04.2024 22:02 21,8 °C 6,6 °C 54 % 86 % 1000,7 hPa 0,0 l/m² 23,7 km/h (4 Bft) W 273 ° 0 min 0 W/m² 4,4 °C -2,4 °C 35,4 km/h (5 Bft)
15.04.2024 22:03 21,8 °C 6,5 °C 54 % 86 % 1000,7 hPa 0,0 l/m² 22,5 km/h (4 Bft) W-SW 238 ° 0 min 0 W/m² 4,3 °C -2,1 °C 33,8 km/h (5 Bft)
15.04.2024 22:04 21,8 °C 6,5 °C 54 % 86 % 1000,7 hPa 0,0 l/m² 17,7 km/h (3 Bft) W-SW 246 ° 0 min 0 W/m² 4,3 °C -0,3 °C 24,1 km/h (4 Bft)
15.04.2024 22:05 21,8 °C 6,5 °C 54 % 86 % 1000,6 hPa 0,0 l/m² 19,2 km/h (3 Bft) W-SW 242 ° 0 min 0 W/m² 4,3 °C -0,9 °C 24,1 km/h (4 Bft)
15.04.2024 22:06 21,7 °C 6,4 °C 54 % 86 % 1000,6 hPa 0,0 l/m² 18,5 km/h (3 Bft) SW 223 ° 0 min 0 W/m² 4,2 °C -0,8 °C 27,4 km/h (5 Bft)
15.04.2024 22:07 21,7 °C 6,4 °C 54 % 86 % 1000,7 hPa 0,0 l/m² 18,8 km/h (3 Bft) SW 236 ° 0 min 0 W/m² 4,2 °C -0,9 °C 24,1 km/h (4 Bft)
15.04.2024 22:08 21,7 °C 6,4 °C 54 % 86 % 1000,9 hPa 0,0 l/m² 18,4 km/h (3 Bft) SW 224 ° 0 min 0 W/m² 4,2 °C -0,7 °C 27,4 km/h (5 Bft)
15.04.2024 22:09 21,8 °C 6,5 °C 54 % 86 % 1000,9 hPa 0,0 l/m² 22,9 km/h (4 Bft) SW 217 ° 0 min 0 W/m² 4,3 °C -2,3 °C 33,8 km/h (5 Bft)
15.04.2024 22:10 21,7 °C 6,4 °C 54 % 86 % 1000,9 hPa 0,0 l/m² 23,3 km/h (4 Bft) W-SW 250 ° 0 min 0 W/m² 4,2 °C -2,5 °C 32,2 km/h (5 Bft)
15.04.2024 22:11 21,7 °C 6,4 °C 54 % 86 % 1000,9 hPa 0,0 l/m² 22,9 km/h (4 Bft) W-SW 252 ° 0 min 0 W/m² 4,2 °C -2,4 °C 29,0 km/h (5 Bft)
15.04.2024 22:12 21,7 °C 6,4 °C 54 % 86 % 1000,9 hPa 0,0 l/m² 22,5 km/h (4 Bft) SW 226 ° 0 min 0 W/m² 4,2 °C -2,3 °C 32,2 km/h (5 Bft)
15.04.2024 22:13 21,8 °C 6,4 °C 54 % 86 % 1000,9 hPa 0,0 l/m² 18,9 km/h (3 Bft) S-SW 209 ° 0 min 0 W/m² 4,2 °C -0,9 °C 27,4 km/h (5 Bft)
15.04.2024 22:14 21,7 °C 6,4 °C 54 % 86 % 1000,9 hPa 0,0 l/m² 21,1 km/h (4 Bft) W-SW 246 ° 0 min 0 W/m² 4,2 °C -1,8 °C 30,6 km/h (5 Bft)
15.04.2024 22:15 21,7 °C 6,4 °C 54 % 86 % 1000,8 hPa 0,0 l/m² 17,4 km/h (3 Bft) W-SW 240 ° 0 min 0 W/m² 4,2 °C -0,3 °C 24,1 km/h (4 Bft)
15.04.2024 22:16 21,8 °C 6,4 °C 54 % 86 % 1000,8 hPa 0,0 l/m² 18,1 km/h (3 Bft) SW 226 ° 0 min 0 W/m² 4,2 °C -0,6 °C 24,1 km/h (4 Bft)
15.04.2024 22:17 21,7 °C 6,4 °C 54 % 86 % 1000,9 hPa 0,0 l/m² 17,8 km/h (3 Bft) W-SW 244 ° 0 min 0 W/m² 4,2 °C -0,5 °C 25,7 km/h (4 Bft)
15.04.2024 22:18 21,7 °C 6,4 °C 54 % 86 % 1000,9 hPa 0,0 l/m² 22,3 km/h (4 Bft) W-SW 257 ° 0 min 0 W/m² 4,2 °C -2,2 °C 33,8 km/h (5 Bft)
15.04.2024 22:19 21,7 °C 6,3 °C 54 % 86 % 1000,9 hPa 0,0 l/m² 27,0 km/h (5 Bft) SW 233 ° 0 min 0 W/m² 4,1 °C -3,8 °C 35,4 km/h (5 Bft)
15.04.2024 22:20 21,7 °C 6,3 °C 54 % 86 % 1000,9 hPa 0,0 l/m² 21,3 km/h (4 Bft) W-SW 240 ° 0 min 0 W/m² 4,1 °C -2,0 °C 29,0 km/h (5 Bft)
15.04.2024 22:21 21,8 °C 6,3 °C 54 % 86 % 1000,8 hPa 0,0 l/m² 14,7 km/h (3 Bft) W-SW 249 ° 0 min 0 W/m² 4,1 °C 0,8 °C 20,9 km/h (4 Bft)
15.04.2024 22:22 21,7 °C 6,3 °C 54 % 86 % 1000,7 hPa 0,0 l/m² 22,0 km/h (4 Bft) W-SW 238 ° 0 min 0 W/m² 4,1 °C -2,2 °C 30,6 km/h (5 Bft)
15.04.2024 22:23 21,7 °C 6,3 °C 54 % 86 % 1000,7 hPa 0,0 l/m² 18,8 km/h (3 Bft) W-SW 242 ° 0 min 0 W/m² 4,1 °C -1,0 °C 29,0 km/h (5 Bft)
15.04.2024 22:24 21,7 °C 6,3 °C 54 % 86 % 1000,7 hPa 0,0 l/m² 19,2 km/h (3 Bft) W-SW 256 ° 0 min 0 W/m² 4,1 °C -1,2 °C 25,7 km/h (4 Bft)
15.04.2024 22:25 21,7 °C 6,3 °C 54 % 86 % 1000,7 hPa 0,0 l/m² 24,3 km/h (4 Bft) SW 216 ° 0 min 0 W/m² 4,1 °C -3,0 °C 33,8 km/h (5 Bft)
15.04.2024 22:27 21,7 °C 6,2 °C 54 % 86 % 1000,6 hPa 0,0 l/m² 22,4 km/h (4 Bft) S-SW 212 ° 0 min 0 W/m² 4,0 °C -2,5 °C 30,6 km/h (5 Bft)
15.04.2024 22:28 21,7 °C 6,2 °C 54 % 86 % 1000,6 hPa 0,0 l/m² 18,9 km/h (3 Bft) SW 229 ° 0 min 0 W/m² 4,0 °C -1,2 °C 24,1 km/h (4 Bft)
15.04.2024 22:29 21,7 °C 6,2 °C 54 % 86 % 1000,6 hPa 0,0 l/m² 16,9 km/h (3 Bft) SW 227 ° 0 min 0 W/m² 4,0 °C -0,4 °C 24,1 km/h (4 Bft)
15.04.2024 22:30 21,7 °C 6,2 °C 54 % 86 % 1000,6 hPa 0,0 l/m² 18,0 km/h (3 Bft) SW 234 ° 0 min 0 W/m² 4,0 °C -0,8 °C 24,1 km/h (4 Bft)
15.04.2024 22:31 21,7 °C 6,2 °C 54 % 86 % 1000,6 hPa 0,0 l/m² 18,8 km/h (3 Bft) W-SW 245 ° 0 min 0 W/m² 4,0 °C -1,2 °C 25,7 km/h (4 Bft)
15.04.2024 22:32 21,7 °C 6,2 °C 55 % 86 % 1000,6 hPa 0,0 l/m² 21,7 km/h (4 Bft) W-SW 239 ° 0 min 0 W/m² 4,0 °C -2,2 °C 27,4 km/h (5 Bft)
15.04.2024 22:33 21,7 °C 6,2 °C 55 % 86 % 1000,7 hPa 0,0 l/m² 20,3 km/h (4 Bft) SW 229 ° 0 min 0 W/m² 4,0 °C -1,7 °C 32,2 km/h (5 Bft)
15.04.2024 22:34 21,7 °C 6,1 °C 55 % 86 % 1000,7 hPa 0,0 l/m² 19,4 km/h (3 Bft) SW 220 ° 0 min 0 W/m² 3,9 °C -1,5 °C 32,2 km/h (5 Bft)
15.04.2024 22:35 21,7 °C 6,1 °C 55 % 86 % 1000,8 hPa 0,0 l/m² 17,0 km/h (3 Bft) SW 229 ° 0 min 0 W/m² 3,9 °C -0,5 °C 24,1 km/h (4 Bft)
15.04.2024 22:36 21,7 °C 6,1 °C 55 % 86 % 1000,8 hPa 0,0 l/m² 20,6 km/h (4 Bft) SW 232 ° 0 min 0 W/m² 3,9 °C -2,0 °C 27,4 km/h (5 Bft)
15.04.2024 22:37 21,7 °C 6,1 °C 55 % 86 % 1000,9 hPa 0,0 l/m² 21,8 km/h (4 Bft) SW 231 ° 0 min 0 W/m² 3,9 °C -2,4 °C 29,0 km/h (5 Bft)
15.04.2024 22:38 21,7 °C 6,1 °C 55 % 87 % 1000,8 hPa 0,0 l/m² 19,0 km/h (3 Bft) SW 236 ° 0 min 0 W/m² 4,1 °C -1,4 °C 27,4 km/h (5 Bft)
15.04.2024 22:39 21,7 °C 6,1 °C 55 % 87 % 1000,9 hPa 0,0 l/m² 18,2 km/h (3 Bft) W-SW 242 ° 0 min 0 W/m² 4,1 °C -1,0 °C 24,1 km/h (4 Bft)
15.04.2024 22:40 21,7 °C 6,1 °C 55 % 87 % 1000,8 hPa 0,0 l/m² 19,2 km/h (3 Bft) W-SW 246 ° 0 min 0 W/m² 4,1 °C -1,4 °C 24,1 km/h (4 Bft)
15.04.2024 22:41 21,7 °C 6,1 °C 55 % 87 % 1000,8 hPa 0,0 l/m² 18,0 km/h (3 Bft) W 259 ° 0 min 0 W/m² 4,1 °C -1,0 °C 29,0 km/h (5 Bft)
15.04.2024 22:42 21,7 °C 6,1 °C 55 % 87 % 1001,0 hPa 0,0 l/m² 22,3 km/h (4 Bft) W-SW 245 ° 0 min 0 W/m² 4,1 °C -2,6 °C 32,2 km/h (5 Bft)
15.04.2024 22:43 21,7 °C 6,1 °C 55 % 87 % 1000,9 hPa 0,0 l/m² 23,4 km/h (4 Bft) W-SW 242 ° 0 min 0 W/m² 4,1 °C -2,9 °C 32,2 km/h (5 Bft)
15.04.2024 22:44 21,7 °C 6,1 °C 54 % 86 % 1001,0 hPa 0,0 l/m² 21,1 km/h (4 Bft) SW 227 ° 0 min 0 W/m² 3,9 °C -2,2 °C 30,6 km/h (5 Bft)
15.04.2024 22:45 21,7 °C 6,1 °C 55 % 86 % 1001,0 hPa 0,0 l/m² 21,4 km/h (4 Bft) W-SW 249 ° 0 min 0 W/m² 3,9 °C -2,3 °C 30,6 km/h (5 Bft)
15.04.2024 22:46 21,7 °C 6,1 °C 54 % 86 % 1001,0 hPa 0,0 l/m² 21,8 km/h (4 Bft) W-SW 257 ° 0 min 0 W/m² 3,9 °C -2,4 °C 25,7 km/h (4 Bft)
15.04.2024 22:47 21,7 °C 6,1 °C 54 % 86 % 1001,1 hPa 0,0 l/m² 19,7 km/h (3 Bft) SW 236 ° 0 min 0 W/m² 3,9 °C -1,6 °C 25,7 km/h (4 Bft)
15.04.2024 22:48 21,7 °C 6,1 °C 55 % 86 % 1001,1 hPa 0,0 l/m² 24,4 km/h (4 Bft) W-SW 250 ° 0 min 0 W/m² 3,9 °C -3,3 °C 32,2 km/h (5 Bft)
15.04.2024 22:49 21,7 °C 6,1 °C 54 % 86 % 1001,1 hPa 0,0 l/m² 19,2 km/h (3 Bft) W-SW 246 ° 0 min 0 W/m² 3,9 °C -1,4 °C 27,4 km/h (5 Bft)
15.04.2024 22:50 21,7 °C 6,1 °C 54 % 86 % 1001,2 hPa 0,0 l/m² 19,2 km/h (3 Bft) W-SW 252 ° 0 min 0 W/m² 3,9 °C -1,4 °C 24,1 km/h (4 Bft)
15.04.2024 22:51 21,7 °C 6,1 °C 54 % 86 % 1001,1 hPa 0,0 l/m² 19,3 km/h (3 Bft) W-SW 246 ° 0 min 0 W/m² 3,9 °C -1,5 °C 29,0 km/h (5 Bft)
15.04.2024 22:52 21,7 °C 6,1 °C 54 % 86 % 1001,1 hPa 0,0 l/m² 20,3 km/h (4 Bft) W-SW 248 ° 0 min 0 W/m² 3,9 °C -1,9 °C 30,6 km/h (5 Bft)
15.04.2024 22:53 21,7 °C 6,1 °C 54 % 86 % 1001,2 hPa 0,0 l/m² 18,2 km/h (3 Bft) S-SW 204 ° 0 min 0 W/m² 3,9 °C -1,0 °C 25,7 km/h (4 Bft)
15.04.2024 22:54 21,7 °C 6,1 °C 54 % 86 % 1001,3 hPa 0,0 l/m² 22,5 km/h (4 Bft) W-SW 250 ° 0 min 0 W/m² 3,9 °C -2,6 °C 30,6 km/h (5 Bft)
15.04.2024 22:55 21,7 °C 6,1 °C 54 % 86 % 1001,3 hPa 0,0 l/m² 20,6 km/h (4 Bft) W-SW 246 ° 0 min 0 W/m² 3,9 °C -2,0 °C 32,2 km/h (5 Bft)
15.04.2024 22:56 21,7 °C 6,2 °C 54 % 86 % 1001,4 hPa 0,0 l/m² 24,3 km/h (4 Bft) W-SW 248 ° 0 min 0 W/m² 4,0 °C -3,1 °C 30,6 km/h (5 Bft)
15.04.2024 22:57 21,7 °C 6,2 °C 54 % 86 % 1001,4 hPa 0,0 l/m² 19,9 km/h (4 Bft) W-SW 254 ° 0 min 0 W/m² 4,0 °C -1,6 °C 27,4 km/h (5 Bft)
15.04.2024 22:58 21,7 °C 6,2 °C 54 % 86 % 1001,5 hPa 0,0 l/m² 23,4 km/h (4 Bft) W-SW 249 ° 0 min 0 W/m² 4,0 °C -2,8 °C 29,0 km/h (5 Bft)
15.04.2024 22:59 21,7 °C 6,2 °C 54 % 86 % 1001,5 hPa 0,0 l/m² 19,2 km/h (3 Bft) W 261 ° 0 min 0 W/m² 4,0 °C -1,3 °C 25,7 km/h (4 Bft)
15.04.2024 23:00 21,6 °C 6,2 °C 54 % 86 % 1001,5 hPa 0,0 l/m² 18,2 km/h (3 Bft) W-SW 253 ° 0 min 0 W/m² 4,0 °C -0,9 °C 27,4 km/h (5 Bft)
15.04.2024 23:01 21,7 °C 6,2 °C 54 % 86 % 1001,5 hPa 0,0 l/m² 15,1 km/h (3 Bft) SW 229 ° 0 min 0 W/m² 4,0 °C 0,5 °C 22,5 km/h (4 Bft)
15.04.2024 23:02 21,7 °C 6,2 °C 54 % 86 % 1001,4 hPa 0,0 l/m² 13,9 km/h (3 Bft) SW 234 ° 0 min 0 W/m² 4,0 °C 1,1 °C 17,7 km/h (3 Bft)
15.04.2024 23:03 21,7 °C 6,2 °C 54 % 86 % 1001,4 hPa 0,0 l/m² 13,3 km/h (3 Bft) W-SW 248 ° 0 min 0 W/m² 4,0 °C 1,4 °C 17,7 km/h (3 Bft)
15.04.2024 23:04 21,7 °C 6,2 °C 54 % 86 % 1001,3 hPa 0,0 l/m² 14,4 km/h (3 Bft) W-SW 250 ° 0 min 0 W/m² 4,0 °C 0,8 °C 22,5 km/h (4 Bft)
15.04.2024 23:05 21,7 °C 6,2 °C 54 % 86 % 1001,4 hPa 0,0 l/m² 17,9 km/h (3 Bft) W-SW 237 ° 0 min 0 W/m² 4,0 °C -0,8 °C 27,4 km/h (5 Bft)
15.04.2024 23:06 21,6 °C 6,2 °C 54 % 86 % 1001,3 hPa 0,0 l/m² 19,2 km/h (3 Bft) W-SW 252 ° 0 min 0 W/m² 4,0 °C -1,3 °C 24,1 km/h (4 Bft)
15.04.2024 23:07 21,6 °C 6,2 °C 54 % 85 % 1001,4 hPa 0,0 l/m² 17,6 km/h (3 Bft) W-SW 241 ° 0 min 0 W/m² 3,9 °C -0,7 °C 25,7 km/h (4 Bft)
15.04.2024 23:08 21,6 °C 6,1 °C 54 % 85 % 1001,4 hPa 0,0 l/m² 15,5 km/h (3 Bft) W-SW 257 ° 0 min 0 W/m² 3,8 °C 0,2 °C 19,3 km/h (3 Bft)
15.04.2024 23:09 21,6 °C 6,1 °C 54 % 85 % 1001,4 hPa 0,0 l/m² 18,4 km/h (3 Bft) W 263 ° 0 min 0 W/m² 3,8 °C -1,1 °C 22,5 km/h (4 Bft)
15.04.2024 23:10 21,7 °C 6,1 °C 54 % 85 % 1001,5 hPa 0,0 l/m² 15,4 km/h (3 Bft) W-SW 257 ° 0 min 0 W/m² 3,8 °C 0,2 °C 20,9 km/h (4 Bft)
15.04.2024 23:11 21,6 °C 6,1 °C 54 % 85 % 1001,5 hPa 0,0 l/m² 17,1 km/h (3 Bft) W 261 ° 0 min 0 W/m² 3,8 °C -0,6 °C 25,7 km/h (4 Bft)
15.04.2024 23:12 21,6 °C 6,1 °C 54 % 85 % 1001,4 hPa 0,0 l/m² 15,4 km/h (3 Bft) W-SW 248 ° 0 min 0 W/m² 3,8 °C 0,2 °C 22,5 km/h (4 Bft)
15.04.2024 23:13 21,6 °C 6,1 °C 54 % 85 % 1001,5 hPa 0,0 l/m² 15,0 km/h (3 Bft) W-SW 244 ° 0 min 0 W/m² 3,8 °C 0,4 °C 19,3 km/h (3 Bft)
15.04.2024 23:14 21,6 °C 6,1 °C 54 % 85 % 1001,5 hPa 0,0 l/m² 10,9 km/h (2 Bft) W-SW 252 ° 0 min 0 W/m² 3,8 °C 2,7 °C 16,1 km/h (3 Bft)
15.04.2024 23:15 21,6 °C 6,0 °C 54 % 85 % 1001,5 hPa 0,0 l/m² 16,2 km/h (3 Bft) SW 236 ° 0 min 0 W/m² 3,7 °C -0,3 °C 20,9 km/h (4 Bft)
15.04.2024 23:16 21,7 °C 6,0 °C 54 % 85 % 1001,4 hPa 0,0 l/m² 16,1 km/h (3 Bft) W-SW 247 ° 0 min 0 W/m² 3,7 °C -0,2 °C 27,4 km/h (5 Bft)
15.04.2024 23:17 21,6 °C 6,0 °C 54 % 85 % 1001,5 hPa 0,0 l/m² 17,7 km/h (3 Bft) W-SW 247 ° 0 min 0 W/m² 3,7 °C -1,0 °C 24,1 km/h (4 Bft)
15.04.2024 23:18 21,6 °C 5,9 °C 54 % 85 % 1001,5 hPa 0,0 l/m² 19,3 km/h (3 Bft) SW 225 ° 0 min 0 W/m² 3,6 °C -1,7 °C 25,7 km/h (4 Bft)
15.04.2024 23:19 21,6 °C 5,9 °C 54 % 85 % 1001,5 hPa 0,0 l/m² 16,1 km/h (3 Bft) SW 225 ° 0 min 0 W/m² 3,6 °C -0,4 °C 22,5 km/h (4 Bft)
15.04.2024 23:20 21,6 °C 5,9 °C 54 % 85 % 1001,6 hPa 0,0 l/m² 20,9 km/h (4 Bft) SW 225 ° 0 min 0 W/m² 3,6 °C -2,3 °C 25,7 km/h (4 Bft)
15.04.2024 23:26 21,6 °C 5,9 °C 54 % 84 % 1001,4 hPa 0,0 l/m² 17,6 km/h (3 Bft) SW 220 ° 0 min 0 W/m² 3,4 °C -1,0 °C 27,4 km/h (5 Bft)
15.04.2024 23:27 21,6 °C 5,9 °C 54 % 84 % 1001,5 hPa 0,0 l/m² 20,5 km/h (4 Bft) W-SW 246 ° 0 min 0 W/m² 3,4 °C -2,2 °C 27,4 km/h (5 Bft)
15.04.2024 23:28 21,6 °C 5,9 °C 54 % 84 % 1001,3 hPa 0,0 l/m² 20,8 km/h (4 Bft) W-SW 238 ° 0 min 0 W/m² 3,4 °C -2,3 °C 29,0 km/h (5 Bft)
15.04.2024 23:30 21,6 °C 5,9 °C 54 % 84 % 1001,4 hPa 0,0 l/m² 25,9 km/h (4 Bft) W-SW 246 ° 0 min 0 W/m² 3,4 °C -4,0 °C 35,4 km/h (5 Bft)
15.04.2024 23:31 21,6 °C 5,9 °C 54 % 84 % 1001,4 hPa 0,0 l/m² 21,4 km/h (4 Bft) W-SW 248 ° 0 min 0 W/m² 3,4 °C -2,5 °C 29,0 km/h (5 Bft)
15.04.2024 23:32 21,6 °C 5,9 °C 54 % 84 % 1001,4 hPa 0,0 l/m² 26,4 km/h (4 Bft) W-SW 238 ° 0 min 0 W/m² 3,4 °C -4,1 °C 32,2 km/h (5 Bft)
15.04.2024 23:33 21,6 °C 5,9 °C 54 % 84 % 1001,5 hPa 0,0 l/m² 26,4 km/h (4 Bft) W-SW 244 ° 0 min 0 W/m² 3,4 °C -4,1 °C 33,8 km/h (5 Bft)
15.04.2024 23:34 21,6 °C 5,9 °C 54 % 84 % 1001,4 hPa 0,0 l/m² 18,2 km/h (3 Bft) SW 228 ° 0 min 0 W/m² 3,4 °C -1,3 °C 30,6 km/h (5 Bft)
15.04.2024 23:36 21,6 °C 5,9 °C 54 % 83 % 1001,6 hPa 0,0 l/m² 20,5 km/h (4 Bft) SW 218 ° 0 min 0 W/m² 3,2 °C -2,2 °C 29,0 km/h (5 Bft)
15.04.2024 23:38 21,6 °C 5,9 °C 54 % 84 % 1001,6 hPa 0,0 l/m² 20,4 km/h (4 Bft) W-SW 251 ° 0 min 0 W/m² 3,4 °C -2,2 °C 29,0 km/h (5 Bft)
15.04.2024 23:40 21,6 °C 5,9 °C 54 % 84 % 1001,6 hPa 0,0 l/m² 19,9 km/h (4 Bft) W-SW 248 ° 0 min 0 W/m² 3,4 °C -2,0 °C 30,6 km/h (5 Bft)
15.04.2024 23:41 21,6 °C 5,9 °C 54 % 84 % 1001,6 hPa 0,0 l/m² 20,8 km/h (4 Bft) SW 229 ° 0 min 0 W/m² 3,4 °C -2,3 °C 29,0 km/h (5 Bft)
15.04.2024 23:42 21,6 °C 5,9 °C 54 % 84 % 1001,6 hPa 0,0 l/m² 22,9 km/h (4 Bft) W-SW 240 ° 0 min 0 W/m² 3,4 °C -3,0 °C 30,6 km/h (5 Bft)
15.04.2024 23:45 21,6 °C 5,9 °C 54 % 83 % 1001,6 hPa 0,0 l/m² 22,0 km/h (4 Bft) SW 234 ° 0 min 0 W/m² 3,2 °C -2,7 °C 35,4 km/h (5 Bft)
15.04.2024 23:47 21,6 °C 6,0 °C 54 % 84 % 1001,7 hPa 0,0 l/m² 18,6 km/h (3 Bft) SW 224 ° 0 min 0 W/m² 3,5 °C -1,3 °C 27,4 km/h (5 Bft)
15.04.2024 23:49 21,6 °C 6,0 °C 54 % 83 % 1001,7 hPa 0,0 l/m² 15,5 km/h (3 Bft) SW 217 ° 0 min 0 W/m² 3,3 °C 0,0 °C 22,5 km/h (4 Bft)
15.04.2024 23:50 21,6 °C 6,1 °C 54 % 84 % 1001,6 hPa 0,0 l/m² 14,0 km/h (3 Bft) S-SW 212 ° 0 min 0 W/m² 3,6 °C 0,9 °C 20,9 km/h (4 Bft)
15.04.2024 23:51 21,6 °C 6,1 °C 54 % 84 % 1001,7 hPa 0,0 l/m² 16,0 km/h (3 Bft) SW 214 ° 0 min 0 W/m² 3,6 °C -0,1 °C 20,9 km/h (4 Bft)
15.04.2024 23:52 21,6 °C 6,0 °C 54 % 84 % 1001,7 hPa 0,0 l/m² 11,9 km/h (2 Bft) S-SW 213 ° 0 min 0 W/m² 3,5 °C 2,0 °C 16,1 km/h (3 Bft)
15.04.2024 23:55 21,6 °C 6,1 °C 54 % 84 % 1001,8 hPa 0,0 l/m² 16,8 km/h (3 Bft) SW 234 ° 0 min 0 W/m² 3,6 °C -0,4 °C 24,1 km/h (4 Bft)
15.04.2024 23:57 21,6 °C 6,0 °C 54 % 84 % 1001,9 hPa 0,0 l/m² 15,4 km/h (3 Bft) SW 236 ° 0 min 0 W/m² 3,5 °C 0,1 °C 25,7 km/h (4 Bft)
15.04.2024 23:59 21,6 °C 6,1 °C 54 % 84 % 1001,9 hPa 0,0 l/m² 16,2 km/h (3 Bft) SW 224 ° 0 min 0 W/m² 3,6 °C -0,2 °C 24,1 km/h (4 Bft)
_ Min-Zeit 23:59 23:45 17:47 18:03 20:34 - 05:49 - - - - 23:45 23:33 05:49
Minimum _ 21,6 °C 5,9 °C 50 % 51 % 997,6 hPa - 0,0 km/h (0 Bft) - - - - 3,2 °C -4,1 °C 0,0 km/h (0 Bft)
_ Max-Zeit 15:54 17:34 21:04 08:03 00:08 21:47 21:13 - - 09:47 12:58 13:48 17:31 21:13
Maximum _ 22,3 °C 16,9 °C 57 % 93 % 1016,3 hPa 0,2 l/m² 57,8 km/h
W (7 Bft)
- - 3 min 990 W/m² 10,7 °C 16,1 °C 82,1 km/h
W-SW (9 Bft)
Durchschnitt _ 21,8 °C 10,5 °C 54 % 79 % 1007,7 hPa #2,8 l/m² 10,2 km/h (2 Bft) S-SW - #10:15 h 145 W/m² 6,9 °C 8,0 °C 14,9 km/h (3 Bft)
© 2009 Mathias Hoßbach